     2.11           OBSERVATION DATA    G (GPS)             RINEX VERSION / TYPE
teqc 2010Oct21 OPUS Account 20111025 17:55:17UTC            PGM / RUN BY / DATE
Q 1522                                                      MARKER NAME
1170                                                        MARKER NUMBER
DBPROUTY NGS                                                OBSERVER / AGENCY
0220390614 TRIMBLE R7 2.32                                  REC # / TYPE / VERS
12668881 TRM41249.00 NONE                                   ANT # / TYPE
  -738053.5469 -5496299.3077  3140268.3117                  APPROX POSITION XYZ
        2.0000        0.0000        0.0000                  ANTENNA: DELTA H/E/N
     1     1                                                WAVELENGTH FACT L1/2
     5    L1    L2    C1    P1    P2                        # / TYPES OF OBSERV
    30.0000                                                 INTERVAL
    15                                                      LEAP SECONDS
  2011     7    25    19     5    0.0000000     GPS         TIME OF FIRST OBS
                                                            END OF HEADER
 11  7 25 19  5  0.0000000  0  8G03G07G08G11G13G19G23G28
   -674423.50056   -515719.75053  23124339.4774                   23124339.2974
  -2981433.45758  -2291645.88356  20909829.8594                   20909828.0704
  -3500914.13357  -2692147.30155  22358484.7974                   22358483.9534
  -3529676.39557  -2718451.15254  23027908.0704                   23027908.8164
  -1158150.66058   -890644.61356  21097115.8594                   21097114.2584
  -1566797.59858  -1195877.07856  21446546.0944                   21446542.5044
   -535292.85557   -412496.48054  22914755.3754                   22914754.3134
  -3094430.17257  -2379397.49254  23258192.5314                   23258192.4654
 11  7 25 19  5 30.0000000  0  8G03G07G08G11G13G19G23G28
   -714452.45746   -546911.20343  23116722.8134                   23116722.1644
  -3161490.69148  -2431950.20746  20875566.3674                   20875564.3134
  -3714072.84047  -2858244.99245  22317921.6484                   22317921.0124
  -3743119.33647  -2884770.25044  22987291.1254                   22987290.9344
  -1225423.03548   -943064.69546  21084313.9304                   21084312.6414
  -1658667.64148  -1267464.14146  21429063.5704                   21429060.0784
   -567201.79747   -437360.78544  22908682.7664                   22908682.6294
  -3281540.52347  -2525197.68744  23222586.8914                   23222586.2894
 11  7 25 19  6  0.0000000  0  8G03G07G08G11G13G19G23G28
   -754143.44947   -577839.31643  23109169.4694                   23109169.3404
  -3341228.61348  -2572005.71146  20841363.1564                   20841360.9304
  -3927100.73047  -3024240.69545  22277383.5784                   22277383.5944
  -3956263.89847  -3050856.80144  22946730.7894                   22946731.1564
  -1292138.50848   -995050.84446  21071618.0394                   21071617.0944
  -1749905.44148  -1338558.53546  21411701.4384                   21411698.2464
   -598828.76647   -462005.35944  22902664.7584                   22902665.0434
  -3468370.33247  -2670779.30944  23187033.7584                   23187033.7384
 11  7 25 19  6 30.0000000  0  8G03G07G08G11G13G19G23G28
   -793473.91047   -608486.46544  23101685.4534                   23101684.6884
  -3520620.22748  -2711791.36346  20807226.2814                   20807223.8554
  -4139971.08647  -3190113.65245  22236875.6804                   22236875.1644
  -4169082.15647  -3216689.11344  22906233.2894                   22906233.3714
  -1358274.22748  -1046585.21146  21059032.6414                   21059031.9884
  -1840488.00847  -1409142.35546  21394464.3674                   21394460.9574
   -630151.75047   -486413.09844  22896704.7974                   22896704.0354
  -3654895.50847  -2816123.52744  23151539.7814                   23151539.2894
 11  7 25 19  7  0.0000000  0  8G03G07G08G11G13G19G23G28
   -832450.93047   -638858.22344  23094268.9694                   23094267.1994
  -3699667.91448  -2851309.03946  20773154.6414                   20773152.0314
  -4352686.31247  -3355865.75045  22196397.7664                   22196396.2424
  -4381575.14547  -3382267.94944  22865797.0314                   22865796.6094
  -1423836.58648  -1097672.81646  21046557.0864                   21046555.9844
  -1930421.33648  -1479220.28546  21377350.7114                   21377346.9494
   -661177.58647   -510589.25444  22890800.6564                   22890800.5204
  -3841120.96947  -2961234.21144  23116102.3134                   23116100.9614
 11  7 25 19  7 30.0000000  0  8G03G07G08G11G13G19G23G28
   -871070.04747   -668951.04743  23086919.9694                   23086917.7854
  -3878362.65648  -2990551.68446  20739149.8134                   20739147.6564
  -4565237.82447  -3521490.30145  22155950.3834                   22155948.6914
  -4593732.46147  -3547585.24244  22825424.3524                   22825424.6804
  -1488820.68048  -1148309.83646  21034191.4534                   21034190.0944
  -2019699.95348  -1548788.05946  21360361.7034                   21360358.2734
   -691901.89847   -534530.46944  22884954.2894                   22884953.2544
  -4027039.64147  -3106105.82444  23080723.0864                   23080722.3284
 11  7 25 19  8  0.0000000  0  8G03G07G08G11G13G19G23G28
   -909333.03947   -698766.35543  23079638.3984                   23079637.4734
  -4056701.60548  -3129517.09046  20705213.2034                   20705210.9614
  -4777623.25847  -3686985.44145  22115534.7274                   22115533.1764
  -4805549.94547  -3712637.72744  22785116.8834                   22785117.1054
  -1553228.15648  -1198497.53546  21021934.8444                   21021933.5984
  -2108324.98447  -1617846.52046  21343496.2194                   21343493.2624
   -722326.78147   -558238.40244  22879165.1254                   22879164.7544
  -4212651.27047  -3250738.18744  23045402.3204                   23045401.6684
 11  7 25 19  8 30.0000000  0  8G03G07G08G11G13G19G23G28
   -947245.17647   -728308.28543  23072424.3524                   23072422.9494
  -4234685.39148  -3268205.74246  20671343.6024                   20671341.7974
  -4989843.05947  -3852351.46945  22075149.9774                   22075149.1604
  -5017026.99247  -3877424.94544  22744874.0784                   22744874.5314
  -1617063.50848  -1248239.42246  21009787.1414                   21009786.2194
  -2196300.94548  -1686399.22746  21326755.3524                   21326751.8874
   -752457.16047   -581716.79344  22873430.9924                   22873431.0234
  -4397958.79347  -3395133.60944  23010139.0944                   23010138.5744
 11  7 25 19  9  0.0000000  0  8G03G07G08G11G13G19G23G28
   -984819.64547   -757587.11343  23065273.7664                   23065273.0434
  -4412322.46148  -3406624.21546  20637540.8134                   20637538.5004
  -5201906.53947  -4017595.68745  22034795.4384                   22034795.0474
  -5228170.54747  -4041952.28144  22704695.2344                   22704695.0824
  -1680339.68048  -1297545.59446  20997746.6724                   20997745.6914
  -2283640.05148  -1754455.68446  21310135.3834                   21310131.3914
   -782306.36747   -604976.12944  22867751.3834                   22867751.3714
  -4582973.31247  -3539300.68744  22974931.8594                   22974932.4614
 11  7 25 19  9 30.0000000  0  8G03G07G08G11G13G19G23G28
  -1022052.83647   -786600.05544  23058188.2974                   23058188.6094
  -4589604.06248  -3544765.70346  20603805.2584                   20603802.7734
  -5413805.14547  -4182711.44545  21994472.9844                   21994472.3754
  -5438971.26647  -4206212.47344  22664580.6564                   22664580.3054
  -1743052.43748  -1346412.73046  20985812.5634                   20985811.5634
  -2370337.84448  -1822012.40246  21293637.1564                   21293633.6914
   -811870.94147   -628013.68044  22862125.6254                   22862125.6644
  -4767688.89547  -3683234.83644  22939781.5944                   22939781.1134
 11  7 25 19 10  0.0000000  0  8G03G07G08G11G13G19G23G28
  -1058956.29747   -815356.03144  23051165.5084                   23051165.6134
  -4766537.73048  -3682636.07846  20570135.9774                   20570133.2624
  -5625546.35948  -4347704.57445  21954180.4224                   21954179.3714
  -5649435.32047  -4370210.35244  22624530.7034                   22624530.5634
  -1805213.34448  -1394849.85546  20973983.8364                   20973983.3134
  -2456405.68448  -1889078.25846  21277258.9844                   21277255.5394
   -841162.44547   -650838.44944  22856551.5164                   22856551.4344
  -4952115.67647  -3826943.96944  22904686.6094                   22904685.8404
 11  7 25 19 10 30.0000000  0  8G03G07G08G11G13G19G23G28
    479885.69146    383741.50844  23343998.0784                   23343998.5394
  -3367698.02748  -2592631.09446  20836326.2734                   20836323.5274
  -4261703.91047  -3284970.18045  22213710.9924                   22213710.1134
  -4284135.01247  -3306339.87544  22884338.6334                   22884338.7274
   -291405.27048   -215259.21946  21262052.2274                   21262051.3714
   -966424.87548   -728054.26646  21560793.0314                   21560789.6134
    705234.76247    554146.16444  23150821.2734                   23150820.7274
  -3560830.29347  -2742825.39844  23169439.5784                   23169439.9064
 11  7 25 19 11  0.0000000  0  8G03G07G08G11G13G19G23G28
    443616.78547    355479.96544  23337096.7814                   23337096.3794
  -3543945.97348  -2729967.14546  20802787.2194                   20802784.9694
  -4473141.67647  -3449726.87945  22173475.1564                   22173474.4184
  -4493932.24247  -3469818.14144  22844415.0554                   22844415.6764
   -352485.85948   -262854.53146  21250428.3754                   21250427.8794
  -1051254.44148   -794155.24246  21544650.5784                   21544646.8754
    676464.09447    531727.28944  23145346.7734                   23145346.2854
  -3744696.70747  -2886097.84044  23134450.6564                   23134450.4804
 11  7 25 19 11 30.0000000  0  8G03G07G08G11G13G19G23G28
    407648.12546    327452.36344  23330251.8444                   23330251.5164
  -3719861.07048  -2867043.83246  20769312.1644                   20769309.3914
  -4684437.84047  -3614373.19945  22133266.8204                   22133265.9924
  -4703403.70347  -3633042.55944  22804554.3204                   22804553.8164
   -413042.51248   -310041.59446  21238905.1954                   21238904.2114
  -1135481.07047   -859786.38346  21528622.6954                   21528618.9184
    647937.01246    509498.17643  23139917.8834                   23139917.5634
  -3928296.37147  -3029162.44944  23099512.1724                   23099512.0944
 11  7 25 19 12  0.0000000  0  8G03G07G08G11G13G19G23G28
    371966.73446    299648.63343  23323461.9534                   23323461.6134
  -3895451.92248  -3003867.86746  20735897.8364                   20735895.5594
  -4895601.48047  -3778916.25445  22093083.6954                   22093083.5594
  -4912557.37947  -3796019.36744  22764753.4144                   22764753.6294
   -473088.39848   -356830.66846  21227479.4384                   21227477.9344
  -1219116.73848   -924957.04346  21512707.0944                   21512703.6564
    619640.18047    487448.47344  23134533.5004                   23134533.6604
  -4111640.98847  -3172028.30544  23064622.8834                   23064623.1804
 11  7 25 19 12 30.0000000  0  8G03G07G08G11G13G19G23G28
    336560.47346    272059.26243  23316724.5634                   23316724.3134
  -4070726.15648  -3140445.18446  20702544.2814                   20702541.6054
  -5106640.57047  -3943362.25845  22052925.2344                   22052924.2934
  -5121399.57847  -3958753.45344  22725011.6884                   22725011.5084
   -532635.43748   -403231.00846  21216147.9064                   21216146.7344
  -1302173.37147   -989676.50846  21496902.0164                   21496898.6994
    591560.98846    465568.34043  23129190.8364                   23129190.7424
  -4294740.68747  -3314703.32845  23029780.5554                   23029780.4574
 11  7 25 19 13  0.0000000  0  8G03G07G08G11G13G19G23G28
    301413.77747    244672.18043  23310036.1644                   23310036.1094
  -4245694.37148  -3276784.03546  20669248.5474                   20669246.4104
  -5317565.93747  -4107719.65645  22012786.6174                   22012786.0164
  -5329939.84047  -4121252.27744  22685327.7894                   22685327.6684
   -591698.98048   -449254.61346  21204908.0704                   21204907.2114
  -1384666.04747  -1053956.52746  21481204.3054                   21481200.5204
    563684.05947    443845.85244  23123885.9694                   23123886.5124
  -4477608.40247  -3457197.58244  22994981.7034                   22994981.0634
 11  7 25 19 13 30.0000000  0  8G03G07G08G11G13G19G23G28
    266510.33647    217474.62143  23303394.4384                   23303393.6564
  -4420368.18448  -3412893.49246  20636009.5554                   20636007.4224
  -5528389.39547  -4271997.64145  21972668.4384                   21972667.4774
  -5538188.50047  -4283523.85544  22645699.4144                   22645699.3874
   -650294.85948   -494913.80546  21193757.9454                   21193756.9064
  -1466610.21948  -1117809.14146  21465611.2274                   21465607.6914
    535993.09447    422268.26244  23118617.1484                   23118617.1764
  -4660258.74247  -3599522.46144  22960225.0004                   22960223.8524
 11  7 25 19 14  0.0000000  0  8G03G07G08G11G13G19G23G28
    231847.32447    190464.46543  23296798.4844                   23296797.2464
  -4594745.27348  -3548771.72746  20602826.9454                   20602824.5434
  -5739108.71947  -4436194.50045  21932570.0944                   21932569.0474
  -5746142.10947  -4445565.54744  22606127.9694                   22606127.5124
   -708425.25048   -540210.27046  21182696.0944                   21182695.1294
  -1548007.66047  -1181235.73446  21450121.3364                   21450118.0984
    508485.48847    400833.53944  23113382.7424                   23113383.4774
  -4842691.65247  -3741677.90245  22925509.1884                   22925508.7664
 11  7 25 19 14 30.0000000  0  8G03G07G08G11G13G19G23G28
    197424.02747    163641.11743  23290247.7664                   23290246.7384
  -4768822.55148  -3684416.32846  20569700.7814                   20569698.5354
  -5949720.89148  -4600307.85245  21892492.0164                   21892490.4304
  -5953796.49247  -4607374.07444  22566612.0164                   22566611.8914
   -766091.28148   -585144.89546  21171723.0234                   21171722.2544
  -1628859.07047  -1244236.85246  21434735.6884                   21434732.6174
    481159.80147    379540.56344  23108182.3674                   23108183.4654
  -5024906.41447  -3883663.39144  22890834.5234                   22890833.4614
 11  7 25 19 15  0.0000000  0  8G03G07G08G11G13G19G23G28
    163226.06647    136993.31343  23283740.3444                   23283739.8164
  -4942609.16448  -3819834.47346  20536630.3594                   20536627.9494
  -6160235.46547  -4764345.16045  21852432.1254                   21852431.1644
  -6161159.41447  -4768955.49644  22527151.9614                   22527151.4614
   -823306.93448   -629728.58645  21160834.9384                   21160834.0704
  -1709177.84048  -1306822.91046  21419451.5164                   21419448.2934
    454001.98847    358378.38344  23103015.0314                   23103015.1604
  -5206915.19947  -4025488.37545  22856199.5314                   22856198.5664
 11  7 25 19 15 30.0000000  0  8G03G07G08G11G13G19G23G28
    129234.35547    110506.23843  23277271.8914                   23277271.3794
  -5116119.72348  -3955037.48046  20503612.4534                   20503610.1804
  -6370667.21547  -4928317.91445  21812388.3284                   21812387.7774
  -6368244.48447  -4930320.40644  22487745.0394                   22487744.3164
   -880091.09847   -673976.05945  21150029.2274                   21150028.0354
  -1788983.13748  -1369008.87546  21404265.3674                   21404262.2814
    426992.65647    337331.93444  23097875.4774                   23097876.6524
  -5388735.12547  -4167166.15244  22821600.1174                   22821599.2194
 11  7 25 19 16  0.0000000  0  8G03G07G08G11G13G19G23G28
   1670858.05947   1311771.41043  23570633.4144                   23570632.9654
  -3713935.61348  -2862426.47346  20770438.8594                   20770436.9534
  -5005596.23447  -3864626.19145  22072152.2194                   22072151.7034
  -4999630.71147  -3863868.02344  22748183.4924                   22748183.5514
    638966.49248    509705.12145  21439096.2274                   21439095.3954
   -292863.19547   -203201.14846  21688967.6414                   21688964.3054
   1975540.86747   1543992.64544  23392554.4384                   23392555.0274
  -3994949.69947  -3081099.53544  23086828.5234                   23086827.9804
 11  7 25 19 16 30.0000000  0  8G03G07G08G11G13G19G23G28
   1637230.62546   1285568.16843  23564234.1954                   23564234.4104
  -3886928.49648  -2997226.11346  20737519.6884                   20737517.7854
  -5215896.68748  -4028496.64845  22032133.1644                   22032132.2974
  -5206190.77047  -4024823.85944  22708876.2814                   22708876.0084
    582997.64548    466092.95745  21428446.1094                   21428444.7894
   -371687.43048   -264622.63746  21673967.9844                   21673964.5864
   1948780.19947   1523139.91444  23387462.4064                   23387463.3014
  -4176433.64847  -3222515.53144  23052293.5004                   23052292.7894
 11  7 25 19 17  0.0000000  0  8G03G07G08G11G13G19G23G28
   1603759.53146   1259486.75043  23557864.5394                   23557864.8204
  -4059681.64548  -3131838.95746  20704645.8284                   20704644.1994
  -5426150.80948  -4192331.00845  21992123.8054                   21992122.3874
  -5412505.60247  -4185588.56644  22669615.8284                   22669615.7344
    527410.43848    422778.18045  21417868.6334                   21417867.1724
   -450046.64548   -325681.77046  21659056.8054                   21659053.2464
   1922117.53547   1502363.55944  23382389.0004                   23382389.8284
  -4357772.81647  -3363818.73444  23017785.8134                   23017784.8794
 11  7 25 19 17 30.0000000  0  8G03G07G08G11G13G19G23G28
   1570424.84446   1233511.60243  23551520.7584                   23551521.4224
  -4232210.07848  -3266276.68746  20671814.5314                   20671812.6884
  -5636373.80948  -4356141.12945  21952119.7274                   21952118.4024
  -5618589.29347  -4346173.20344  22630398.9774                   22630398.7504
    472185.28948    379745.53146  21407358.9454                   21407358.3134
   -527959.96948   -386393.45346  21644229.9774                   21644227.0354
   1895532.79747   1481647.91444  23377330.2344                   23377330.9614
  -4538984.72747  -3505022.77344  22983302.1254                   22983301.4494
 11  7 25 19 18  0.0000000  0  8G03G07G08G11G13G19G23G28
   1537215.48846   1207634.07443  23545200.9064                   23545201.8054
  -4404520.16848  -3400544.28546  20639025.3204                   20639022.9734
  -5846572.61748  -4519932.39145  21912119.4774                   21912118.6994
  -5824447.12947  -4506581.82044  22591225.5944                   22591225.5314
    417311.23848    336986.44945  21396917.3134                   21396916.4454
   -605438.14148   -446766.07046  21629486.3834                   21629483.2854
   1869014.90247   1460984.34444  23372283.9614                   23372285.1644
  -4720078.77747  -3646134.97345  22948841.2664                   22948840.5394
 11  7 25 19 18 30.0000000  0  8G03G07G08G11G13G19G23G28
   1504125.72746   1181849.77044  23538905.5944                   23538905.2544
  -4576612.57048  -3534642.25046  20606277.0554                   20606274.9654
  -6056748.14548  -4683705.50845  21872124.6564                   21872124.3284
  -6030078.86747  -4666814.26644  22552095.6954                   22552095.1174
    362782.74647    294496.64845  21386540.7424                   21386539.4964
   -682486.36348   -506803.65246  21614824.7274                   21614821.1294
   1842558.43047   1440368.65644  23367249.8914                   23367250.8834
  -4901058.22347  -3787157.87144  22914401.5944                   22914400.8834
 11  7 25 19 19  0.0000000  0  9G03G24G07G08G11G13G19G23G28
   1471136.43046   1156143.75843  23532627.3524                   23532627.7074
   2884350.72356   2293268.50853  24037706.1414                   24037710.7194
  -4748502.52348  -3668582.46946  20573567.6024                   20573565.5434
  -6266914.83248  -4847471.74245  21832131.0084                   21832130.8284
  -6235498.04747  -4826881.09044  22513005.2664                   22513005.3364
    308580.59848    252261.12945  21376226.8284                   21376225.3674
   -759123.16848   -566520.65246  21600241.1804                   21600238.2894
   1816143.84447   1419785.60544  23362224.2034                   23362224.4924
  -5081940.23847  -3928104.84445  22879980.7114                   22879980.3444
 11  7 25 19 19 30.0000000  0  9G03G24G07G08G11G13G19G23G28
   1438241.77347   1130511.48844  23526368.4384                   23526367.8874
   2669527.48846   2125873.96543  23996825.9614                   23996831.0554
  -4920191.25048  -3802365.87946  20540896.6094                   20540894.1054
  -6477074.27748  -5011232.34045  21792139.5084                   21792138.6484
  -6440704.95347  -4986782.49644  22473956.1724                   22473955.7974
    254698.89148    210275.30545  21365973.0314                   21365972.6214
   -835354.53948   -625921.73446  21585735.1564                   21585731.7894
   1789764.88347   1399230.32043  23357204.2274                   23357205.0354
  -5262729.06247  -4068979.19144  22845577.9614                   22845576.3554
 11  7 25 19 20  0.0000000  0  9G03G24G07G08G11G13G19G23G28
   1405414.89547   1104932.03944  23520121.5394                   23520121.4694
   2454603.82847   1958401.12943  23955927.4614                   23955932.4144
  -5091701.05148  -3936009.86346  20508259.0944                   20508256.7304
  -6687248.59848  -5175004.54745  21752144.6334                   21752143.6334
  -6645720.70747  -5146534.96144  22434942.4614                   22434942.1484
    201110.91848    168518.37945  21355775.5864                   21355774.4654
   -911206.98447   -685027.54746  21571300.8444                   21571297.2074
   1763394.64146   1378681.80943  23352186.0634                   23352186.6484
  -5443449.72747  -4209800.45344  22811187.7114                   22811186.8834
 11  7 25 19 20 30.0000000  0  9G03G24G07G08G11G13G19G23G28
   1372647.34447   1079398.84044  23513885.9454                   23513885.9774
   2239576.57846   1790847.60943  23915008.7664                   23915013.7304
  -5263035.82848  -4069517.46946  20475654.7974                   20475653.0234
  -6897442.20748  -5338791.76245  21712145.7894                   21712144.5554
  -6850548.16847  -5306140.71145  22395964.9454                   22395965.3054
    147807.40648    126983.08645  21345633.0084                   21345631.4694
   -986688.92248   -743844.64846  21556937.0704                   21556933.4804
   1737024.33647   1358133.25844  23347168.4384                   23347169.0944
  -5624108.73447  -4350573.62544  22776809.2894                   22776808.6804
 11  7 25 19 21  0.0000000  0  9G03G24G07G08G11G13G19G23G28
   1339924.66447   1053900.60244  23507658.2734                   23507658.5744
   2024437.54747   1623206.98443  23874068.9064                   23874074.2424
  -5434204.74248  -4202895.83646  20443082.7504                   20443080.3984
  -7107664.74248  -5502601.49645  21672141.6484                   21672140.9184
  -7055195.70747  -5465606.27744  22357021.4694                   22357021.2774
     94775.02347     85659.08245  21335540.3984                   21335540.4694
  -1061813.75848   -802383.48446  21542641.2734                   21542637.7624
   1710639.82047   1337573.63743  23342147.8054                   23342148.3554
  -5804718.10547  -4491308.16045  22742441.2894                   22742439.7974
 11  7 25 19 21 30.0000000  0  9G03G24G07G08G11G13G19G23G28
   1307243.91447   1028435.03143  23501440.4454                   23501439.9884
   1809189.15646   1455481.10943  23833108.2664                   23833112.8954
  -5605206.85248  -4336144.21546  20410542.3444                   20410540.0904
  -7317915.16848  -5666432.97745  21632132.4924                   21632131.3164
  -7259661.13347  -5624929.91444  22318112.7734                   22318113.1764
     42010.30548     44543.63745  21325500.1174                   21325499.7624
  -1136584.66048   -860646.53546  21528412.7034                   21528409.2154
   1684237.32047   1316999.98444  23337123.5474                   23337124.3794
  -5985279.21947  -4632005.07045  22708081.6024                   22708080.4384
 11  7 25 19 22  0.0000000  0  9G03G24G07G08G11G13G19G23G28
   2850026.78946   2230603.47343  23795021.8754                   23795021.2034
   3169265.17247   2515280.77043  24091922.0314                   24091926.8594
  -4200610.96548  -3241653.90646  20677827.8134                   20677826.1604
  -5952760.39848  -4602675.98045  21891912.7274                   21891911.3054
  -5888510.84847  -4556501.06244  22579034.1254                   22579034.0354
   1564935.76247   1231238.71545  21615303.3134                   21615302.7544
    364421.96948    308969.00446  21814045.0394                   21814041.4964
   3233238.87147   2524013.90643  23631888.9304                   23631890.2584
  -4590363.37947  -3545057.61345  22973524.4064                   22973523.7704
 11  7 25 19 22 30.0000000  0  9G03G24G07G08G11G13G19G23G28
   2817432.71146   2205205.43043  23788819.4774                   23788819.0744
   2953818.03147   2347400.03143  24050924.1884                   24050929.0824
  -4371262.40248  -3374629.04346  20645353.5634                   20645352.0984
  -6163048.82448  -4766537.08645  21851896.1254                   21851895.1414
  -6092591.40247  -4715524.78544  22540199.6094                   22540198.9534
   1512709.26247   1190542.66845  21605365.1174                   21605364.5044
    290363.14548    251260.82446  21799951.8524                   21799948.2234
   3206803.75047   2503414.80144  23626858.7504                   23626861.1374
  -4770819.21147  -3685672.50445  22939184.9614                   22939183.6914
 11  7 25 19 23  0.0000000  0  9G03G24G07G08G11G13G19G23G28
   2784885.27746   2179843.76243  23782625.6954                   23782625.2544
   2738283.27047   2179450.98843  24009909.8754                   24009913.6134
  -4541728.35548  -3507459.64146  20612915.4144                   20612913.8444
  -6373346.45348  -4930405.35245  21811877.8204                   21811876.7584
  -6296467.94547  -4874389.57445  22501403.2194                   22501402.5044
   1460754.93447   1150058.70345  21595478.1484                   21595477.3484
    216663.71548    193832.69945  21785927.6254                   21785923.7074
   3180355.28547   2482805.32843  23621826.2734                   23621827.1604
  -4951216.06647  -3826241.41045  22904856.6644                   22904855.8754
 11  7 25 19 23 30.0000000  0  9G03G24G07G08G11G13G19G23G28
   2752375.89546   2154511.72343  23776439.2344                   23776438.9344
   2522657.82847   2011431.35243  23968876.7274                   23968881.9414
  -4712013.20748  -3640149.12946  20580510.8364                   20580509.4884
  -6583657.16848  -5094283.79745  21771856.8444                   21771856.4264
  -6500143.14547  -5033097.43444  22462644.6174                   22462644.0704
   1409063.83647   1109779.84445  21585641.8674                   21585641.3094
    143315.47748    136678.21146  21771969.3524                   21771966.5634
   3153884.48446   2462178.41443  23616789.2424                   23616790.5124
  -5131560.99247  -3966769.87545  22870538.6804                   22870537.1134
 11  7 25 19 24  0.0000000  0  9G03G24G07G08G11G13G19G23G28
   2719917.80146   2129219.65243  23770263.1644                   23770262.8444
   2306960.69946   1843355.78543  23927830.9924                   23927835.2344
  -4882098.92248  -3772683.44546  20548144.5474                   20548142.7934
  -6793963.26648  -5258158.64846  21731837.1804                   21731836.8324
  -6703598.60247  -5191634.09045  22423928.1254                   22423927.8014
   1357649.24247   1069716.44945  21575857.9064                   21575857.8244
     70331.48048     79807.54346  21758080.8984                   21758077.8554
   3127404.37146   2441544.28143  23611750.0234                   23611752.5084
  -5311838.71547  -4107245.94545  22836232.3834                   22836231.7624
 11  7 25 19 24 30.0000000  0  9G03G24G07G08G11G13G19G23G28
   2687497.96146   2103957.38343  23764094.3054                   23764092.8324
   2091184.87546   1675218.90643  23886769.7504                   23886774.3984
  -5051993.85248  -3905069.09846  20515815.2424                   20515813.0394
  -7004272.77048  -5422036.15645  21691816.5944                   21691816.1024
  -6906841.43747  -5350005.06645  22385252.3674                   22385252.1884
   1306498.36347   1029858.53545  21566124.2114                   21566124.0984
     -2300.62948     23211.09045  21744259.9224                   21744256.7544
   3100902.32846   2420892.98043  23606706.4614                   23606709.4884
  -5492060.16847  -4247678.21145  22801937.5944                   22801936.1844
 11  7 25 19 25  0.0000000  0  9G03G24G07G08G11G13G19G23G28
   2655119.89146   2078727.64543  23757932.7734                   23757932.4574
   1875339.34047   1507027.77743  23845695.8054                   23845700.9454
  -5221689.74248  -4037299.64546  20483522.8054                   20483520.9804
  -7214577.77048  -5585910.15646  21651797.3594                   21651796.3364
  -7109862.37947  -5508203.12145  22346619.3284                   22346618.5394
   1255614.44148    990208.63345  21556441.8054                   21556441.9694
    -74577.04348    -33108.21546  21730506.2194                   21730503.0474
   3074381.37546   2400226.99643  23601660.3204                   23601662.4774
  -5672220.18047  -4388062.60245  22767653.7664                   22767652.8364
 11  7 25 19 25 30.0000000  0  9G03G24G07G08G11G13G19G23G28
   2622774.76246   2053523.59843  23751778.3984                   23751777.8554
   1659420.57846   1338779.52743  23804607.7584                   23804611.8834
  -5391191.30548  -4169378.77346  20451267.8524                   20451266.0984
  -7424882.93448  -5749784.27045  21611777.1254                   21611775.9454
  -7312664.91047  -5666230.99645  22308026.8204                   22308026.2894
   1204988.17247    950759.52345  21546807.6334                   21546807.4534
   -146506.94548    -89157.49646  21716818.6174                   21716815.2934
   3047832.23046   2379539.04743  23596608.2034                   23596610.4774
  -5852325.92647  -4528404.68445  22733381.0704                   22733380.1804
 11  7 25 19 26  0.0000000  0  9G03G24G07G08G11G13G19G23G28
   2590467.45746   2028349.00843  23745630.2274                   23745630.2074
   1443439.42646   1170482.70743  23763507.5864                   23763512.4494
  -5560488.79348  -4301298.89146  20419051.5004                   20419049.4924
  -7635178.53548  -5913650.93045  21571758.7194                   21571757.6294
  -7515238.52347  -5824080.51645  22269478.7974                   22269478.1024
   1154624.36747    911514.91445  21537223.9614                   21537223.3524
   -218085.07448   -144932.66446  21703197.7734                   21703194.4024
   3021259.77047   2358832.88743  23591552.5474                   23591554.4804
  -6032370.10547  -4668698.80545  22699119.6484                   22699118.3404
 11  7 25 19 26 30.0000000  0  8G24G07G08G11G13G19G23G28
   1227392.43846   1002134.59443  23722395.1564                   23722400.1454
  -5729586.77748  -4433063.54346  20386873.2424                   20386871.1094
  -7845468.98048  -6077513.57045  21531742.3284                   21531741.2774
  -7717586.40247  -5981754.10245  22230972.4844                   22230971.8054
   1104513.94947    872467.75845  21527688.2114                   21527688.4344
   -289320.02348   -200440.42645  21689641.4144                   21689638.4184
   2994654.88747   2338101.53143  23586489.7344                   23586491.8524
  -6212360.02747  -4808950.62145  22664868.2734                   22664868.1294
 11  7 25 19 27  0.0000000  0  8G24G07G08G11G13G19G23G28
   1011282.41046    833737.32443  23681270.2814                   23681275.0004
  -5898483.59048  -4564671.44146  20354733.3284                   20354731.4884
  -8055752.64848  -6241370.94146  21491727.0164                   21491725.0004
  -7919706.00047  -6139249.81645  22192510.5554                   22192509.8954
   1054653.85247    833615.64545  21518200.2734                   21518200.1174
   -360214.88748   -255683.18745  21676150.9844                   21676148.1174
   2968014.60547   2317342.53543  23581421.0164                   23581423.2424
  -6392296.90247  -4949161.14545  22630627.6094                   22630626.6644
 11  7 25 19 27 30.0000000  0  8G24G07G08G11G13G19G23G28
   2370540.84046   1892899.91043  23939928.7664                   23939932.9804
  -4491750.34448  -3468515.66046  20622425.3594                   20622423.9304
  -6690598.73048  -5177614.61345  21751506.4144                   21751505.5594
  -6546166.48447  -5068959.21944  22453886.4694                   22453885.0664
   2580464.28147   2022558.75045  21808552.5474                   21808552.4184
   1144651.63748    916940.05546  21962517.8364                   21962514.6454
   4516758.05147   3524155.27743  23876137.2194                   23876138.6214
  -4996754.02047  -3861725.07845  22896190.5164                   22896189.8914
 11  7 25 19 28  0.0000000  0  8G24G07G08G11G13G19G23G28
   2154325.24247   1724420.38343  23898784.8204                   23898788.5004
  -4660227.78148  -3599796.76246  20590365.5704                   20590363.5904
  -6900850.84048  -5341447.37545  21711496.5704                   21711496.0124
  -6747809.38347  -5226083.46945  22415514.6644                   22415513.5634
   2531107.87548   1984099.12545  21799160.8674                   21799160.4024
   1074440.92248    862230.38746  21949157.2734                   21949154.4224
   4490049.85547   3503343.43443  23871055.1804                   23871056.6024
  -5176575.40647  -4001845.60545  22861971.5084                   22861970.8484
 11  7 25 19 28 30.0000000  0  8G24G07G08G11G13G19G23G28
   1938070.62547   1555910.46543  23857632.9694                   23857636.3404
  -4828483.49648  -3730905.10946  20558347.7974                   20558345.5394
  -7111075.25848  -5505258.57845  21671492.3284                   21671491.6054
  -6949200.17247  -5383011.28945  22377191.3204                   22377190.5314
   2482008.21148   1945839.56345  21789817.3674                   21789817.1414
   1004577.70748    807791.49646  21935862.4924                   21935859.4344
   4463312.75047   3482508.98043  23865967.6174                   23865969.6484
  -5356331.01247  -4141914.86745  22827765.3444                   22827764.5634
 11  7 25 19 29  0.0000000  0  8G24G07G08G11G13G19G23G28
   1721779.09847   1387371.78543  23816474.3054                   23816477.3754
  -4996516.50048  -3861839.91046  20526371.9844                   20526369.8134
  -7321271.11748  -5669047.53146  21631493.7114                   21631492.4224
  -7150337.41047  -5539741.53144  22338916.2664                   22338915.4144
   2433161.27047   1907776.91445  21780522.0864                   21780521.7894
    935057.95348    753620.25045  21922633.4144                   21922630.0824
   4436542.74246   3461648.90243  23860873.1804                   23860875.7154
  -5536022.93047  -4281934.51645  22793570.5944                   22793569.3914
 11  7 25 19 29 30.0000000  0  8G24G07G08G11G13G19G23G28
   1505449.33646   1218803.35243  23775307.2974                   23775310.7154
  -5164329.46148  -3992603.26246  20494437.9534                   20494435.9104
  -7531440.56248  -5832815.92246  21591499.6804                   21591498.9264
  -7351222.20347  -5696275.07845  22300689.4774                   22300688.5594
   2384559.93447   1869905.66045  21771273.6884                   21771273.1684
    865875.38348    699711.72345  21909468.8364                   21909465.0864
   4409733.08246   3440757.94143  23855771.6024                   23855773.8094
  -5715656.16847  -4421908.39845  22759387.7584                   22759387.0474
 11  7 25 19 30  0.0000000  0  8G24G07G08G11G13G19G23G28
   1289079.16047   1050203.39543  23734133.1644                   23734136.5904
  -5331925.55148  -4123197.61346  20462545.6024                   20462543.5204
  -7741586.90248  -5996566.29746  21551510.5474                   21551509.1764
  -7551857.03147  -5852613.82845  22262509.5704                   22262508.9654
   2336196.31347   1832219.63745  21762069.8754                   21762069.8164
    797022.04348    646059.75445  21896366.3834                   21896362.6334
   4382875.10546   3419829.30943  23850660.9614                   23850663.4534
  -5895236.64847  -4561841.19545  22725215.0634                   22725213.9344
 11  7 25 19 30 30.0000000  0  8G24G07G08G11G13G19G23G28
   1072668.68847    881572.04343  23692951.6804                   23692954.8014
  -5499305.47348  -4253623.53146  20430694.2114                   20430692.3914
  -7951710.74648  -6160299.11745  21511524.9384                   21511523.7584
  -7752241.95347  -6008757.84045  22224377.7114                   22224376.8674
   2288064.09047   1794713.91045  21752910.9304                   21752910.6684
    728492.20748    592659.86746  21883325.0164                   21883322.1094
   4355963.40646   3398858.75043  23845540.3594                   23845542.7624
  -6074768.01647  -4701735.73845  22691050.7584                   22691050.3634
 11  7 25 19 31  0.0000000  0  8G24G07G08G11G13G19G23G28
    856215.92247    712907.77343  23651761.4454                   23651765.4574
  -5666473.48048  -4383884.31646  20398883.1954                   20398881.1374
  -8161815.32448  -6324016.94945  21471543.3674                   21471542.3794
  -7952379.23047  -6164708.90245  22186292.4224                   22186291.7304
   2240155.59047   1757382.53545  21743794.7504                   21743794.3014
    660278.29748    539506.14845  21870344.6804                   21870341.7934
   4328990.17646   3377840.30943  23840408.1174                   23840409.9384
  -6254256.32047  -4841596.69945  22656895.5394                   22656894.6094
 11  7 25 19 31 30.0000000  0  8G24G07G08G11G13G19G23G28
    639720.93047    544210.59443  23610564.2734                   23610566.7894
  -5833430.10948  -4513980.38746  20367112.7114                   20367110.5434
  -8371901.61348  -6487720.50446  21431565.0634                   21431564.2154
  -8152268.90247  -6320467.01645  22148254.5784                   22148254.2734
   2192464.92647   1720220.87945  21734719.6254                   21734719.5084
    592374.72347    486594.24645  21857423.0944                   21857419.5514
   4301949.49246   3356769.28943  23835262.4224                   23835264.8134
  -6433705.21147  -4981426.96945  22622747.6334                   22622746.4064
 11  7 25 19 32  0.0000000  0  8G24G07G08G11G13G19G23G28
    423188.55546    375484.25443  23569358.2664                   23569362.2734
  -6000171.69548  -4643908.89546  20335382.8914                   20335380.6374
  -8581965.34448  -6651406.51246  21391591.2584                   21391590.4024
  -8351906.06247  -6476028.36745  22110264.9614                   22110264.1094
   2144991.02047   1683228.11745  21725685.3134                   21725685.2624
    524780.33248    433923.27345  21844560.2034                   21844557.2194
   4274840.59446   3335645.13343  23830103.3754                   23830106.9494
  -6613113.82047  -5121225.85245  22588607.3364                   22588605.7704
 11  7 25 19 32 30.0000000  0  8G24G07G08G11G13G19G23G28
    206623.32447    206732.32043  23528147.9924                   23528151.1054
  -6166694.62548  -4773667.02346  20303694.5004                   20303692.4264
  -8792003.35248  -6815072.46546  21351622.3524                   21351621.3164
  -8551286.91447  -6631390.00045  22072323.6884                   22072323.4654
   2097732.44147   1646403.15645  21716692.9614                   21716692.1724
    457494.59448    381492.81645  21831756.4304                   21831752.3754
   4247662.17646   3314466.78143  23824932.9454                   23824935.6334
  -6792481.46547  -5260992.80145  22554474.8754                   22554473.4654
 11  7 25 19 33  0.0000000  0  8G24G07G08G11G13G19G23G28
   1565448.63747   1265557.45343  23786723.1254                   23786727.4224
  -4757578.58248  -3675654.51646  20571840.3674                   20571838.2154
  -7426593.61348  -5751116.80146  21611451.1564                   21611450.3364
  -7174988.75447  -5558949.82045  22334224.6804                   22334223.8874
   3626100.81647   2837339.45345  22007531.1254                   22007530.5434
   1965929.68048   1556896.75845  22118801.8284                   22118798.4064
   5795825.12146   4520827.16843  24119538.0394                   24119541.9614
  -5396390.02347  -4173129.29345  22820141.6254                   22820140.6254
 11  7 25 19 33 30.0000000  0  8G24G07G08G11G13G19G23G28
   1348811.27047   1096749.26643  23745498.2814                   23745502.7934
  -4923674.97748  -3805080.27046  20540233.1024                   20540231.1454
  -7636590.02348  -5914750.33246  21571490.3594                   21571489.3054
  -7373864.06647  -5713917.52745  22296380.1094                   22296379.2274
   3579248.04747   2800830.71545  21998615.2194                   21998615.4184
   1899236.58648   1504928.10246  22106110.6724                   22106107.7814
   5768483.18046   4499521.42643  24114335.9454                   24114339.1994
  -5575694.00448  -4312846.62945  22786021.8674                   22786020.6764
 11  7 25 19 34  0.0000000  0  8G24G07G08G11G13G19G23G28
   1132142.18447    927916.40243  23704267.7194                   23704271.3014
  -5089555.55948  -3934337.87146  20508667.2114                   20508664.9144
  -7846562.50048  -6078365.21946  21531533.8444                   21531532.2344
  -7572482.60247  -5868685.16045  22258584.3134                   22258583.4924
   3532593.58647   2764476.49245  21989737.8984                   21989736.9184
   1832835.80148   1453187.20745  22093475.1884                   22093472.0824
   5741055.11746   4478148.53543  24109116.3914                   24109120.6844
  -5754967.64547  -4452540.34845  22751907.4384                   22751905.5704
 11  7 25 19 34 30.0000000  0  8G24G07G08G11G13G19G23G28
    915443.53547    759060.44943  23663031.4534                   23663035.1024
  -5255219.42248  -4063426.60246  20477142.3204                   20477140.2894
  -8056509.83648  -6241960.50446  21491582.4384                   21491580.9064
  -7770842.43747  -6023251.20745  22220837.6254                   22220836.1994
   3486133.65647   2728273.85945  21980896.3524                   21980896.1024
   1766723.83647   1401671.34845  22080894.4614                   22080891.4024
   5713537.41446   4456705.84843  24103880.2344                   24103884.0004
  -5934212.37947  -4592211.52345  22717798.2344                   22717796.5314
 11  7 25 19 35  0.0000000  0  8G24G07G08G11G13G19G23G28
    698714.86346    590181.15643  23621787.7344                   23621793.0354
  -5420668.12948  -4192347.68446  20445658.3444                   20445656.2034
  -8266433.32448  -6405537.21946  21451635.3204                   21451633.4924
  -7968944.22747  -6177616.17245  22183139.9454                   22183138.8874
   3439861.79347   2692217.75445  21972091.2734                   21972091.0944
   1700894.27348   1350375.57845  22068367.2344                   22068364.1294
   5685923.91046   4435188.50043  24098625.9064                   24098629.9104
  -6113432.73847  -4731863.69945  22683692.9694                   22683691.8164
 11  7 25 19 35 30.0000000  0  8G24G07G08G11G13G19G23G28
    481957.85546    421279.72743  23580541.0314                   23580545.0004
  -5585901.37948  -4321100.86346  20414215.8364                   20414213.5864
  -8476332.96948  -6569095.34846  21411692.6804                   21411690.9734
  -8166786.79347  -6331779.14845  22145491.6724                   22145490.7114
   3393773.49247   2656304.70745  21963320.8984                   21963320.6334
   1635342.88348   1299296.54745  22055893.3054                   22055890.4454
   5658210.02746   4413592.95343  24093352.5234                   24093356.3134
  -6292631.33647  -4871498.92645  22649593.2504                   22649591.8404
 11  7 25 19 36  0.0000000  0  8G24G07G08G11G13G19G23G28
    265176.81347    252359.59443  23539289.7584                   23539292.4264
  -5750916.02048  -4449683.69946  20382814.5554                   20382812.1564
  -8686205.12948  -6732632.05546  21371755.1564                   21371753.5944
  -8364366.23447  -6485737.08245  22107893.8364                   22107892.8484
   3347867.07047   2620533.37545  21954585.5704                   21954585.5824
   1570068.43847   1248433.32845  22043471.5474                   22043468.4224
   5630394.31346   4391918.02743  24088058.6954                   24088062.8324
  -6471807.35547  -5011116.55545  22615496.5704                   22615495.7344
 11  7 25 19 36 30.0000000  0  7G24G07G08G11G13G19G28
     48371.54346     83420.58643  23498031.8444                   23498035.7584
  -5915713.50848  -4578097.32846  20351454.2034                   20351452.3554
  -8896050.80948  -6896148.12946  21331822.8204                   21331821.7854
  -8561682.90647  -6639490.27745  22070344.8834                   22070344.7194
   3302136.30547   2584898.91445  21945883.4454                   21945883.5124
   1505064.95347   1197781.24645  22031102.1414                   22031099.1024
  -6650965.20747  -5150720.03145  22581404.1254                   22581402.7384
 11  7 25 19 37  0.0000000  0  7G24G07G08G11G13G19G28
   -168459.26646    -85538.31644  23456770.5554                   23456774.5164
  -6080297.03948  -4706344.23046  20320135.4454                   20320133.2384
  -9105872.10548  -7059645.21546  21291895.2734                   21291894.4774
  -8758738.71147  -6793040.20345  22032846.5084                   22032846.1914
   3256573.55947   2549395.37545  21937213.0634                   21937213.1414
   1440324.89147   1147334.41845  22018783.0634                   22018779.5784
  -6830110.16447  -5290313.45345  22547313.5704                   22547312.6414
 11  7 25 19 37 30.0000000  0  7G24G07G08G11G13G19G28
   -385303.55547   -254507.73043  23415506.6334                   23415509.5944
  -6244655.35948  -4834415.64546  20288858.9694                   20288856.7704
  -9315658.38748  -7223115.01646  21251974.2194                   21251973.3164
  -8955521.88747  -6946377.68745  21995400.1024                   21995399.5234
   3211184.73047   2514027.35945  21928576.3674                   21928575.6604
   1375854.43848   1097097.68845  22006514.1254                   22006511.3794
  -7009234.07447  -5429890.49244  22513227.6804                   22513226.0514
 11  7 25 19 38  0.0000000  0  7G24G07G08G11G13G19G28
   -602156.34046   -423483.75443  23374240.4774                   23374244.6334
  -6408784.44148  -4962308.43446  20257626.1024                   20257623.8594
  -9525405.14848  -7386554.01646  21212060.7734                   21212059.7194
  -9152027.61747  -7099498.98845  21958006.5084                   21958005.6454
   3165969.19547   2478794.37145  21919971.8984                   21919972.1334
   1311653.73447   1047071.12545  21994297.8834                   21994294.5044
  -7188335.46147  -5569449.98445  22479146.1724                   22479143.7854
 11  7 25 19 38 30.0000000  0  7G24G07G08G11G13G19G28
    756427.13346    635152.85943  23632769.9144                   23632774.0204
  -4997242.83648  -3862405.88746  20526233.7344                   20526231.5084
  -8159669.24248  -6322344.18446  21471951.5314                   21471950.4344
  -7772812.44147  -6024785.80945  22220462.2114                   22220461.1564
   4696359.66447   3671306.31645  22211195.2504                   22211195.7034
   2823156.21547   2224865.23845  22281927.0864                   22281923.6484
  -5791974.98847  -4481376.84845  22744864.0634                   22744862.6374
 11  7 25 19 39  0.0000000  0  7G24G07G08G11G13G19G28
    539595.19547    466193.05144  23591509.4304                   23591512.1884
  -5160879.72748  -3989915.14846  20495094.4844                   20495092.3714
  -8369302.27048  -6485694.57046  21432059.5084                   21432058.5164
  -7968726.91047  -6177446.36745  22183180.6884                   22183180.0204
   4651509.77347   3636358.25845  22202660.8054                   22202661.1914
   2759514.52347   2175274.30145  22269816.6334                   22269813.5204
  -5971005.65647  -4620881.22745  22710795.8834                   22710793.9264
 11  7 25 19 39 30.0000000  0  7G24G07G08G11G13G19G28
    322768.75847    297237.52043  23550247.6174                   23550250.8714
  -5324277.86348  -4117238.37146  20464001.0234                   20463998.9774
  -8578884.85248  -6649005.65246  21392177.4454                   21392176.0234
  -8164351.72747  -6329881.24245  22145954.5634                   22145953.9654
   4606828.44147   3601541.50845  22194158.4384                   22194158.5984
   2696138.20747   2125890.13345  22257756.3054                   22257753.0864
  -6150012.24247  -4760366.85245  22676732.0394                   22676730.6884
 11  7 25 19 40  0.0000000  0  7G24G07G08G11G13G19G28
    105957.18047    128293.57843  23508989.9694                   23508993.3014
  -5487428.83248  -4244368.98446  20432954.2034                   20432952.1914
  -8788408.32048  -6812270.66846  21352306.1804                   21352305.1294
  -8359677.46147  -6482083.06245  22108785.4774                   22108784.5864
   4562319.32047   3566858.96545  22185688.8054                   22185689.0634
   2633031.10947   2076715.75845  22245747.3284                   22245743.8594
  -6328988.91047  -4899829.14145  22642674.2894                   22642672.5784
 11  7 25 19 40 30.0000000  0  7G24G07G08G11G13G19G28
   -110834.99247    -40635.25444  23467735.5084                   23467738.4694
  -5650329.39848  -4371304.48446  20401955.3914                   20401953.4024
  -8997869.10548  -6975486.83646  21312447.1334                   21312446.0904
  -8554700.28947  -6634048.84845  22071673.6804                   22071672.8834
   4517980.69947   3532309.27745  22177251.4454                   22177251.9734
   2570191.88747   2027750.09445  22233789.2584                   22233786.6684
  -6507934.91047  -5039267.54745  22608621.7344                   22608620.3134
 11  7 25 19 41  0.0000000  0  7G24G07G08G11G13G19G28
   -327620.35547   -209558.80544  23426482.8754                   23426486.7544
  -5812993.68748  -4498055.87146  20371001.3444                   20370999.4344
  -9207280.91848  -7138664.84446  21272597.9384                   21272596.3634
  -8749433.22747  -6785788.74645  22034617.4144                   22034616.7894
   4473793.73047   3497877.75045  22168843.4774                   22168843.4964
   2507601.98047   1978978.69545  22221878.8674                   22221875.9224
  -6686866.91047  -5178695.04745  22574572.4224                   22574570.5434
 11  7 25 19 41 30.0000000  0  7G24G07G08G11G13G19G28
   -544386.44147   -378467.31243  23385232.4064                   23385236.4104
  -5975410.55548  -4624614.45746  20340094.1564                   20340092.1484
  -9416632.12548  -7301795.66046  21232759.3204                   21232758.0744
  -8943864.30947  -6937293.43045  21997618.2424                   21997617.0314
   4429764.87147   3463569.43845  22160464.9614                   22160464.9454
   2445267.97747   1930406.72745  22210017.1484                   22210014.4144
  -6865776.74247  -5318105.26645  22540526.5394                   22540524.7774
 11  7 25 19 42  0.0000000  0  7G24G07G08G11G13G19G28
   -761134.88747   -547362.10543  23343986.8594                   23343990.1804
  -6137583.27348  -4750982.80146  20309234.0084                   20309231.6524
  -9625925.41048  -7464881.31646  21192932.1024                   21192931.1254
  -9137995.91447  -7088564.74645  21960676.3364                   21960675.2544
   4385885.86347   3429377.88345  22152114.5394                   22152114.5354
   2383182.33247   1882028.27745  22198202.4614                   22198199.4414
  -7044669.95347  -5457502.53145  22506484.1644                   22506482.4454
 11  7 25 19 42 30.0000000  0  7G24G07G08G11G13G19G28
   -977866.90247   -716244.05544  23302745.3444                   23302747.5864
  -6299513.93748  -4877162.54346  20278419.8054                   20278417.4804
  -9835162.92248  -7627923.52046  21153115.4774                   21153114.1914
  -9331829.59847  -7239603.93745  21923790.9064                   21923789.3134
   4342149.69947   3395297.62945  22143792.7194                   22143792.7584
   2321338.06647   1833837.89845  22186434.2274                   22186431.2894
  -7223551.52048  -5596890.72345  22472444.6174                   22472442.4494
 11  7 25 19 43  0.0000000  0  7G24G07G08G11G13G19G28
  -1194580.38347   -885111.58643  23261505.4614                   23261508.0314
  -6461201.92648  -5003153.17646  20247651.4774                   20247649.4964
 -10044342.79748  -7790920.80546  21113309.7894                   21113308.1724
  -9525363.69547  -7390409.66845  21886962.4064                   21886961.0904
   4298552.23447   3361325.47345  22135496.3204                   22135496.5004
   2259731.37547   1785832.67645  22174710.8984                   22174707.4104
  -7402423.38347  -5736271.35245  22438405.9144                   22438404.3014
 11  7 25 19 43 30.0000000  0  7G24G07G08G11G13G19G28
  -1411273.39547  -1053963.16443  23220269.0634                   23220273.1804
  -6622646.64148  -5128954.24646  20216929.6644                   20216927.6214
 -10253464.59448  -7953872.84446  21073515.1174                   21073514.3914
  -9718596.89147  -7540980.94145  21850191.3134                   21850189.6524
   4255089.48047   3327458.25444  22127225.0944                   22127225.5204
   2198358.49647   1738009.64145  22163031.3674                   22163028.7274
  -7581287.34447  -5875645.82445  22404369.4384                   22404368.2234
 11  7 25 19 44  0.0000000  0  7G24G07G08G11G13G19G28
    -52516.45347      4808.60243  23478833.2974                   23478834.2664
  -5208421.78548  -4026960.85247  20486047.8914                   20486045.1414
  -8887099.67648  -6889172.89546  21333525.9534                   21333524.1374
  -8336100.92648  -6463711.29745  22113271.2894                   22113270.3484
   5787179.01247   4521294.13745  22418772.1254                   22418772.9024
   3712637.71547   2917967.44945  22451189.2974                   22451187.0164
  -6184719.34847  -4787410.96545  22670127.1804                   22670125.6054
 11  7 25 19 44 30.0000000  0  7G24G07G08G11G13G19G28
   -269165.05947   -164008.34443  23437605.1024                   23437609.3324
  -5369380.55948  -4152383.27046  20455418.0864                   20455415.8324
  -9096103.84048  -7052033.26246  21293753.5554                   21293752.0634
  -8528730.32447  -6613812.09845  22076615.1414                   22076614.0314
   5743970.75847   4487625.25044  22410549.9614                   22410550.7344
   3651718.02747   2870497.53545  22439597.2504                   22439594.2734
  -6363576.49647  -4926780.12145  22636091.8134                   22636090.5944
 11  7 25 19 45  0.0000000  0  7G24G07G08G11G13G19G28
   -485790.16846   -332807.07843  23396383.0314                   23396385.6254
  -5530097.38748  -4277617.16046  20424835.0394                   20424832.6454
  -9305049.49248  -7214848.04346  21253992.6884                   21253990.9884
  -8721057.70347  -6763677.51245  22040016.6334                   22040015.1684
   5700881.42247   4454049.00844  22402351.1644                   22402350.7274
   3591017.27747   2823198.21945  22428045.9774                   22428043.5394
  -6542434.48448  -5066149.94945  22602056.4924                   22602055.4884
 11  7 25 19 45 30.0000000  0  7G24G07G08G11G13G19G28
   -702394.05947   -501589.15243  23355164.5164                   23355167.1564
  -5690575.59448  -4402665.10946  20394296.7504                   20394294.4454
  -9513939.15248  -7377619.18446  21214242.0394                   21214240.9144
  -8913085.59447  -6913309.57445  22003475.4304                   22003473.7664
   5657902.99647   4420559.21144  22394172.1024                   22394172.7734
   3530527.28147   2776063.12145  22416535.5864                   22416532.3134
  -6721299.52047  -5205525.26645  22568019.4454                   22568018.3014
 11  7 25 19 46  0.0000000  0  8G17G24G07G08G11G13G19G28
  10719440.77356   8405760.43053  24346179.4224                   24346184.6094
   -918962.19146   -670343.42644  23313952.9144                   23313956.6094
  -5850802.33248  -4527517.10946  20363806.7584                   20363804.6374
  -9722759.81248  -7540336.55146  21174504.9844                   21174503.4884
  -9104800.46147  -7062697.75445  21966992.5784                   21966992.0204
   5615043.82047   4387162.32044  22386016.7194                   22386016.8914
   3470256.57847   2729098.92245  22405066.3054                   22405063.6454
  -6900161.36747  -5344898.10545  22533983.1954                   22533982.0824
 11  7 25 19 46 30.0000000  0  8G17G24G07G08G11G13G19G28
  10470833.27046   8212040.60943  24298869.8594                   24298875.6994
  -1135491.31247   -839067.27743  23272748.5474                   23272751.7624
  -6010775.73848  -4652171.71146  20333364.5554                   20333362.5634
  -9931508.85248  -7702998.11346  21134781.3984                   21134779.8444
  -9296199.65248  -7211839.92645  21930570.7344                   21930569.2234
   5572300.25847   4353855.55144  22377882.8914                   22377882.7234
   3410202.62947   2682303.61745  22393638.5084                   22393635.3594
  -7079020.98447  -5484269.18445  22499947.3134                   22499946.3134
 11  7 25 19 47  0.0000000  0  8G17G24G07G08G11G13G19G28
  10222223.15646   8018318.68043  24251561.6254                   24251566.2544
  -1351990.68446  -1007767.93043  23231548.9384                   23231553.2304
  -6170506.64148  -4776637.35246  20302968.7344                   20302966.5704
 -10140196.37948  -7865611.75446  21095069.5704                   21095067.8594
  -9487292.93747  -7360743.73045  21894206.6414                   21894205.1374
   5529657.48847   4320627.28544  22369768.4534                   22369768.8134
   3350350.04347   2635665.21545  22382248.8364                   22382245.8134
  -7257891.47348  -5623648.75045  22465909.2504                   22465907.8484
 11  7 25 19 47 30.0000000  0  8G17G24G07G08G11G13G19G28
   9973610.19146   7824594.55143  24204250.5164                   24204256.4384
  -1568459.42247  -1176444.77743  23190358.0554                   23190359.7894
  -6329995.56248  -4900914.43746  20272619.2424                   20272617.1724
 -10348822.23448  -8028177.33246  21055369.1954                   21055367.8754
  -9678080.26648  -7509409.13745  21857900.9614                   21857899.5274
   5487110.19947   4287473.40644  22361672.3204                   22361672.5744
   3290694.12547   2589180.05545  22370896.1644                   22370893.6254
  -7436775.63747  -5763038.97745  22431868.5944                   22431867.4414
 11  7 25 19 48  0.0000000  0  8G17G24G07G08G11G13G19G28
   9724998.90246   7630871.73043  24156942.0084                   24156946.9414
  -1784892.10947  -1345093.44944  23149171.8834                   23149174.9964
  -6489238.30148  -5024999.69946  20242316.3364                   20242314.1054
 -10557381.83248  -8190691.28146  21015681.4534                   21015680.2664
  -9868556.42647  -7657832.05945  21821654.5554                   21821652.9804
   5444657.51247   4254393.25444  22353593.4064                   22353594.1684
   3231234.36747   2542847.74245  22359582.0084                   22359579.2034
  -7615672.27347  -5902438.91445  22397825.6804                   22397824.4064
 11  7 25 19 48 30.0000000  0  8G17G24G07G08G11G13G19G28
   9476389.91046   7437150.71144  24109633.1484                   24109638.2584
  -2001286.90647  -1513712.66044  23107993.2194                   23107995.4384
  -6648234.53948  -5148892.87546  20212060.5784                   20212058.2854
 -10765874.24648  -8353152.87146  20976006.5784                   20976005.4264
 -10058720.94147  -7806012.14545  21785467.0864                   21785466.3794
   5402295.11347   4221383.45744  22345532.5864                   22345533.2274
   3171966.43047   2496664.90645  22348303.5474                   22348300.6134
  -7794583.34447  -6041850.10545  22363780.2034                   22363778.7854
 11  7 25 19 49  0.0000000  0  8G17G24G07G08G11G13G19G28
   9227792.29346   7243438.59444  24062327.0864                   24062331.2664
  -2217633.65646  -1682294.39843  23066823.6484                   23066825.4304
  -6806975.64148  -5272587.23846  20181852.9304                   20181850.9454
 -10974290.12148  -8515554.82446  20936346.2344                   20936345.2934
 -10248564.27048  -7953941.96945  21749341.2734                   21749340.1454
   5360026.66847   4188446.86344  22337488.7664                   22337490.0204
   3112894.30147   2450634.66045  22337062.9224                   22337059.2774
  -7973502.87147  -6181267.88345  22329732.7344                   22329731.1644
 11  7 25 19 49 30.0000000  0  8G17G24G07G08G11G13G19G28
  10554636.74246   8277343.66043  24314816.7504                   24314820.5474
   -858501.75447   -623230.43444  23325457.5164                   23325460.0634
  -5390034.43048  -4168477.21147  20451487.6254                   20451485.7544
  -9607200.02048  -7450289.78146  21196495.1024                   21196493.5864
  -8862657.25447  -6874014.36345  22013070.4064                   22013068.7154
   6893271.12947   5383182.67244  22629255.7504                   22629256.6024
   4629437.82447   3632356.86745  22625651.3754                   22625648.0314
  -6577005.16847  -5093087.82845  22595477.2974                   22595476.1294
 11  7 25 19 50  0.0000000  0  8G17G24G07G08G11G13G19G28
  10306085.45346   8083667.68843  24267517.8594                   24267522.6454
  -1074725.61747   -791716.39144  23284311.7894                   23284313.8164
  -5548243.00048  -4291756.61746  20421381.8364                   20421379.7274
  -9815438.53948  -7612553.53546  21156868.7194                   21156867.3324
  -9051833.65647  -7021424.50845  21977071.7274                   21977070.4574
   6851199.42647   5350399.38745  22621250.3054                   22621250.9534
   4570766.96947   3586639.30145  22614486.0864                   22614483.7274
  -6755926.24248  -5232506.82445  22561429.9384                   22561428.1294
 11  7 25 19 50 30.0000000  0  8G17G24G07G08G11G13G19G28
  10057564.91346   7890015.65043  24220226.1254                   24220230.3404
  -1290878.94947   -960147.43444  23243178.6884                   23243181.5554
  -5706178.30148  -4414823.09846  20391327.8754                   20391325.7304
 -10023580.26648  -7774741.87546  21117260.9064                   21117259.3834
  -9240668.20347  -7168568.25445  21941137.6564                   21941136.2934
   6809226.25447   5317692.87944  22613262.7974                   22613263.6374
   4512297.22747   3541078.42245  22603359.9534                   22603357.0204
  -6934845.07447  -5371924.05945  22527382.9384                   22527381.2384
 11  7 25 19 51  0.0000000  0  8G17G24G07G08G11G13G19G28
   9809088.46546   7696398.00444  24172942.6334                   24172947.5474
  -1506947.23846  -1128512.19544  23202061.8674                   23202063.7384
  -5863827.40648  -4537666.57046  20361327.9144                   20361326.0944
 -10231611.42248  -7936844.05146  21077673.5164                   21077671.6294
  -9429147.55147  -7315435.24645  21905271.0004                   21905270.0354
   6767359.18447   5285069.04744  22605295.7814                   22605296.6764
   4454036.77747   3495680.64845  22592273.5704                   22592270.7544
  -7113751.08647  -5511331.30145  22493338.2034                   22493335.7304
 11  7 25 19 51 30.0000000  0  8G17G24G07G08G11G13G19G28
   9560669.82446   7502825.33643  24125670.0164                   24125673.8244
  -1722915.64847  -1296799.12144  23160964.7734                   23160967.6024
  -6021176.86348  -4660276.55146  20331385.6414                   20331383.2464
 -10439518.02348  -8098849.16446  21038110.1954                   21038108.2464
  -9617257.52747  -7462014.39545  21869475.2114                   21869472.5984
   6725607.39147   5252535.04744  22597351.1484                   22597351.4144
   4395994.65647   3450452.97745  22581228.7344                   22581225.6604
  -7292633.12947  -5650719.89545  22459298.2194                   22459296.0004
 11  7 25 19 52  0.0000000  0  8G17G24G07G08G11G13G19G28
   9312312.64846   7309300.55143  24078408.2034                   24078412.4804
  -1938779.24247  -1465004.38744  23119887.4384                   23119889.5704
  -6178223.30548  -4782650.41046  20301500.5554                   20301498.6374
 -10647295.94948  -8260754.01246  20998571.2974                   20998570.2234
  -9804994.22347  -7608302.68745  21833749.7034                   21833748.1054
   6683969.32447   5220089.63344  22589427.6334                   22589428.6254
   4338169.84047   3405394.64545  22570224.9304                   22570221.7034
  -7471490.62147  -5790089.33645  22425262.5314                   22425260.8954
 11  7 25 19 52 30.0000000  0  8G17G24G07G08G11G13G19G28
   9064018.61346   7115824.94943  24031159.7894                   24031163.4924
  -2154535.39847  -1633125.93044  23078830.0234                   23078831.9304
  -6334965.69548  -4904787.34446  20271673.5084                   20271671.4654
 -10854943.42248  -8422557.20746  20959057.4454                   20959055.9804
  -9992355.75447  -7754298.63745  21798096.0164                   21798095.1914
   6642441.35247   5187730.05944  22581525.3444                   22581525.2234
   4280558.82047   3360502.90245  22559261.8054                   22559259.2814
  -7650324.60947  -5929440.46145  22391231.2344                   22391230.1174
 11  7 25 19 53  0.0000000  0  8G17G24G07G08G11G13G19G28
   8815798.86346   6922407.24244  23983924.6954                   23983928.7464
  -2370172.04747  -1801154.34044  23037794.9534                   23037797.3484
  -6491393.59448  -5026679.21947  20241906.0314                   20241904.3444
 -11062449.42648  -8584250.17246  20919570.1414                   20919569.1484
 -10179331.13748  -7899993.69945  21762515.9064                   21762514.1884
   6601029.38347   5155460.85544  22573644.8984                   22573645.7544
   4223167.71147   3315782.51645  22548340.9614                   22548338.0234
  -7829127.13747  -6068767.08245  22357206.3284                   22357204.8794
 11  7 25 19 53 30.0000000  0  8G17G24G07G08G11G13G19G28
   8567648.16047   6729043.28544  23936702.9614                   23936706.8874
  -2585692.94947  -1969092.57844  22996783.0474                   22996785.8204
  -6647511.88348  -5148329.84447  20212197.8284                   20212195.8014
 -11269817.93448  -8745836.00046  20880109.2504                   20880107.9384
 -10365924.31247  -8045390.93445  21727008.2504                   21727006.9384
   6559723.93448   5123274.64144  22565785.5004                   22565785.1564
   4165987.26247   3271226.30545  22537460.1094                   22537456.3984
  -8007905.86347  -6208075.14845  22323185.8984                   22323183.8204
 11  7 25 19 54  0.0000000  0  8G17G24G07G08G11G13G19G28
   8319574.01646   6535738.99644  23889495.8524                   23889499.8834
  -2801089.55147  -2136933.95744  22955794.2344                   22955796.1844
  -6803313.86348  -5269733.99246  20182549.3834                   20182547.5124
 -11477041.41048  -8907308.82846  20840675.7114                   20840674.5204
 -10552128.15248  -8190484.78145  21691574.4694                   21691573.1174
   6518526.93847   5091172.91444  22557945.8674                   22557945.9024
   4109019.99247   3226836.18445  22526619.4924                   22526615.4414
  -8186656.25047  -6347361.12945  22289170.7974                   22289169.3244
 11  7 25 19 54 30.0000000  0  8G17G24G07G08G11G13G19G28
   9647003.12946   7570099.61344  24142097.7894                   24142100.8634
  -1440935.23447  -1077073.31644  23214622.8984                   23214624.7504
  -5383376.48848  -4163289.29746  20452754.7894                   20452753.1094
 -10108694.28948  -7841064.30546  21101063.5314                   21101062.7734
  -9162517.87547  -7107671.54745  21956008.6954                   21956007.8554
   8052853.32847   6286751.73044  22849918.1334                   22849919.1374
   5627681.15247   4410208.50445  22815610.9454                   22815607.5864
  -6789956.87547  -5259023.92645  22554953.7974                   22554952.2384
 11  7 25 19 55  0.0000000  0  8G17G24G07G08G11G13G19G28
   9399086.15246   7376917.75444  24094920.0704                   24094923.4884
  -1656076.15247  -1244715.47344  23173682.0084                   23173686.0904
  -5538543.39848  -4284198.57846  20423227.4924                   20423225.9614
 -10315622.70748  -8002307.20346  21061686.4384                   21061685.3754
  -9347938.38348  -7252155.02745  21920724.8134                   21920722.7034
   8011862.28947   6254810.53544  22842117.9384                   22842118.5164
   5571129.23447   4366142.03945  22804849.5554                   22804846.1994
  -6968655.21947  -5398269.35545  22520948.4064                   22520947.2584
 11  7 25 19 55 30.0000000  0  8G17G24G07G08G11G13G19G28
   9151241.71946   7183792.48044  24047755.6804                   24047760.4344
  -1871093.93447  -1412261.69943  23132766.2584                   23132768.0984
  -5693399.46148  -4404865.63347  20393759.7194                   20393757.3524
 -10522409.02748  -8163439.38746  21022336.4384                   21022335.0164
  -9532973.29348  -7396338.02745  21885513.9064                   21885511.9184
   7970960.29347   6222938.69144  22834334.4534                   22834335.7194
   5514771.69547   4322227.03945  22794124.8284                   22794122.1134
  -7147338.01647  -5537502.68445  22486946.3204                   22486945.0474
 11  7 25 19 56  0.0000000  0  8G17G24G07G08G11G13G19G28
   8903473.37546   6990726.50844  24000607.1804                   24000611.3914
  -2085983.36347  -1579707.85544  23091873.8204                   23091876.0634
  -5847941.26648  -4525287.83246  20364351.0634                   20364349.0634
 -10729049.32048  -8324457.78546  20983014.1094                   20983012.5634
  -9717618.42648  -7540217.30945  21850376.9614                   21850375.3594
   7930146.19547   6191135.29344  22826568.0554                   22826569.4884
   5458607.59447   4278462.77745  22783437.4924                   22783434.2504
  -7326003.82047  -5676722.76245  22452947.4534                   22452945.3954
 11  7 25 19 56 30.0000000  0  8G17G24G07G08G11G13G19G28
   8655778.15646   6797717.46144  23953472.6024                   23953476.0474
  -2300746.43447  -1747055.59044  23051006.5474                   23051008.0204
  -6002172.50448  -4645468.02046  20335001.6094                   20334999.8554
 -10935546.07448  -8485364.32846  20943718.9454                   20943717.5864
  -9901876.68448  -7683795.13745  21815314.1094                   21815312.1994
   7889411.64847   6159393.92244  22818816.4694                   22818818.1094
   5402628.92247   4234843.00445  22772784.2274                   22772781.6484
  -7504658.87548  -5815934.45345  22418950.6024                   22418948.9144
 11  7 25 19 57  0.0000000  0  8G17G24G07G08G11G13G19G28
   8408170.37146   6604776.58244  23906353.7114                   23906357.4064
  -2515368.03547  -1914293.09044  23010164.8834                   23010166.8914
  -6156079.85248  -4765395.81646  20305714.1724                   20305711.9774
 -11141885.07448  -8646147.94146  20904453.9064                   20904452.5164
 -10085733.96948  -7827060.50845  21780326.9844                   21780325.1524
   7848765.63747   6127721.52344  22811082.1174                   22811083.7194
   5346844.91847   4191374.91045  22762169.7114                   22762166.4694
  -7683291.99647  -5955129.05545  22384957.6094                   22384956.2384
 11  7 25 19 57 30.0000000  0  9G17G24G07G08G26G11G13G19G28
   8160644.69946   6411899.70744  23859251.0554                   23859254.9454
  -2729851.23447  -2081422.71543  22969350.1884                   22969351.3524
  -6309667.66448  -4885074.63346  20276487.5314                   20276485.4144
 -11348069.77048  -8806811.34046  20865218.3444                   20865216.9264
  13893238.55556  10875288.39152  23923019.2344                   23923020.3594
 -10269194.67647  -7970016.86745  21745414.7194                   21745413.5044
   7808198.95747   6096110.95344  22803363.0944                   22803364.1644
   5291246.51647   4148051.44545  22751589.9144                   22751586.8834
  -7861910.18047  -6094312.00845  22350967.7504                   22350965.7584
 11  7 25 19 58  0.0000000  0  9G17G24G07G08G26G11G13G19G28
   7913199.18846   6219085.25444  23812164.1254                   23812167.1294
  -2944197.88747  -2248445.96144  22928561.2504                   22928562.5274
  -6462939.45348  -5004507.20347  20247320.7584                   20247318.6844
 -11554102.99648  -8967356.69146  20826011.3444                   20826010.4264
  13663745.98846  10696463.10943  23879350.1954                   23879351.5354
 -10452261.09848  -8112665.98845  21710578.3914                   21710577.2664
   7767703.70347   6064556.03544  22795656.8364                   22795658.0824
   5235826.05547   4104866.62145  22741044.5864                   22741040.8164
  -8040519.06247  -6233487.73445  22316979.9774                   22316977.7304
 11  7 25 19 58 30.0000000  0  9G17G24G07G08G26G11G13G19G28
   7665823.50447   6026325.22344  23765090.0314                   23765093.0234
  -3158417.16447  -2415369.93444  22887796.4694                   22887797.4384
  -6615905.94948  -5123701.88747  20218212.0784                   20218209.8874
 -11759994.43048  -9127791.57446  20786831.2424                   20786829.9734
  13434572.19947  10517886.15643  23835739.9924                   23835741.8404
 -10634943.77048  -8255016.07845  21675815.3674                   21675814.3324
   7727264.56647   6033044.83644  22787961.3054                   22787963.1954
   5180568.62547   4061808.84445  22730528.3364                   22730525.4184
  -8219131.82047  -6372666.45745  22282990.3284                   22282989.0044
 11  7 25 19 59  0.0000000  0  9G17G24G07G08G26G11G13G19G28
   7418514.63747   5833617.22744  23718027.9304                   23718030.5744
  -3372510.78547  -2582196.00844  22847055.4064                   22847057.4654
  -6768570.68448  -5242661.41846  20189161.4064                   20189159.1484
 -11965746.21948  -9288117.62546  20747677.7894                   20747676.7934
  13205715.26246  10339556.07443  23792189.8204                   23792191.6644
 -10817245.12547  -8397069.05545  21641124.4064                   21641123.3364
   7686873.84047   6001571.35944  22780275.6024                   22780277.1724
   5125466.10547   4018871.75845  22720043.0314                   22720039.9694
  -8397754.03147  -6511852.56245  22249000.0004                   22248998.6644
 11  7 25 19 59 30.0000000  0  9G17G24G07G08G26G11G13G19G28
   7171290.70747   5640975.47344  23670983.4384                   23670985.9534
  -3586459.59847  -2748909.24244  22806342.7974                   22806343.6214
  -6920915.77348  -5361371.88747  20160170.8444                   20160168.8204
 -12171340.00048  -9448320.55946  20708554.4224                   20708553.5084
  12977193.98047  10161487.55543  23748702.9224                   23748703.3754
 -10999147.12148  -8538810.82045  21606509.6954                   21606508.5354
   7646544.08247   5970145.40244  22772601.2194                   22772602.8444
   5070532.34847   3976066.16045  22709588.9534                   22709586.5514
  -8576370.32047  -6651034.05945  22215010.6254                   22215009.1804
 11  7 25 20  0  0.0000000  0  9G17G24G07G08G26G11G13G19G28
   8499578.89847   6676005.46144  23923747.8444                   23923750.5474
  -2224836.00047  -1687903.71944  23065450.6564                   23065452.9264
  -5497517.50448  -4252230.37946  20431034.5234                   20431032.5204
 -10801349.54348  -8380795.50846  20969255.4224                   20969254.0434
  14324435.72747  11211286.34043  24005074.3364                   24005074.1914
  -9605224.72748  -7452637.49645  21871764.1954                   21871762.0044
   9181691.01647   7166363.61744  23064730.1884                   23064731.9144
   6591183.57047   5160989.14545  22998959.3364                   22998956.1954
  -7179558.25447  -5562609.02745  22480814.7974                   22480813.8834
 11  7 25 20  0 30.0000000  0  9G17G24G07G08G26G11G13G19G28
   8252514.99247   6483488.38744  23876732.2274                   23876735.3834
  -2438501.20747  -1854395.98444  23024791.3754                   23024793.5944
  -5649234.73848  -4370451.60946  20402163.8364                   20402161.8244
 -11006635.44148  -8540758.54746  20930191.2274                   20930189.7624
  14096578.06647  11033734.95343  23961714.1644                   23961713.7234
  -9786338.07048  -7593764.73445  21837299.3754                   21837297.7584
   9141459.05947   7135013.84444  23057074.4384                   23057076.4534
   6536563.21147   5118427.76245  22988565.3134                   22988562.5124
  -7358180.53947  -5701795.18745  22446823.8984                   22446822.5784
 11  7 25 20  1  0.0000000  0  9G17G24G07G08G26G11G13G19G28
   8005549.25447   6291047.73844  23829736.3754                   23829739.3754
  -2652004.76247  -2020762.29744  22984163.5084                   22984163.9734
  -5800620.69148  -4488414.69147  20373355.7664                   20373353.7464
 -11211748.68748  -8700587.04346  20891159.0004                   20891157.9384
  13869071.36747  10856456.98843  23918421.1334                   23918420.0084
  -9967038.51647  -7734570.24245  21802913.0704                   21802911.9694
   9101287.09047   7103710.79744  23049431.0944                   23049431.8364
   6482110.38347   5075996.96145  22978203.9774                   22978200.5634
  -7536791.96947  -5840972.89145  22412835.1094                   22412834.1024
 11  7 25 20  1 30.0000000  0  9G17G24G07G08G26G11G13G19G28
   7758679.09847   6098681.61744  23782758.3204                   23782761.1294
  -2865348.06247  -2187003.75044  22943565.0164                   22943566.9614
  -5951677.91048  -4606121.62146  20344610.8134                   20344608.5314
 -11416690.95348  -8860282.29746  20852159.8054                   20852158.7154
  13641914.01647  10679451.26244  23875195.1564                   23875195.5784
 -10147328.62548  -7875056.02045  21768605.3204                   21768603.7854
   9061167.05547   7072448.24644  23041795.9694                   23041797.2274
   6427818.20347   5033691.31645  22967872.5314                   22967868.8484
  -7715397.35547  -5980145.88345  22378847.7584                   22378846.3594
 11  7 25 20  2  0.0000000  0  9G17G24G07G08G26G11G13G19G28
   7511908.30947   5906392.94944  23735799.0704                   23735802.0634
  -3078526.19547  -2353116.46944  22902997.9844                   22902999.5664
  -6102403.89848  -4723570.45346  20315928.6334                   20315926.5274
 -11621458.13348  -9019841.13346  20813194.1884                   20813192.8444
  13415110.03947  10502720.96143  23832035.1334                   23832037.1294
 -10327204.98848  -8015219.37145  21734376.3134                   21734373.9184
   9021097.75447   7041225.21144  23034170.9224                   23034173.1884
   6373685.54747   4991509.98845  22957571.0084                   22957568.6684
  -7893995.80547  -6119313.49245  22344861.9384                   22344860.3914
 11  7 25 20  2 30.0000000  0  9G17G24G07G08G26G11G13G19G28
   7265240.49247   5714184.50044  23688859.4774                   23688862.4224
  -3291534.58647  -2519096.93044  22862464.2974                   22862465.6844
  -6252795.51648  -4840758.73446  20287310.2734                   20287307.8674
 -11826045.92648  -9179260.19546  20774262.4064                   20774260.9264
  13188663.91447  10326269.45344  23788944.0164                   23788945.5554
 -10506663.59847  -8155057.21945  21700225.9924                   21700224.7384
   8981077.90647   7010040.71944  23026555.7194                   23026557.6134
   6319711.27047   4949452.06644  22947300.0474                   22947297.6094
  -8072586.83248  -6258475.30545  22310876.9694                   22310875.1024
 11  7 25 20  3  0.0000000  0  9G17G24G07G08G26G11G13G19G28
   7018681.18847   5522060.63744  23641940.7274                   23641943.9654
  -3504366.24647  -2684939.69944  22821963.9064                   22821965.4964
  -6402847.08648  -4957682.04347  20258755.9534                   20258754.2074
 -12030448.36748  -9338534.82446  20735366.0084                   20735364.4224
  12962581.87946  10150101.69543  23745921.9454                   23745923.3204
 -10685698.96947  -8294565.26645  21666156.5944                   21666155.3404
   8941108.36347   6978895.39144  23018950.3984                   23018951.7424
   6265896.34447   4907518.31345  22937059.8754                   22937057.0044
  -8251167.23847  -6397628.84045  22276894.0234                   22276892.0594
 11  7 25 20  3 30.0000000  0  9G17G24G07G08G26G11G13G19G28
   6772242.46947   5330030.69944  23595044.9454                   23595047.1334
  -3717008.30547  -2850634.72344  22781499.3524                   22781501.2234
  -6552547.58648  -5074331.80147  20230269.2194                   20230267.0044
 -12234653.24248  -9497655.50446  20696506.8284                   20696505.6524
  12736876.44546   9974227.41443  23702969.7504                   23702972.0314
 -10864299.46148  -8433734.45745  21632170.3984                   21632168.8524
   8901195.59847   6947794.32844  23011353.8834                   23011356.7974
   6212247.84047   4865714.21944  22926850.5234                   22926848.7544
  -8429727.80148  -6536766.91445  22242915.5704                   22242913.0824
 11  7 25 20  4  0.0000000  0  9G17G24G07G08G26G11G13G19G28
   6525924.39147   5138094.75444  23548171.9454                   23548174.8794
  -3929459.63747  -3016181.13744  22741070.9304                   22741072.3954
  -6701897.48048  -5190708.35547  20201848.4224                   20201846.7234
 -12438659.73448  -9656621.59846  20657685.7664                   20657684.2304
  12511548.36346   9798647.09443  23660092.6724                   23660093.7304
 -11042464.79348  -8572564.55145  21598266.7814                   21598264.8244
   8861335.02747   6916733.93444  23003769.8524                   23003772.4024
   6158761.29347   4824036.31345  22916672.9774                   22916669.4654
  -8608271.13347  -6675891.55145  22208939.2734                   22208938.2194
 11  7 25 20  4 30.0000000  0  9G17G24G07G08G26G11G13G19G28
   6279734.73047   4946258.90644  23501323.1254                   23501326.3714
  -4141711.23447  -3181571.88744  22700680.7734                   22700682.5274
  -6850889.76648  -5306806.24647  20173496.5234                   20173493.8284
 -12642459.52048  -9815426.60946  20618903.8284                   20618902.5274
  12286606.07446   9623367.47343  23617287.0704                   23617288.9414
 -11220187.60547  -8711049.83245  21564447.0784                   21564445.5594
   8821529.56347   6885716.45344  22996195.3284                   22996197.9064
   6105439.67247   4782486.95744  22906526.0004                   22906522.6954
  -8786792.08648  -6814998.75845  22174968.4534                   22174966.4574
 11  7 25 20  5  0.0000000  0  9G17G24G07G08G26G11G13G19G28
   6033674.24647   4754523.66844  23454499.1484                   23454502.1524
  -4353760.44947  -3346804.97744  22660329.4224                   22660330.8754
  -6999523.38748  -5422624.67246  20145212.6954                   20145210.5984
 -12846050.33248  -9974068.78946  20580161.9064                   20580160.1954
  12062051.57046   9448390.00443  23574557.1804                   23574556.7584
 -11397466.38747  -8849189.10545  21530711.8284                   21530710.6294
   8781775.55147   6854739.09444  22988630.6094                   22988633.0434
   6052279.80547   4741063.65644  22896410.3914                   22896407.0234
  -8965292.22748  -6954089.75845  22141000.9844                   22140999.7304
 11  7 25 20  5 30.0000000  0  9G17G24G07G08G26G11G13G19G28
   7363174.49247   5790498.13744  23707494.9144                   23707497.6684
  -2990176.59047  -2284272.00444  22919810.4534                   22919811.8754
  -5572371.54348  -4310558.30947  20416790.5704                   20416788.4734
 -11474002.42648  -8904940.53146  20841253.8594                   20841252.3874
  13413315.57046  10501323.00843  23831693.7584                   23831693.2664
  -9998872.66848  -7759375.80545  21796855.6804                   21796854.1484
  10317492.00447   8051401.02744  23280867.6884                   23280869.9844
   7574701.22347   5927366.01644  23186117.3914                   23186113.9734
  -7568345.41047  -5865559.73845  22406830.6724                   22406829.4924
 11  7 25 20  6  0.0000000  0  9G17G24G07G08G26G11G13G19G28
   7117382.33247   5598972.00044  23660721.7974                   23660724.6684
  -3201808.89147  -2449180.20744  22879537.8524                   22879540.0594
  -5720280.69548  -4425812.20346  20388644.0704                   20388642.0744
 -11677165.25448  -9063249.22746  20802592.7814                   20802591.6804
  13189547.27046  10326958.10543  23789112.7114                   23789112.4104
 -10175254.74247  -7896816.35945  21763290.5704                   21763289.7234
  10277834.81647   8020499.10244  23273321.4144                   23273323.2034
   7521859.47747   5886190.59044  23176061.2734                   23176058.6294
  -7746802.28947  -6004617.00445  22372871.4774                   22372870.0594
 11  7 25 20  6 30.0000000  0  9G17G24G07G08G26G11G13G19G28
   6871735.66047   5407559.22744  23613976.0634                   23613979.3484
  -3413220.23047  -2613916.23444  22839307.6024                   22839309.5354
  -5867817.63348  -4540776.05947  20360568.9844                   20360566.7424
 -11880102.28948  -9221381.96546  20763975.1334                   20763973.9264
  12966183.64546  10152908.57843  23746607.3444                   23746608.4964
 -10351177.57447  -8033899.05945  21729813.6174                   21729812.5084
  10238229.53147   7989637.59044  23265785.2504                   23265787.1414
   7469180.72747   5845142.17244  23166037.5394                   23166034.2814
  -7925231.07447  -6143652.39845  22338917.6564                   22338916.3324
 11  7 25 20  7  0.0000000  0  9G17G24G07G08G26G11G13G19G28
   6626236.18447   5216261.15644  23567259.9614                   23567261.3874
  -3624406.19147  -2778476.64544  22799120.8204                   22799122.3874
  -6014980.20748  -4655448.20346  20332564.6884                   20332562.6334
 -12082810.41848  -9379336.34046  20725401.5864                   20725400.0554
  12743228.43046   9979177.28543  23704179.8204                   23704180.4774
 -10526638.80947  -8170622.07445  21696424.5554                   21696423.0204
  10198674.26647   7958815.06644  23258257.6484                   23258260.1024
   7416663.46547   5804219.57044  23156043.5474                   23156040.9654
  -8103631.07847  -6282665.34845  22304969.5084                   22304967.4304
 11  7 25 20  7 30.0000000  0  9G17G24G07G08G26G11G13G19G28
   6380881.66847   5025076.00444  23520570.4924                   23520572.6094
  -3835368.55147  -2942862.83244  22758975.0394                   22758977.2854
  -6161771.53148  -4769831.07046  20304631.3594                   20304629.3364
 -12285291.77048  -9537114.01646  20686870.5394                   20686869.2814
  12520679.52746   9805762.55943  23661830.1884                   23661830.4804
 -10701641.36747  -8306987.66045  21663122.8134                   21663121.2504
  10159161.22347   7928025.47744  23250739.0394                   23250740.9224
   7364300.12547   5763416.93444  23146079.4144                   23146076.6804
  -8282007.67247  -6421660.06645  22271025.3444                   22271024.0664
 11  7 25 20  8  0.0000000  0  9G17G24G07G08G26G11G13G19G28
   6135682.45347   4834011.91044  23473910.1094                   23473912.5704
  -4046096.27047  -3107066.16044  22718875.4534                   22718876.9734
  -6308181.96948  -4883917.13347  20276770.3914                   20276768.2464
 -12487535.30148  -9694706.37946  20648385.1254                   20648383.3164
  12298547.28947   9632672.55143  23619560.1484                   23619560.9574
 -10876174.99647  -8442987.87145  21629910.2274                   21629908.5634
  10119695.80947   7897272.95344  23243229.3594                   23243231.7734
   7312096.44147   5722738.68044  23136145.6564                   23136142.4344
  -8460353.46947  -6560630.78945  22237087.1174                   22237085.2774
 11  7 25 20  8 30.0000000  0  9G17G24G07G08G26G11G13G19G28
   5890637.02047   4643067.59444  23427279.8284                   23427280.8014
  -4256589.41847  -3271086.70744  22678819.7194                   22678821.1524
  -6454214.06248  -4997708.37547  20248981.5704                   20248979.1884
 -12689541.51648  -9852113.80946  20609944.7114                   20609942.7624
  12076831.05547   9459906.66443  23577368.7584                   23577370.8914
 -11050241.64847  -8578624.20345  21596786.5634                   21596784.8324
  10080271.71147   7866552.62943  23235727.6804                   23235729.6414
   7260046.22347   5682180.02044  23126240.7274                   23126237.9454
  -8638672.62947  -6699580.75445  22203154.0784                   22203153.0904
 11  7 25 20  9  0.0000000  0  9G17G24G07G08G26G11G13G19G28
   5645740.50447   4452239.34844  23380676.8284                   23380678.5984
  -4466851.62547  -3434927.30944  22638807.9534                   22638808.9654
  -6599872.73848  -5111208.65246  20221263.7194                   20221261.2894
 -12891314.93448 -10009339.84846  20571548.3594                   20571546.8444
  11855526.74647   9287461.68843  23535257.2194                   23535256.7814
 -11223846.13747  -8713900.39845  21563750.2664                   21563749.0744
  10040879.10247   7835856.85943  23228231.3674                   23228233.3674
   7208139.73447   5641733.34044  23116363.0474                   23116359.8794
  -8816972.37947  -6838515.60245  22169224.8284                   22169223.3674
 11  7 25 20  9 30.0000000  0  9G17G24G07G08G26G11G13G19G28
   5400992.46147   4261526.81644  23334102.5864                   23334104.5474
  -4676882.19947  -3598587.41844  22598840.3284                   22598841.0744
  -6745159.40648  -5224419.05546  20193616.1884                   20193614.2464
 -13092855.17648 -10166384.19146  20533196.4384                   20533195.1374
  11634634.13347   9115337.57043  23493222.1334                   23493221.5434
 -11396989.19147  -8848817.03945  21530802.1954                   21530801.0434
  10001512.81347   7805181.57043  23220740.9384                   23220742.3754
   7156372.43047   5601395.14144  23106512.2584                   23106508.9264
  -8995255.73447  -6977437.68045  22135298.7504                   22135297.5434
 11  7 25 20 10  0.0000000  0  9G17G24G07G08G26G11G13G19G28
   5156389.95347   4070927.65644  23287556.0634                   23287557.7304
  -4886682.71547  -3762068.30144  22558916.4304                   22558917.5784
  -6890077.22748  -5337342.04346  20166039.1334                   20166036.9964
 -13294164.73048 -10323248.76246  20494888.5164                   20494887.0434
  11414151.18847   8943532.67243  23451265.2194                   23451263.9774
 -11569673.76247  -8983376.42645  21497941.4614                   21497940.1414
   9962165.28147   7774520.90643  23213253.6414                   23213255.5474
   7104736.66047   5561159.40244  23096686.5864                   23096683.5704
  -9173528.16047  -7116351.23845  22101374.3364                   22101373.4344
 11  7 25 20 10 30.0000000  0  9G17G24G07G08G26G11G13G19G28
   6487357.77047   5108045.62944  23540830.8444                   23540832.2464
  -3520828.79347  -2697766.41844  22818829.8754                   22818830.4774
  -5459205.63748  -4222377.18046  20438325.1414                   20438322.7934
 -11919819.46148  -9252330.36746  20756418.1564                   20756416.4064
  12769502.20747   9999650.37143  23709179.2974                   23709179.1884
 -10166478.03147  -7889977.12945  21764960.6724                   21764959.1994
  11498249.31347   8971469.25443  23505560.3134                   23505562.8204
   8628646.03947   6748621.19544  23386676.3754                   23386673.8244
  -7776369.86347  -6027656.43445  22367244.7344                   22367243.7584
 11  7 25 20 11  0.0000000  0  9G17G24G07G08G26G11G13G19G28
   6243044.68447   4917672.01644  23494339.2344                   23494340.7974
  -3730167.73447  -2860887.60944  22778993.8674                   22778995.1484
  -5603389.74648  -4334728.45346  20410887.7194                   20410885.7384
 -12120666.84848  -9408834.82046  20718197.7664                   20718196.3914
  12549838.23047   9828483.64543  23667378.9144                   23667379.0234
 -10338248.42247  -8023824.15645  21732274.3594                   21732272.3914
  11458922.76647   8940824.96544  23498077.2894                   23498080.2274
   8577258.03547   6708578.54744  23376898.1954                   23376895.0634
  -7954629.72747  -6166560.21145  22333323.0394                   22333321.4804
 11  7 25 20 11 30.0000000  0  9G17G24G07G08G26G11G13G19G28
   5998880.01647   4727414.03544  23447876.3284                   23447878.4104
  -3939270.68447  -3023824.88344  22739202.5554                   22739204.4694
  -5747204.44948  -4446791.87546  20383520.9534                   20383518.9264
 -12321278.62948  -9565155.68446  20680022.5474                   20680021.3444
  12330588.32847   9657639.58243  23625657.2194                   23625658.5204
 -10509558.52748  -8157312.53945  21699674.4534                   21699672.9384
  11419603.03547   8910185.97743  23490594.6804                   23490597.1054
   8525990.83647   6668630.02344  23367142.6644                   23367139.1994
  -8132883.51647  -6305459.24245  22299402.3984                   22299400.3674
 11  7 25 20 12  0.0000000  0  9G17G24G07G08G26G11G13G19G28
   5754864.34847   4537272.11744  23401441.1484                   23401442.2584
  -4148135.52047  -3186576.63744  22699457.3054                   22699458.8674
  -5890649.17248  -4558566.99646  20356224.0634                   20356222.0474
 -12521653.26248  -9721291.76246  20641892.6484                   20641891.5434
  12111753.66447   9487119.10544  23584015.3284                   23584015.6884
 -10680407.49248  -8290441.58645  21667162.8204                   21667161.8484
  11380286.48047   8879549.43443  23483112.9454                   23483115.9884
   8474840.53547   6628772.61344  23357408.9924                   23357405.9654
  -8311132.91847  -6444354.85545  22265482.4774                   22265480.5434
 11  7 25 20 12 30.0000000  0  9G17G24G07G08G26G11G13G19G28
   5511013.46947   4347258.64844  23355038.0234                   23355039.1954
  -4356745.41447  -3349129.71144  22659760.4144                   22659761.6524
  -6033708.92648  -4670042.14546  20329000.8364                   20328998.6024
 -12721774.36748  -9877230.28146  20603810.8204                   20603809.4574
  11893350.30146   9316934.71543  23542453.4384                   23542454.0234
 -10850779.89548  -8423199.27345  21634742.8834                   21634741.2154
  11340983.82047   8848923.71543  23475634.5164                   23475637.2034
   8423818.57047   6589015.18844  23347699.4694                   23347697.4694
  -8489364.38747  -6583236.49645  22231566.5784                   22231563.8594
 11  7 25 20 13  0.0000000  0  9G17G24G07G08G26G11G13G19G28
   5267335.81347   4157380.14544  23308668.0704                   23308668.8164
  -4565090.81647  -3511476.69944  22620113.2344                   22620114.2664
  -6176376.34448  -4781211.57846  20301852.2814                   20301850.2194
 -12921632.62148 -10032963.99246  20565778.7814                   20565777.8094
  11675387.30946   9147093.44143  23500976.4694                   23500976.7934
 -11020668.35248  -8555579.88345  21602414.0164                   21602412.3404
  11301698.38347   8818311.44144  23468158.8204                   23468162.2344
   8372929.12146   6549361.00044  23338015.2974                   23338012.7774
  -8667572.41048  -6722099.86345  22197654.8834                   22197652.2894
 11  7 25 20 13 30.0000000  0  9G17G24G07G08G26G11G13G19G28
   5023839.80147   3967643.17245  23262332.1024                   23262333.4304
  -4773162.18447  -3673610.15244  22580518.4384                   22580519.5234
  -6318643.44548  -4892069.07046  20274779.5084                   20274777.4574
 -13121219.27748 -10188486.05946  20527798.9534                   20527797.4574
  11457873.55146   8977602.28543  23459585.0784                   23459584.8714
 -11190064.76647  -8687577.05945  21570178.9694                   21570177.0004
  11262434.26647   8787715.75043  23460687.0164                   23460689.8244
   8322175.63346   6509812.77344  23328357.5704                   23328354.8754
  -8845751.09848  -6860940.37545  22163748.1564                   22163746.7344
 11  7 25 20 14  0.0000000  0  9G17G24G07G08G26G11G13G19G28
   4780534.33647   3778054.67244  23216032.2974                   23216033.8524
  -4980949.46947  -3835522.24244  22540978.0474                   22540979.1644
  -6460502.41448  -5002608.55146  20247784.7894                   20247782.5004
 -13320524.75048 -10343789.02046  20489872.4224                   20489870.7814
  11240818.37146   8808468.41843  23418279.7274                   23418280.2074
 -11358959.94148  -8819183.66845  21538038.8754                   21538037.7664
  11223195.59447   8757139.88343  23453220.7814                   23453223.5394
   8271562.72347   6470374.06344  23318726.7034                   23318723.8634
  -9023893.93048  -6999752.95345  22129848.7894                   22129847.8404
 11  7 25 20 14 30.0000000  0  9G17G24G07G08G26G11G13G19G28
   4537421.24247   3588616.09044  23169768.9614                   23169770.8364
  -5188449.43447  -3997210.45344  22501491.9534                   22501493.0984
  -6601951.60248  -5112828.71547  20220868.2194                   20220865.9884
 -13519546.14848 -10498870.63746  20451999.6024                   20451998.3364
  11024224.12146   8639693.77343  23377063.9694                   23377064.3054
 -11527352.44548  -8950398.58645  21505995.1884                   21505993.3204
  11183979.32047   8726581.48443  23445758.5704                   23445761.1524
   8221087.81347   6431042.90244  23309122.0474                   23309119.1604
  -9202001.37547  -7138537.94945  22095955.7114                   22095955.2234
 11  7 25 20 15  0.0000000  0  9G17G24G07G08G26G11G13G19G28
   4294516.32447   3399339.70345  23123546.2814                   23123547.5784
  -5395645.10947  -4158661.54744  22462063.9454                   22462065.4614
  -6742976.07848  -5222717.93746  20194031.8134                   20194029.7704
 -13718266.69548 -10653717.80546  20414184.8054                   20414182.9304
  10808107.03946   8471290.92643  23335938.6254                   23335938.9104
 -11695227.23447  -9081210.09045  21474049.2114                   21474047.7234
  11144796.61347   8696049.25043  23438302.7424                   23438305.2934
   8170762.33647   6391828.19944  23299544.7734                   23299542.0744
  -9380060.33248  -7277285.17245  22062072.8204                   22062071.0164
 11  7 25 20 15 30.0000000  0  9G17G24G07G08G26G11G13G19G28
   4051831.60947   3210234.89145  23077363.8364                   23077365.9384
  -5602523.55147  -4319865.45744  22422696.0634                   22422697.6844
  -6883564.40648  -5332267.29747  20167278.9844                   20167277.0164
 -13916674.03948 -10808320.93446  20376428.8134                   20376427.5664
  10592479.67647   8303269.64544  23294906.1094                   23294906.8204
 -11862572.81247  -9211609.23045  21442204.8054                   21442202.8834
  11105654.60547   8665548.71543  23430853.9454                   23430856.8954
   8120593.71147   6352735.72745  23289998.6334                   23289996.3484
  -9558060.93448  -7415986.90645  22028200.4454                   22028198.5434
 11  7 25 20 16  0.0000000  0  9G17G24G07G08G26G11G13G19G28
   5384785.35947   4248900.30945  23331017.7114                   23331018.7504
  -4233666.08647  -3253223.21944  22683181.1884                   22683181.9384
  -5448302.11748  -4213881.12146  20440399.9844                   20440398.2664
 -12539350.50048  -9735081.81646  20638524.9304                   20638523.7624
  11952759.96547   9363228.35244  23553759.5554                   23553759.0354
 -10453973.39147  -8113999.27045  21710252.4844                   21710250.6644
  12641960.42647   9862669.87143  23723203.7344                   23723206.0474
   9645989.70347   7541355.94545  23580271.9694                   23580268.8754
  -8160589.28148  -6327047.93045  22294130.1644                   22294127.9774
 11  7 25 20 16 30.0000000  0  9G17G24G07G08G26G11G13G19G28
   5142526.43047   4060127.31344  23284915.8524                   23284917.2894
  -4439920.76247  -3413941.06644  22643931.7664                   22643933.1214
  -5588034.37148  -4322763.41446  20413809.9384                   20413808.2424
 -12737143.77348  -9889206.43746  20600885.9384                   20600884.8244
  11738098.91847   9195960.03944  23512910.4224                   23512910.9184
 -10620275.37148  -8243585.20345  21678606.4774                   21678604.4304
  12602871.75847   9832210.89843  23715765.0394                   23715768.2734
   9596107.46947   7502486.59445  23570778.9614                   23570776.9144
  -8338494.71147  -6465675.49645  22260275.2584                   22260273.5164
 11  7 25 20 17  0.0000000  0  9G17G24G07G08G26G11G13G19G28
   4900492.98047   3871529.97344  23238858.1724                   23238860.0984
  -4645849.40247  -3574404.87944  22604744.7504                   22604746.3714
  -5727327.53948  -4431303.56646  20387303.4694                   20387301.4654
 -12934616.00448 -10043080.89546  20563308.0704                   20563306.7274
  11523934.03947   9029078.31644  23472155.7894                   23472156.0164
 -10786043.86748  -8372755.44945  21647061.1094                   21647059.5354
  12563815.22747   9801776.96543  23708333.5554                   23708336.1334
   9546374.42647   7463733.51645  23561314.9694                   23561313.3984
  -8516343.68447  -6604259.07845  22226432.3754                   22226430.1564
 11  7 25 20 17 30.0000000  0  9G17G24G07G08G26G11G13G19G28
   4658682.35247   3683106.27044  23192843.0474                   23192845.2894
  -4851453.69947  -3734615.93744  22565619.3834                   22565620.9264
  -5866185.06648  -4539504.26246  20360879.7734                   20360877.7234
 -13131769.55948 -10196707.03146  20525790.9144                   20525789.5634
  11310262.83247   8862581.31644  23431495.7664                   23431496.3794
 -10951282.14848  -8501512.53145  21615617.3204                   21615615.3404
  12524783.13347   9771362.08643  23700905.6414                   23700909.3324
   9496783.26646   7425090.97744  23551878.2424                   23551876.7154
  -8694141.74648  -6742802.99245  22192598.4304                   22192596.6254
 11  7 25 20 18  0.0000000  0  9G17G24G07G08G26G11G13G19G28
   4417096.17247   3494857.46144  23146870.2344                   23146872.7734
  -5056730.43047  -3894571.77744  22526556.6804                   22526557.9264
  -6004605.54748  -4647364.39546  20334539.1484                   20334537.2114
 -13328601.54748 -10350082.60946  20488334.9534                   20488334.0744
  11097087.82847   8696470.92644  23390930.0314                   23390930.4104
 -11115988.86747  -8629855.41045  21584274.7584                   21584273.0474
  12485773.00447   9740964.25843  23693482.4694                   23693486.3634
   9447331.59446   7386557.11344  23542467.8674                   23542466.0434
  -8871888.96147  -6881307.29345  22158774.0394                   22158772.7934
 11  7 25 20 18 30.0000000  0  9G17G24G07G08G26G11G13G19G28
   4175730.23447   3306780.28144  23100940.2114                   23100941.8444
  -5261682.75447  -4054274.80144  22487555.1484                   22487556.9344
  -6142594.06648  -4754887.94146  20308281.2034                   20308278.9384
 -13525115.55148 -10503210.39846  20450939.8204                   20450938.8244
  10884405.09047   8530744.09844  23350457.8284                   23350458.5824
 -11280168.45348  -8757787.53545  21553032.2974                   21553030.5274
  12446776.00847   9710576.71543  23686062.7584                   23686065.7234
   9398010.77346   7348125.22344  23533081.9144                   23533080.7974
  -9049592.01248  -7019777.18445  22124958.4454                   22124957.3484
 11  7 25 20 19  0.0000000  0  9G17G24G07G08G26G11G13G19G28
   3934584.41047   3118874.59044  23055051.5784                   23055053.4104
  -5466309.70347  -4213724.30944  22448616.4224                   22448617.9884
  -6280151.68448  -4862075.71546  20282104.5314                   20282102.7734
 -13721311.00048 -10656089.96546  20413604.8204                   20413604.0824
  10672214.84447   8365401.06643  23310079.5164                   23310078.7544
 -11443821.75448  -8885309.56645  21521890.1334                   21521888.3404
  12407787.35947   9680195.66043  23678642.8284                   23678646.7934
   9348816.42646   7309791.90244  23523721.0314                   23523719.1334
  -9227253.22348  -7158214.47345  22091150.7814                   22091149.2384
 11  7 25 20 19 30.0000000  0  9G17G24G07G08G26G11G13G19G28
   3693663.45747   2931144.10944  23009205.9614                   23009206.8714
  -5670605.60247  -4372915.85545  22409739.9064                   22409741.2384
  -6417274.42248  -4968924.62146  20256010.9614                   20256008.9064
 -13917182.34448 -10808716.98846  20376332.0864                   20376330.8404
  10460522.17647   8200445.75843  23269794.9304                   23269794.7774
 -11606944.91048  -9012418.49645  21490849.0944                   21490847.2304
  12368807.10247   9649821.12943  23671225.6564                   23671229.7154
   9299749.03146   7271557.49644  23514383.6334                   23514382.2274
  -9404870.40648  -7296617.44545  22057351.2664                   22057349.0824
 11  7 25 20 20  0.0000000  0  9G17G24G07G08G26G11G13G19G28
   3452974.91847   2743594.73444  22963404.4614                   22963405.7034
  -5874561.67647  -4531842.60245  22370929.5784                   22370929.3834
  -6553955.14148  -5075429.10546  20230001.3444                   20229999.2584
 -14112721.08248 -10961084.82846  20339122.0164                   20339121.1564
  10249334.89847   8035884.19543  23229608.1254                   23229606.6374
 -11769530.77048  -9139108.76645  21459909.2894                   21459908.0904
  12329838.02047   9619455.31343  23663810.4144                   23663814.5004
   9250811.73847   7233424.49644  23505072.0234                   23505070.3754
  -9582438.25848  -7434981.97745  22023560.7664                   22023558.8444
 11  7 25 20 20 30.0000000  0  9G17G24G07G08G26G11G13G19G28
   3212520.50047   2556227.80544  22917647.9844                   22917648.9024
  -6078174.86747  -4690502.14544  22332181.9924                   22332183.1454
  -6690193.20748  -5181588.66446  20204076.7194                   20204074.1644
 -14307924.66848 -11113191.52346  20301976.2114                   20301975.0634
  10038655.24647   7871718.24643  23189516.1804                   23189514.5594
 -11931577.97748  -9265379.31245  21429072.9924                   21429071.4494
  12290877.39847   9589096.08243  23656397.0084                   23656401.0044
   9202002.08646   7195390.93444  23495782.8054                   23495781.8714
  -9759957.45347  -7573308.60545  21989780.4844                   21989777.6094
 11  7 25 20 21  0.0000000  0  9G17G24G07G08G26G11G13G19G28
   4547729.45747   3596650.49645  23171729.3284                   23171729.6844
  -4706015.98847  -3621287.36744  22593295.7194                   22593296.8284
  -5250563.55148  -4059799.34046  20478028.6954                   20478026.7504
 -12927364.31248 -10037430.20346  20564688.1254                   20564687.2424
  11403912.02047   8935554.69543  23449316.2194                   23449315.1884
 -10517660.27748  -8163625.24245  21698132.4384                   21698130.6994
  13827343.62946  10786342.19543  23948776.5084                   23948780.4924
  10728739.00047   8385056.00044  23786311.9694                   23786309.5274
  -8362002.70748  -6483993.20745  22255802.2584                   22255799.8794
 11  7 25 20 21 30.0000000  0  9G17G24G07G08G26G11G13G19G28
   4307759.34847   3409660.92645  23126063.8054                   23126065.2544
  -4908924.26647  -3779397.63744  22554683.3364                   22554683.9734
  -5385902.18448  -4165258.03946  20452274.6174                   20452272.6764
 -13121879.06648 -10189000.12946  20527673.0634                   20527671.8874
  11194264.52347   8772192.99644  23409422.7274                   23409421.9804
 -10678615.65248  -8289044.99645  21667504.0234                   21667502.0944
  13788402.64546  10755998.24643  23941367.0164                   23941370.7664
  10680188.30547   8347224.24244  23777073.1644                   23777071.2894
  -8539414.93047  -6622236.46145  22222041.5634                   22222039.7304
 11  7 25 20 22  0.0000000  0  9G17G24G07G08G26G11G13G19G28
   4068049.44147   3222874.12945  23080449.2584                   23080450.4774
  -5111460.14547  -3937217.74244  22516141.1024                   22516142.9574
  -5520774.22748  -4270353.14846  20426609.6254                   20426607.1254
 -13316029.84448 -10340286.44946  20490727.4144                   20490726.1454
  10985151.75447   8609247.97344  23369628.6334                   23369629.3014
 -10839008.00048  -8414026.02745  21636981.8204                   21636980.1414
  13749482.82846  10725670.80143  23933960.8204                   23933965.0044
  10631778.46546   8309502.21944  23767861.2034                   23767858.9654
  -8716759.11347  -6760426.70745  22188294.3284                   22188292.6174
 11  7 25 20 22 30.0000000  0  9G17G24G07G08G26G11G13G19G28
   3828612.53547   3036300.04345  23034885.3984                   23034886.0744
  -5313609.87147  -4094736.95345  22477674.0234                   22477674.9884
  -5655168.07848  -4375075.65646  20401035.3364                   20401033.0434
 -13509803.55548 -10491278.94946  20453853.8444                   20453852.3714
  10776586.75847   8446729.81344  23329940.5864                   23329940.7344
 -10998825.39848  -8538559.05545  21606570.0314                   21606568.1954
  13710592.20746  10695366.11343  23926560.1484                   23926564.4494
  10583518.18047   8271896.76244  23758678.4924                   23758675.8244
  -8894024.72747  -6898555.73845  22154561.4924                   22154559.5634
 11  7 25 20 23  0.0000000  0  9G17G24G07G08G26G11G13G19G28
   3589455.09047   2849943.71545  22989375.5314                   22989377.0664
  -5515365.56247  -4251949.10944  22439280.7584                   22439282.2624
  -5789077.60948  -4479420.76646  20375552.9224                   20375551.0164
 -13703192.75048 -10641971.82846  20417053.0234                   20417051.6564
  10568576.10246   8284643.59843  23290356.5394                   23290357.7624
 -11158061.91448  -8662639.44145  21576268.3834                   21576266.5824
  13671732.95347  10665085.79343  23919165.1334                   23919169.7774
  10535409.86747   8234409.67644  23749523.3984                   23749520.9844
  -9071207.50047  -7036620.22345  22120845.1174                   22120843.7234
 11  7 25 20 23 30.0000000  0  9G17G24G07G08G26G11G13G19G28
   3350594.76247   2663818.91045  22943921.7424                   22943922.4574
  -5716708.66847  -4408839.77044  22400966.2274                   22400967.1134
  -5922486.07448  -4583375.43446  20350166.4454                   20350164.2114
 -13896178.84848 -10792350.60546  20380328.9844                   20380327.5164
  10361137.85946   8123003.45744  23250882.5784                   23250883.4924
 -11316700.52048  -8786253.93445  21546080.7584                   21546078.4384
  13632918.18847  10634840.22743  23911780.6254                   23911783.8134
  10487466.84047   8197051.41444  23740400.1724                   23740397.5314
  -9248291.64548  -7174607.84845  22087146.9844                   22087145.7854
 11  7 25 20 24  0.0000000  0  9G17G24G07G08G26G11G13G19G28
   3112040.37947   2477932.51645  22898526.3284                   22898527.4064
  -5917629.14147  -4565401.11744  22362732.4144                   22362733.7074
  -6055385.62148  -4686933.53146  20324876.0554                   20324873.9534
 -14088752.10548 -10942407.68446  20343683.3674                   20343682.4104
  10154281.05946   7961816.39544  23211518.5944                   23211520.2424
 -11474732.97748  -8909396.09445  21516007.9304                   21516006.1174
  13594152.02346  10604632.49643  23904403.6254                   23904407.3554
  10439693.92647   8159825.71944  23731309.1334                   23731306.5274
  -9425270.76247  -7312513.62945  22053469.0944                   22053467.1414
 11  7 25 20 24 30.0000000  0  9G17G24G07G08G26G11G13G19G28
   2873794.04747   2292286.13745  22853188.9924                   22853189.7894
  -6118123.96147  -4721630.78544  22324579.2194                   22324581.2194
  -6187774.94548  -4790094.07446  20299683.2664                   20299681.3014
 -14280909.81648 -11092140.96946  20307117.0864                   20307116.1214
   9948008.18047   7801084.29744  23172266.6334                   23172266.6374
 -11632157.77048  -9032064.75445  21486050.8754                   21486048.9694
  13555432.17646  10574460.86743  23897035.4924                   23897038.7384
  10392089.02347   8122730.93844  23722250.5554                   23722247.7934
  -9602144.92647  -7450337.63745  22019811.0314                   22019809.1484
 11  7 25 20 25  0.0000000  0  9G17G24G07G08G26G11G13G19G28
   2635857.73047   2106881.32045  22807911.1484                   22807912.5124
  -6318189.79747  -4877526.17244  22286508.1644                   22286509.2074
  -6319652.97348  -4892856.19146  20274588.2194                   20274586.0004
 -14472649.16448 -11241548.25046  20270630.4144                   20270628.9694
   9742321.32047   7640808.82444  23133126.8754                   23133125.5744
 -11788973.98448  -9154259.18745  21456209.7894                   21456207.6414
  13516756.32046  10544323.53543  23889675.5784                   23889679.2344
  10344649.82847   8085765.28544  23713222.5864                   23713219.9804
  -9778914.50048  -7588080.15245  21986173.1644                   21986170.6804
 11  7 25 20 25 30.0000000  0  9G17G24G07G08G26G11G13G19G28
   2398238.59447   1921723.67645  22762694.2974                   22762694.3794
  -6517818.20347  -5033080.71145  22248519.9694                   22248521.1254
  -6451013.10248  -4995214.75046  20249591.2664                   20249589.1684
 -14663961.48848 -11390622.78946  20234224.8134                   20234223.3914
   9537228.02747   7480995.87544  23094098.5394                   23094097.6994
 -11945174.75448  -9275974.07045  21426485.7114                   21426483.2894
  13478127.37946  10514222.71543  23882325.2424                   23882328.6374
  10297379.84847   8048931.50844  23704227.7114                   23704225.1254
  -9955574.13348  -7725736.98445  21952555.7034                   21952553.4264
 11  7 25 20 26  0.0000000  0  9G17G24G07G08G26G11G13G19G28
   2160938.28947   1736814.44945  22717536.9534                   22717538.0474
  -6717006.66847  -5188292.45744  22210616.1484                   22210617.1024
  -6581854.69148  -5097169.26646  20224692.7424                   20224690.9964
 -14854844.74648 -11539362.99246  20197900.8284                   20197899.4534
   9332730.11746   7321646.85544  23055183.3914                   23055183.9414
 -12100759.39148  -9397208.84445  21396879.0944                   21396877.1214
  13439542.49246  10484156.24243  23874983.8284                   23874987.6214
  10250276.32447   8012227.39544  23695263.5394                   23695261.7814
 -10132124.61348  -7863308.75445  21918959.4144                   21918957.6024
 11  7 25 20 26 30.0000000  0  9G17G24G07G08G26G11G13G19G28
   3499379.16847   2779755.50445  22972234.1334                   22972234.6884
  -5340333.03147  -4115559.69544  22472588.0704                   22472589.0904
  -5136759.75848  -3971121.29746  20499685.1644                   20499683.3364
 -13469877.44548 -10460167.70346  20461451.2504                   20461449.7974
  10704248.67646   8390362.62944  23316174.2504                   23316175.4734
 -10680309.05147  -8290364.41845  21667181.6644                   21667180.0204
  14976412.90246  11681717.28143  24167439.5864                   24167443.8204
  11778751.34046   9203246.81344  23986122.9924                   23986120.8714
  -8733147.45747  -6773196.66845  22185175.6174                   22185174.0634
 11  7 25 20 27  0.0000000  0  9G17G24G07G08G26G11G13G19G28
   3262699.07047   2595329.55145  22927195.4384                   22927195.4654
  -5538655.63347  -4270096.71144  22434848.4694                   22434848.8094
  -5266584.29748  -4072283.28946  20474980.5554                   20474978.1414
 -13659917.61748 -10608250.95746  20425288.0944                   20425286.3284
  10500924.28146   8231928.09044  23277482.8134                   23277484.7154
 -10834681.25848  -8410654.44145  21637805.3984                   21637803.9414
  14937885.37146  11651695.47343  24160107.5944                   24160113.4494
  11731951.28146   9166779.16443  23977216.6644                   23977214.9924
  -8909502.97348  -6910616.54745  22151616.3054                   22151614.5234
 11  7 25 20 27 30.0000000  0  9G17G24G07G08G26G11G13G19G28
   3026333.48847   2411148.68045  22882216.2734                   22882216.6764
  -5736539.24247  -4424291.68744  22397192.4144                   22397193.0004
  -5395896.94548  -4173046.43046  20450372.8594                   20450370.6454
 -13849530.30548 -10756001.10546  20389205.8984                   20389204.6724
  10298191.52347   8073954.54344  23238903.7664                   23238907.1454
 -10988443.87148  -8530469.45345  21608545.8594                   21608543.7854
  14899384.48846  11621694.43443  24152782.1954                   24152787.2854
  11685301.36746   9130428.46944  23968339.5394                   23968338.2774
  -9085759.74248  -7047959.46145  22118075.6804                   22118074.2504
 11  7 25 20 28  0.0000000  0  9G17G24G07G08G26G11G13G19G28
   2790272.02047   2227204.78145  22837295.4144                   22837295.5984
  -5933993.08647  -4578151.77344  22359618.2114                   22359619.2974
  -5524709.19948  -4273419.64146  20425860.8204                   20425858.6844
 -14038724.87548 -10903425.44146  20353203.1024                   20353202.1994
  10096040.22347   7916434.07444  23200436.5944                   23200438.5704
 -11141607.91848  -8649818.05545  21579399.2194                   21579397.5044
  14860895.85946  11591702.98443  24145458.6254                   24145463.2234
  11638787.11347   9094183.52744  23959489.0314                   23959486.7704
  -9261930.28548  -7185235.20345  22084551.5314                   22084549.9264
 11  7 25 20 28 30.0000000  0  9G17G24G07G08G26G11G13G19G28
   2554506.52347   2043491.52345  22792430.6644                   22792430.7234
  -6131024.30547  -4731682.55144  22322123.8834                   22322125.0434
  -5653030.05948  -4373409.94546  20401442.3674                   20401440.3954
 -14227508.96948 -11050529.94146  20317278.9064                   20317277.6094
   9894462.35547   7759360.40644  23162078.3054                   23162078.7544
 -11294182.50047  -8768707.33645  21550365.3134                   21550363.3874
  14822406.32846  11561710.75043  24138134.4694                   24138140.4264
  11592396.39847   9058034.84444  23950661.2814                   23950659.6994
  -9438024.54748  -7322451.49645  22051041.9844                   22051039.8794
 11  7 25 20 29  0.0000000  0  9G17G24G07G08G26G11G13G19G28
   2319039.38347   1860010.73045  22747622.0234                   22747622.5274
  -6327629.31247  -4884881.22345  22284711.2034                   22284712.6884
  -5780858.14548  -4473016.27046  20377117.0164                   20377115.4534
 -14415878.99248 -11197311.79346  20281433.3284                   20281431.6524
   9693460.50447   7602735.59044  23123828.8984                   23123829.2424
 -11446166.17648  -8887136.16845  21521443.7274                   21521442.2344
  14783914.32046  11531716.55543  24130809.4694                   24130815.3484
  11546127.68047   9021981.21944  23941856.7114                   23941854.6914
  -9614041.97348  -7459607.91845  22017546.6334                   22017544.7034
 11  7 25 20 29 30.0000000  0  9G17G24G07G08G26G11G13G19G28
   2083865.52047   1676758.47345  22702870.1804                   22702871.0354
  -6523812.25047  -5037750.98445  22247379.6094                   22247379.6334
  -5908199.66048  -4572243.46146  20352885.1254                   20352883.4224
 -14603839.39148 -11343774.44546  20245665.6174                   20245664.1994
   9493029.34447   7446555.46144  23085687.8524                   23085687.4534
 -11597564.96548  -9005109.24645  21492633.6414                   21492631.7234
  14745410.16046  11501713.02743  24123483.7814                   24123488.1024
  11499971.34847   8986015.18444  23933074.1174                   23933071.4264
  -9789990.59448  -7596710.72345  21984064.9454                   21984062.2384
 11  7 25 20 30  0.0000000  0  9G17G24G07G08G26G11G13G19G28
   1848984.30947   1493734.27345  22658173.5084                   22658174.6484
  -6719572.46547  -5190291.37144  22210127.6644                   22210128.2734
  -6035055.69148  -4671092.34846  20328745.2194                   20328743.3054
 -14791389.78948 -11489917.61746  20209975.7194                   20209974.7384
   9293168.62147   7290819.84444  23047655.5234                   23047654.8244
 -11748380.23847  -9122627.62945  21463934.4144                   21463932.7274
  14706889.25846  11471696.34443  24116153.0784                   24116158.2304
  11453923.74247   8950133.88344  23924311.1024                   23924308.1804
  -9965872.32048  -7733761.39545  21950595.3754                   21950593.6134
 11  7 25 20 30 30.0000000  0  9G17G24G07G08G26G11G13G19G28
   1614393.69947   1310936.49245  22613532.6484                   22613533.5314
  -6914910.95347  -5342503.11744  22172955.6174                   22172955.8404
  -6161429.22748  -4769565.26246  20304697.2114                   20304695.0594
 -14978530.83248 -11635741.80946  20174364.1094                   20174362.6914
   9093876.50047   7135527.28543  23009730.2424                   23009730.5434
 -11898614.42647  -9239693.22345  21435345.7894                   21435343.9774
  14668345.32846  11441661.75843  24108818.9064                   24108823.7274
  11407978.59047   8914332.42643  23915568.5314                   23915564.6724
 -10141691.34448  -7870763.21945  21917138.5234                   21917136.5124
 11  7 25 20 31  0.0000000  0  9G17G24G07G08G26G11G13G19G28
   1380080.60247   1128354.95345  22568943.6024                   22568944.8874
  -7109839.78947  -5494395.68445  22135862.1724                   22135862.7814
  -6287334.32048  -4867673.15646  20280738.5394                   20280736.2424
 -15165275.34848 -11781257.03146  20138827.8914                   20138826.6844
   8895139.95746   6980667.66044  22971912.2114                   22971912.5204
 -12048281.86747  -9356317.19945  21406864.9614                   21406863.0554
  14629760.94146  11411595.67243  24101476.4924                   24101481.2584
  11362118.74247   8878597.40243  23906841.3984                   23906838.7704
 -10317462.58248  -8007727.81645  21883690.2504                   21883688.5124
 11  7 25 20 31 30.0000000  0  9G17G24G07G08G26G11G13G19G28
   2721473.59047   2173596.34445  22824202.1484                   22824203.5204
  -5728930.64147  -4418362.52744  22398639.9224                   22398640.9414
  -4837347.07848  -3737812.99646  20556662.0554                   20556660.0904
 -13776195.46548 -10698857.13346  20403161.1484                   20403159.8134
  10272386.27347   8053846.61344  23233994.1094                   23233993.1604
 -10621958.02747  -8244896.02345  21678285.3444                   21678283.2464
  16166554.39846  12609096.67643  24393919.0164                   24393923.9104
  12891762.86747  10070527.82043  24197922.2344                   24197920.6484
  -8917761.41047  -6917051.55545  22150044.7424                   22150042.8554
 11  7 25 20 32  0.0000000  0  9G17G24G07G08G26G11G13G19G28
   2487709.08247   1991442.28145  22779718.1884                   22779719.6484
  -5923043.30947  -4569619.12144  22361701.6954                   22361702.4224
  -4962324.83648  -3835198.28546  20532879.1724                   20532877.3754
 -13962150.16848 -10843756.90646  20367774.5704                   20367773.7544
  10074754.47747   7899847.82844  23196386.0704                   23196385.6564
 -10770501.48847  -8360644.16045  21650018.3754                   21650016.7544
  16127870.38346  12578952.92643  24386558.2274                   24386562.8594
  12846055.99647  10034912.00043  24189224.8674                   24189223.1334
  -9093449.34048  -7053951.22745  22116612.2504                   22116609.8484
 11  7 25 20 32 30.0000000  0  9G17G24G07G08G26G11G13G19G28
   2254213.96947   1809498.13745  22735285.6334                   22735286.9614
  -6116751.41847  -4720560.44944  22324840.2734                   22324841.1054
  -5086845.27048  -3932227.22746  20509183.9384                   20509181.7814
 -14147713.60548 -10988351.79746  20332463.3444                   20332461.7664
   9877670.06347   7746275.52344  23158881.7504                   23158882.6564
 -10918489.37547  -8475959.39845  21621857.5474                   21621855.5594
  16089124.85246  12548761.30542  24379185.9774                   24379190.3324
  12800414.50046   9999347.18043  24180540.3524                   24180536.9384
  -9269103.78947  -7190824.80945  22083186.6094                   22083184.1954
 11  7 25 20 33  0.0000000  0  9G17G24G07G08G26G11G13G19G28
   2020989.66047   1627765.02745  22690904.5784                   22690905.5394
  -6310052.24647  -4871184.44145  22288056.3914                   22288057.3984
  -5210907.79348  -4028899.35546  20485575.8594                   20485573.5784
 -14332882.99648 -11132639.63746  20297226.9384                   20297225.3834
   9681134.50847   7593130.91844  23121482.8674                   23121483.4774
 -11065920.88747  -8590841.10945  21593802.3054                   21593800.2344
  16050315.40646  12518519.87542  24371800.9534                   24371805.7974
  12754836.17646   9963831.54343  24171866.1254                   24171863.8714
  -9444724.91048  -7327672.41045  22049766.8914                   22049765.0044
 11  7 25 20 33 30.0000000  0  9G17G24G07G08G26G11G13G19G28
   1788027.63347   1446236.23845  22646573.1024                   22646574.1994
  -6502953.06647  -5021496.72745  22251348.4144                   22251349.1804
  -5334521.76248  -4125221.94946  20462052.6724                   20462050.5354
 -14517666.09048 -11276626.46946  20262064.1724                   20262062.5634
   9485139.86747   7440407.81644  23084186.4844                   23084186.5004
 -11212805.39147  -8705296.55945  21565850.7504                   21565849.2704
  16011429.66046  12488218.94143  24364401.4224                   24364406.8754
  12709309.16046   9928355.83643  24163202.6564                   24163200.8404
  -9620322.87948  -7464501.96945  22016352.1024                   22016349.5744
 11  7 25 20 34  0.0000000  0  8G17G24G07G08G26G11G19G28
   1555341.11347   1264922.17245  22602294.3444                   22602295.3674
  -6695439.97347  -5171486.48045  22214719.5314                   22214720.0004
  -5457675.02048  -4221185.55146  20438617.3134                   20438615.3634
 -14702049.00048 -11420301.46946  20226977.1024                   20226975.6644
   9289698.88747   7288116.16844  23046994.2734                   23046994.8204
 -11359130.86348  -8819316.40645  21538006.0474                   21538003.8714
  12663842.43046   9892927.14843  24154551.3444                   24154549.0274
  -9795886.60948  -7601304.85545  21982942.9064                   21982941.3164
 11  7 25 20 34 30.0000000  0  8G17G24G07G08G26G11G19G28
   1322920.63347   1083815.39845  22558066.4694                   22558067.1214
  -6887521.37947  -5321160.26645  22178167.5394                   22178168.1054
  -5580378.33648  -4316798.55946  20415267.9454                   20415265.8874
 -14886040.57048 -11563671.52746  20191964.7424                   20191963.2194
   9094802.12547   7136248.57443  23009906.5234                   23009906.8634
 -11504908.07047  -8932909.02345  21510264.8054                   21510263.5554
  12618422.73446   9857535.07843  24145907.6724                   24145906.3754
  -9971427.41448  -7738089.87945  21949538.8204                   21949536.8244
 11  7 25 20 35  0.0000000  0  8G17G24G07G08G26G11G19G28
   1090771.08247    902919.75445  22513889.3914                   22513890.4924
  -7079191.30547  -5470513.43045  22141693.5784                   22141695.0044
  -5702627.64548  -4412057.78146  20392004.1804                   20392002.5354
 -15069634.32048 -11706731.59046  20157028.1024                   20157026.2464
   8900454.49247   6984808.86343  22972923.6334                   22972923.1524
 -11650132.96148  -9046071.27045  21482630.0554                   21482628.1564
  12573051.32046   9822180.64544  24137273.6334                   24137272.5004
 -10146942.13748  -7874854.58645  21916139.2424                   21916137.8244
 11  7 25 20 35 30.0000000  0  8G17G24G07G08G26G11G19G28
    858907.63747    722247.06345  22469767.6954                   22469768.1414
  -7270433.34047  -5619533.16045  22105301.7114                   22105302.1454
  -5824408.50048  -4506952.00046  20368830.4694                   20368828.2304
 -15252814.39848 -11849469.31646  20122169.8134                   20122168.4494
   8706671.21147   6833808.89144  22936048.5164                   22936048.1094
 -11794790.95748  -9158791.78945  21455102.1414                   21455100.7424
  12527739.64847   9786872.75044  24128652.2344                   24128650.4384
 -10322417.52748  -8011588.63345  21882747.3134                   21882745.3364
 11  7 25 20 36  0.0000000  0  8G17G24G07G08G26G11G19G28
    627346.68847    541810.03945  22425703.2194                   22425703.6644
  -7461230.05147  -5768205.88345  22068994.1954                   22068995.3284
  -5945705.70348  -4601469.32846  20345748.3594                   20345746.2304
 -15435563.31648 -11991871.07846  20087393.8754                   20087392.4184
   8513468.73447   6683261.49244  22899283.1334                   22899283.1564
 -11938867.16447  -9271058.95745  21427686.3834                   21427683.7814
  12482500.45747   9751621.36344  24120043.7734                   24120041.6914
 -10497838.79748  -8148280.50845  21849365.4844                   21849363.7544
 11  7 25 20 36 30.0000000  0  8G17G24G07G08G26G11G19G28
    396091.72747    361611.48845  22381695.8674                   22381696.4884
  -7651577.05947  -5916528.19545  22032772.9064                   22032773.3594
  -6066516.64148  -4695607.75046  20322758.8364                   20322756.9024
 -15617876.74648 -12133933.49646  20052700.6564                   20052699.1844
   8320850.35547   6533169.25844  22862628.9694                   22862629.2854
 -12082359.00847  -9382870.78145  21400380.2114                   21400378.2974
  12437333.74647   9716426.44544  24111448.5394                   24111446.8444
 -10673204.21548  -8284928.87545  21815994.5474                   21815992.6094
 11  7 25 20 37  0.0000000  0  8G17G24G07G08G26G11G19G28
   1740574.41447   1409260.44145  22637543.0554                   22637543.3794
  -6266043.08648  -4836891.31645  22296430.9534                   22296431.6294
  -4611414.80148  -3561762.19946  20599655.4304                   20599653.5704
 -14224324.08648 -11048048.30546  20317885.1724                   20317883.9024
   9704246.17247   7611140.02344  23125880.0164                   23125881.5204
 -10649838.79348  -8266621.26245  21672979.7194                   21672978.2114
  13967660.78947  10908889.00844  24402660.3364                   24402658.0234
  -9273085.97748  -7193927.62545  22082428.5164                   22082426.9264
 11  7 25 20 37 30.0000000  0  8G17G24G07G08G26G11G19G28
   1509944.39147   1229548.82045  22593655.2894                   22593655.3054
  -6455474.77748  -4984500.39145  22260383.3204                   22260384.0784
  -4731243.78148  -3655135.46546  20576852.7034                   20576851.0204
 -14405750.78548 -11189419.76246  20283360.8444                   20283359.3914
   9512808.56347   7461967.88744  23089450.7734                   23089451.5234
 -10792152.18447  -8377514.80945  21645898.0004                   21645896.6254
  13922640.35947  10873808.09844  24394093.2974                   24394091.3444
  -9448332.20347  -7330483.11745  22049080.3134                   22049078.1094
 11  7 25 20 38  0.0000000  0  8G17G24G07G08G26G11G19G28
   1279645.92647   1050095.57045  22549831.2734                   22549830.9924
  -6644428.04747  -5131736.66045  22224426.2974                   22224427.3714
  -4850564.08248  -3748112.35246  20554146.8754                   20554145.3244
 -14586713.51648 -11330429.68746  20248924.3204                   20248923.3794
   9321980.42646   7313270.65644  23053137.3364                   23053137.8134
 -10933858.82048  -8487935.57045  21618932.3054                   21618930.4774
  13877706.95347  10838794.94543  24385542.9924                   24385540.9534
  -9623502.34048  -7466979.31245  22015746.4064                   22015744.9224
 11  7 25 20 38 30.0000000  0  8G17G24G07G08G26G11G19G28
   1049684.55947    870904.99245  22506070.4534                   22506070.8484
  -6832896.16847  -5278594.91845  22188562.2734                   22188563.1724
  -4969371.26248  -3840689.40646  20531538.8674                   20531536.6094
 -14767206.05148 -11471073.22746  20214578.2114                   20214576.5784
   9131767.20347   7165052.55944  23016940.8834                   23016941.2894
 -11074954.34448  -8597880.12545  21592082.8984                   21592081.2894
  13832862.33247  10803851.04343  24377008.7274                   24377006.5474
  -9798592.45748  -7603413.16445  21982427.7424                   21982425.8794
 11  7 25 20 39  0.0000000  0  8G17G24G07G08G26G11G19G28
    820074.80147    691988.39545  22462377.7664                   22462377.0824
  -7020864.32847  -5425063.59445  22152792.9614                   22152793.1024
  -5087651.97348  -3932856.22746  20509030.7894                   20509028.5984
 -14947212.85548 -11611338.27746  20180323.9924                   20180322.6764
   8942182.88747   7017324.49244  22980864.2194                   22980864.6454
 -11215425.76248  -8707338.37545  21565352.2584                   21565349.9534
  13788116.98847  10768984.49243  24368494.3364                   24368491.6914
  -9973590.01248  -7739774.88345  21949126.9844                   21949125.1174
 11  7 25 20 39 30.0000000  0  8G17G24G07G08G26G11G19G28
    590828.60947    513355.08245  22418752.9304                   22418753.4734
  -7208319.19547  -5571132.29345  22117121.2814                   22117122.2974
  -5205395.10248  -4024604.14846  20486624.5314                   20486622.9024
 -15126720.79348 -11751214.59846  20146164.5944                   20146163.4414
   8753239.56347   6870095.93444  22944910.1024                   22944909.3674
 -11355261.98448  -8816301.67245  21538742.1884                   21538740.0904
  13743479.93046  10734202.35943  24359999.7114                   24359998.2504
 -10148484.47348  -7876056.27045  21915845.5314                   21915843.0984
 11  7 25 20 40  0.0000000  0  8G17G24G07G08G26G11G19G28
    361956.53147    335013.28145  22375199.7274                   22375200.0274
  -7395249.19947  -5716791.98045  22081549.5084                   22081549.9104
  -5322591.43048  -4115925.98446  20464323.2894                   20464321.3874
 -15305718.53148 -11890693.35946  20112102.8444                   20112101.3754
   8564947.51647   6723374.84844  22909079.7194                   22909078.7774
 -11494453.44948  -8924762.54745  21512254.9924                   21512252.7774
  13698958.02046  10699509.87943  24351528.2344                   24351525.6844
 -10323267.05547  -8012250.47745  21882585.8364                   21882583.4344
 11  7 25 20 40 30.0000000  0  8G17G24G07G08G26G11G19G28
    133456.68448    156961.54745  22331717.8054                   22331717.8404
  -7581654.86748  -5862043.11345  22046078.5784                   22046078.7234
  -5439243.49648  -4206823.73046  20442124.9384                   20442123.2464
 -15484206.70348 -12029775.04346  20078137.5864                   20078136.2774
   8377305.06347   6577159.96144  22873372.3984                   22873371.8364
 -11633003.20348  -9032723.40245  21485889.7424                   21485887.9064
  13654546.04346  10664903.13343  24343076.5634                   24343074.6174
 -10497940.71548  -8148359.80545  21849346.2424                   21849343.9344
 11  7 25 20 41  0.0000000  0  8G17G24G07G08G26G11G19G28
    -94667.50848    -20797.46545  22288307.2664                   22288307.5514
  -7767532.27347  -6006882.60545  22010706.5164                   22010707.1294
  -5555349.23848  -4297295.77046  20420030.7974                   20420028.7074
 -15662181.26648 -12168456.52346  20044269.9924                   20044268.6884
   8190315.19547   6431453.55144  22837789.2504                   22837789.0704
 -11770909.32048  -9140182.71145  21459646.8054                   21459644.8324
  13610243.72346  10630381.77043  24334645.7344                   24334644.2464
 -10672504.03148  -8284383.16445  21816127.5704                   21816125.7154
 11  7 25 20 41 30.0000000  0  8G17G24G07G08G26G11G19G28
   -322412.71147   -198261.18745  22244968.2894                   22244968.6214
  -7952876.96947  -6151307.02345  21975436.8204                   21975437.2424
  -5670906.51248  -4387340.43046  20398040.9304                   20398039.2034
 -15839637.87548 -12306734.40646  20010500.9844                   20010499.6254
   8003981.03147   6286258.09044  22802331.0314                   22802331.1644
 -11908169.34848  -9247138.58245  21433527.5234                   21433525.5394
  13566050.83646  10595945.69543  24326236.2504                   24326235.1804
 -10846955.32448  -8420319.21546  21782931.1804                   21782928.7734
 11  7 25 20 42  0.0000000  0  8G17G24G07G08G26G11G19G28
   1025635.54747    852166.12545  22501493.4844                   22501493.4224
  -6562274.91447  -5067720.95345  22240059.3834                   22240059.4494
  -4210505.71948  -3249365.81246  20675945.9924                   20675944.2774
 -14441162.84848 -11217013.60546  20276622.1414                   20276620.5744
   9393715.48047   7369168.08644  23066787.7974                   23066788.7424
 -10469373.08648  -8125998.64845  21707321.5084                   21707319.5434
  15097372.49646  11789183.24643  24617637.5554                   24617635.8244
  -9445883.17648  -7328574.66846  22049546.3834                   22049544.1844
 11  7 25 20 42 30.0000000  0  7G17G24G07G08G26G11G28
    798630.52747    675279.18845  22458296.2344                   22458296.0474
  -6746569.38747  -5211326.97345  22204989.1174                   22204989.7274
  -4324986.81648  -3338571.89846  20654161.0864                   20654159.2894
 -14617598.59448 -11354496.01246  20243047.2034                   20243046.0004
   9208674.35947   7224980.18044  23031575.3524                   23031576.5824
 -10605362.89548  -8231964.73845  21681443.5314                   21681441.7464
  -9620132.88748  -7464353.63746  22016387.8594                   22016385.4694
 11  7 25 20 43  0.0000000  0  7G17G24G07G08G26G11G28
    571991.25047    498677.24245  22415168.2344                   22415168.4144
  -6930341.35947  -5354525.88745  22170019.1094                   22170019.0944
  -4438935.71548  -3427363.27346  20632477.5474                   20632475.5234
 -14793526.35948 -11491582.57846  20209569.1644                   20209568.1294
   9024275.13747   7081292.49644  22996486.3524                   22996486.6134
 -10740723.30948  -8337440.37945  21655685.0004                   21655683.6094
  -9794288.10948  -7600058.98446  21983246.2034                   21983244.6994
 11  7 25 20 43 30.0000000  0  7G17G24G07G08G26G11G28
    345718.10547    322360.57845  22372109.3984                   22372109.3364
  -7113589.81247  -5497316.84445  22135147.4064                   22135147.8134
  -4552353.35248  -3515740.68746  20610894.7424                   20610892.8014
 -14968945.15648 -11628272.55546  20176188.4614                   20176186.8094
   8840517.71547   6938104.89144  22961518.0864                   22961518.6054
 -10875455.86348  -8442426.78545  21630046.4454                   21630044.4494
  -9968350.25848  -7735691.82445  21950124.2034                   21950121.6414
 11  7 25 20 44  0.0000000  0  7G17G24G07G08G26G11G28
    119818.53948    146335.03145  22329122.3914                   22329122.2934
  -7296306.15647  -5639693.17245  22100378.0634                   22100378.4964
  -4665233.15248  -3603699.01246  20589414.3134                   20589412.6804
 -15143846.81248 -11764559.56246  20142905.6024                   20142904.5084
   8657409.35947   6795423.06344  22926673.6724                   22926674.1804
 -11009554.18047  -8546918.98045  21604527.7344                   21604526.4184
 -10142313.37947  -7871247.48845  21917019.8204                   21917017.9844
 11  7 25 20 44 30.0000000  0  7G17G24G07G08G26G11G28
   -105705.96547    -29398.27045  22286206.2344                   22286206.2154
  -7478488.21147  -5781653.18045  22065709.4454                   22065710.0204
  -4777575.19948  -3691238.30546  20568036.6564                   20568034.7384
 -15318228.48448 -11900441.38746  20109722.2504                   20109720.4884
   8474951.21547   6653247.88344  22891952.7814                   22891953.9734
 -11143018.06248  -8650916.82045  21579130.7114                   21579129.0044
 -10316177.38747  -8006725.91445  21883934.1884                   21883932.3674
 11  7 25 20 45  0.0000000  0  7G17G24G07G08G26G11G28
   -330848.80547   -204834.17645  22243363.2274                   22243362.5944
  -7660128.48447  -5923191.00445  22031144.2734                   22031145.3244
  -4889373.83248  -3778354.16046  20546762.0394                   20546760.2624
 -15492082.78148 -12035912.27346  20076638.5634                   20076637.4264
   8293149.68047   6511584.33244  22857357.6254                   22857358.1644
 -11275842.19148  -8754416.15645  21553854.9454                   21553853.4734
 -10489937.06648  -8142123.03945  21850869.5004                   21850867.1524
 11  7 25 20 45 30.0000000  0  7G17G24G07G08G26G11G28
   -555618.42647   -379979.26645  22200591.2194                   22200590.9924
  -7841234.32847  -6064312.43445  21996681.2424                   21996681.8444
  -5000638.50048  -3865053.93746  20525589.1484                   20525587.2624
 -15665417.24248 -12170978.09846  20043654.2664                   20043652.6214
   8111995.94147   6370425.58644  22822884.8984                   22822884.9654
 -11408036.19147  -8857424.45745  21528699.1644                   21528697.8324
 -10663602.39847  -8277446.66845  21817821.5784                   21817820.0824
 11  7 25 20 46  0.0000000  0  7G17G24G07G08G26G11G28
   -780012.58247   -554831.77045  22157889.4844                   22157889.8244
  -8021802.33647  -6205014.73445  21962319.7504                   21962320.7194
  -5111368.02748  -3951336.71946  20504518.1804                   20504516.3834
 -15838228.60248 -12305636.29346  20010769.5314                   20010768.0554
   7931492.23847   6229773.35244  22788535.4844                   22788536.6334
 -11539599.16048  -8959941.06245  21503664.1414                   21503662.3484
 -10837172.21547  -8412695.85946  21784792.3444                   21784791.0904
 11  7 25 20 46 30.0000000  0  7G17G24G07G08G26G11G28
  -1004034.93748   -729394.56245  22115259.7584                   22115259.6684
  -8201835.45747  -6345300.23045  21928061.3284                   21928061.2154
  -5221567.46148  -4037206.44146  20483547.7504                   20483546.2194
 -16010519.56648 -12439889.00446  19977983.2814                   19977981.8094
   7751634.15647   6089624.17644  22754310.5234                   22754310.9344
 -11670536.15648  -9061969.88745  21478747.7034                   21478745.6374
 -11010651.94948  -8547874.85946  21751780.7894                   21751778.6644
 11  7 25 20 47  0.0000000  0  7G17G24G07G08G26G11G28
  -1227686.32447   -903668.28545  22072700.2424                   22072699.8404
  -8381334.06247  -6485169.23045  21893903.3984                   21893904.1174
  -5331238.87548  -4122664.71146  20462678.2974                   20462676.3674
 -16182289.86748 -12573736.00046  19945296.5234                   19945295.4104
   7572420.41447   5949977.09844  22720207.7034                   22720207.4694
 -11800849.47348  -9163512.73845  21453949.9064                   21453948.0124
 -11184043.73848  -8682985.33646  21718785.2114                   21718783.3914
 11  7 25 20 47 30.0000000  0  7G17G24G07G08G26G11G28
    124456.71948    149949.74645  22330004.5704                   22330004.1644
  -6984875.41447  -5397019.60945  22159640.8524                   22159641.0434
  -3864963.80148  -2980112.73846  20741700.9454                   20741698.9264
 -14778117.14548 -11479575.44546  20212501.6954                   20212500.5124
   8969272.75447   7038433.46944  22986019.2504                   22986019.6954
 -10355120.41448  -8036970.61745  21729062.8364                   21729061.4774
  -9781927.34448  -7590427.09446  21985598.6334                   21985596.8444
 11  7 25 20 48  0.0000000  0  7G17G24G07G08G26G11G28
    -98454.31647    -23747.08245  22287585.5554                   22287585.9694
  -7163303.75047  -5536054.63345  22125687.5234                   22125687.5124
  -3973584.27748  -3064752.10946  20721031.1334                   20721029.3714
 -14948845.50048 -11612610.53946  20180013.2894                   20180011.9414
   8791345.04747   6899788.49644  22952161.2504                   22952161.5434
 -10484192.28148  -8137546.10545  21704501.2664                   21704499.9184
  -9955149.02048  -7725405.00045  21952635.6884                   21952633.8324
 11  7 25 20 48 30.0000000  0  7G17G24G07G08G26G11G28
   -321000.54748   -197159.63745  22245236.2894                   22245236.2424
  -7341200.66847  -5674675.58645  22091834.5634                   22091834.9494
  -4081686.25048  -3148987.44146  20700459.7974                   20700458.1484
 -15119056.34848 -11745242.37546  20147623.0944                   20147621.9224
   8614054.62147   6761640.08644  22918423.6804                   22918424.1914
 -10612650.78148  -8237643.64545  21680056.3364                   21680054.9534
 -10128292.78548  -7860322.20345  21919687.2974                   21919685.2934
 11  7 25 20 49  0.0000000  0  7G17G24G07G08G26G11G28
   -543177.31648   -370284.31645  22202957.4774                   22202957.2774
  -7518560.61347  -5812878.09845  22058083.6954                   22058084.6564
  -4189266.09848  -3232815.93746  20679988.6414                   20679986.8134
 -15288744.35548 -11877466.80946  20115332.7504                   20115331.5904
   8437405.83247   6623991.68044  22884808.3284                   22884808.7154
 -10740492.64548  -8337260.68745  21655728.8984                   21655727.5274
 -10301355.20348  -7995176.02045  21886755.0634                   21886753.1764
 11  7 25 20 49 30.0000000  0  7G17G24G07G08G26G11G28
   -764997.34048   -543131.00445  22160746.8524                   22160746.3634
  -7695395.63347  -5950671.58645  22024433.5944                   22024433.7664
  -4296338.08648  -3316248.69146  20659613.3594                   20659610.7624
 -15457921.58648 -12009293.22746  20083139.3834                   20083138.0084
   8261385.20347   6486832.74244  22851312.8204                   22851313.7814
 -10867732.04348  -8436408.27345  21631516.1094                   21631514.3984
 -10474350.30548  -8129977.38746  21853835.2194                   21853833.3364
 11  7 25 20 50  0.0000000  0  7G17G24G07G08G26G11G28
   -986438.76648   -715682.68045  22118607.4454                   22118607.3484
  -7871683.29347  -6088038.56645  21990886.4064                   21990887.5474
  -4402881.41848  -3399269.51246  20639338.5864                   20639337.2154
 -15626565.11748 -12140703.78146  20051047.3204                   20051045.8754
   8086013.98447   6350179.84444  22817941.1644                   22817940.8874
 -10994348.46148  -8535070.41845  21607422.2114                   21607420.4734
 -10647257.59448  -8264710.35246  21820932.2664                   21820930.2114
 11  7 25 20 50 30.0000000  0  7G17G24G07G08G26G11G28
  -1207505.80948   -887942.65245  22076540.3594                   22076539.5594
  -8047426.81647  -6224981.53945  21957443.9454                   21957444.5744
  -4508901.63348  -3481882.71146  20619163.8594                   20619161.9534
 -15794678.45348 -12271701.19146  20019056.7114                   20019055.5084
   7911287.71947   6214029.51244  22784691.9774                   22784691.9414
 -11120347.96548  -8633251.85945  21583444.6094                   21583443.4384
 -10820082.55548  -8399379.12146  21788044.7734                   21788042.5394
 11  7 25 20 51  0.0000000  0  7G17G24G07G08G26G11G28
  -1428200.66848  -1059912.60245  22034542.9144                   22034542.3054
  -8222627.50047  -6361501.53145  21924104.2504                   21924104.8524
  -4614402.03948  -3564090.85546  20599087.8834                   20599086.1724
 -15962262.23048 -12402285.96146  19987166.6094                   19987164.9774
   7737203.79747   6078379.68444  22751564.8204                   22751564.5394
 -11245733.60548  -8730954.95745  21559584.6884                   21559582.9184
 -10992828.48048  -8533986.32846  21755172.3674                   21755170.3754
 11  7 25 20 51 30.0000000  0  7G17G24G07G08G26G11G28
  -1648519.00848  -1231589.14845  21992618.0554                   21992617.1524
  -8397280.25847  -6497594.55145  21890868.7504                   21890869.2734
  -4719379.50048  -3645891.51246  20579111.2344                   20579109.1764
 -16129311.44948 -12532454.18746  19955377.9064                   19955376.6764
   7563765.85947   5943233.23044  22718560.3204                   22718560.8134
 -11370502.97348  -8828177.85245  21535842.2504                   21535840.3554
 -11165492.24647  -8668529.49245  21722314.9694                   21722313.4224
 11  7 25 20 52  0.0000000  0  7G17G24G07G08G26G11G28
  -1868460.64848  -1402972.19146  21950764.4384                   21950764.0314
  -8571384.19947  -6633259.94545  21857737.9614                   21857738.4844
  -4823835.66048  -3727285.96546  20559233.6414                   20559232.4884
 -16295825.06648 -12662205.06646  19923691.3754                   19923690.0744
   7390973.49247   5808589.83244  22685678.6564                   22685679.7234
 -11494657.43448  -8924921.58245  21512216.2584                   21512214.7664
 -11338074.97347  -8803009.52345  21689473.8444                   21689471.7424
 11  7 25 20 52 30.0000000  0  7G17G24G07G08G26G11G28
   -512602.10948   -346458.96945  22208775.2424                   22208775.0984
  -7169516.44947  -5540895.44545  22124504.8204                   22124504.3714
  -3352351.50048  -2580674.96546  20839248.2194                   20839246.2154
 -14886380.16448 -11563936.32446  20191899.8134                   20191898.6484
   8794248.27047   6902050.68844  22952713.6724                   22952714.5664
 -10042778.00848  -7793586.95345  21788500.1804                   21788497.7974
  -9935155.59448  -7709825.57845  21956440.0634                   21956438.0474
 11  7 25 20 53  0.0000000  0  7G17G24G07G08G26G11G28
   -731798.41048   -517261.23045  22167064.0004                   22167063.3834
  -7342527.94147  -5675709.57045  22091581.8674                   22091581.8634
  -3455775.40248  -2661265.06246  20819567.5634                   20819565.7464
 -15051827.21548 -11692856.11746  20160416.4614                   20160415.1644
   8622738.00847   6768406.31644  22920076.0944                   22920077.3634
 -10165714.54748  -7889381.65645  21765105.6724                   21765104.2704
 -10107586.80948  -7844187.55545  21923628.0474                   21923625.4924
 11  7 25 20 53 30.0000000  0  7G17G24G07G08G26G11G28
   -950627.26648   -687777.15645  22125422.2194                   22125421.7974
  -7514997.68047  -5810101.54745  22058761.7424                   22058762.1454
  -3558690.75048  -2741458.88746  20799982.9454                   20799981.3834
 -15216745.30148 -11821363.72346  20129033.3134                   20129032.4924
   8451862.42247   6635256.49644  22887559.6804                   22887560.4844
 -10288049.89848  -7984707.92245  21741825.6724                   21741824.7074
 -10279949.67248  -7978496.27045  21890828.6484                   21890826.8324
 11  7 25 20 54  0.0000000  0  7G17G24G07G08G26G11G28
  -1169098.53948   -858014.44146  22083848.5634                   22083847.6294
  -7686934.52748  -5944078.29345  22026043.5634                   22026043.2344
  -3661108.35248  -2821264.84846  20780493.4694                   20780491.8134
 -15381143.28148 -11949466.05146  20097749.7814                   20097748.6414
   8281611.21947   6502593.21544  22855161.8054                   22855162.6214
 -10409795.66448  -8079574.75845  21718658.4064                   21718656.7854
 -10452254.85548  -8112760.03545  21858039.7274                   21858037.7734
 11  7 25 20 54 30.0000000  0  7G17G24G07G08G26G11G28
  -1387224.00448  -1027982.27346  22042340.4534                   22042340.0514
  -7858349.37547  -6077648.28545  21993423.8754                   21993424.3484
  -3763041.91448  -2900693.63346  20761096.4384                   20761094.6414
 -15545031.66048 -12077171.29346  20066563.0704                   20066561.2664
   8111971.74247   6370406.59444  22822881.0864                   22822881.2664
 -10530964.91048  -8173992.35545  21695601.2034                   21695599.4454
 -10624515.25847  -8246988.89845  21825259.3834                   21825257.8404
 11  7 25 20 55  0.0000000  0  7G17G24G07G08G26G11G28
  -1604999.50048  -1197677.41046  22000899.1174                   22000898.0984
  -8029237.19547  -6210807.60945  21960905.2584                   21960905.5434
  -3864487.61348  -2979742.27046  20741791.9384                   20741790.2074
 -15708405.38748 -12204475.50046  20035474.2274                   20035472.2974
   7942948.23447   6238699.94544  22790716.5234                   22790716.8914
 -10651554.91048  -8267958.58645  21672653.3834                   21672651.6684
 -10796727.56247  -8381180.28145  21792488.5944                   21792487.0204
 11  7 25 20 55 30.0000000  0  7G17G24G07G08G26G11G28
  -1822426.38347  -1367100.89846  21959524.2194                   21959523.7584
  -8199598.85947  -6343556.93745  21928486.2344                   21928486.7154
  -3965448.24648  -3058412.93746  20722580.0634                   20722578.0044
 -15871265.19948 -12331379.24646  20004482.6724                   20004481.0664
   7774538.28947   6107471.39544  22758669.4924                   22758668.6884
 -10771568.50448  -8361475.68745  21649814.9844                   21649814.0984
 -10968894.42648  -8515336.26646  21759726.2974                   21759724.9224
 11  7 25 20 56  0.0000000  0  7G17G24G07G08G26G11G28
  -2039498.19548  -1536247.69546  21918216.7344                   21918215.8794
  -8369427.19147  -6475890.69145  21896169.2344                   21896169.5704
  -4065919.16448  -3136702.00846  20703460.5864                   20703459.5704
 -16033603.86348 -12457876.91046  19973590.8134                   19973589.1804
   7606747.59047   5976725.35944  22726739.8754                   22726739.4184
 -10891001.35248  -8454540.25045  21627087.8754                   21627086.4414
 -11141010.41047  -8649452.59046  21726973.5634                   21726972.0314
 11  7 25 20 56 30.0000000  0  7G17G24G07G08G26G11G28
  -2256208.86348  -1705113.08646  21876977.5234                   21876977.2774
  -8538715.33648  -6607803.50045  21863954.7504                   21863954.6294
  -4165895.16448  -3214605.43046  20684436.3054                   20684434.4304
 -16195414.00448 -12583962.73446  19942799.1724                   19942797.7894
   7439581.69947   5846466.20344  22694929.4454                   22694929.8404
 -11009848.57448  -8547148.47345  21604472.6484                   21604470.2504
 -11313070.12148  -8783525.06646  21694232.0004                   21694229.4384
 11  7 25 20 57  0.0000000  0  7G17G24G07G08G26G11G28
  -2472556.79347  -1873695.83246  21835807.9064                   21835807.8794
  -8707460.95348  -6739293.57045  21831843.2424                   21831843.5554
  -4265376.11348  -3292123.08646  20665505.5864                   20665503.8444
 -16356693.28948 -12709634.91046  19912109.3444                   19912107.2894
   7273041.48847   5716694.60944  22663237.4534                   22663238.1174
 -11128110.16848  -8639300.37145  21581967.6484                   21581966.0664
 -11485073.01648  -8917553.28946  21661500.8134                   21661498.7384
 11  7 25 20 57 30.0000000  0  7G17G24G07G08G26G11G28
  -2688552.85248  -2042004.37146  21794705.1884                   21794704.8014
  -8875674.36748  -6870368.93445  21799833.8364                   21799833.7304
  -4364374.28548  -3369264.55946  20646666.6024                   20646665.5904
 -16517451.68748 -12834901.20346  19881517.6414                   19881515.8364
   7107115.51647   5587401.62944  22631662.6414                   22631662.8324
 -11245798.73048  -8731005.75845  21559572.6644                   21559570.9304
 -11657030.81648  -9051546.36746  21628778.3364                   21628776.3484
 11  7 25 20 58  0.0000000  0  7G17G24G07G08G26G11G28
  -1328754.29347   -982421.01646  22053466.1484                   22053465.5434
  -7467913.48048  -5773412.37945  22067721.5314                   22067721.9924
  -2887452.03148  -2218416.09046  20927715.8134                   20927714.4024
 -15102247.28148 -11732144.53546  20150822.2894                   20150820.5514
   8517244.16447   6686203.15644  22900001.8594                   22900002.0434
  -9787476.43048  -7594650.71945  21837082.4694                   21837079.9344
 -10253503.23448  -7957888.49645  21895860.3134                   21895858.9144
 11  7 25 20 58 30.0000000  0  7G17G24G07G08G26G11G28
  -1544010.28147  -1150152.89146  22012504.0784                   22012503.6484
  -7635023.84847  -5903628.22745  22035921.2584                   22035921.5124
  -2985452.05948  -2294779.78146  20909067.2344                   20909065.5784
 -15261924.88748 -11856568.65246  20120436.5944                   20120434.9384
   8352580.65247   6557893.92244  22868666.8674                   22868667.5984
  -9903987.45748  -7685438.53945  21814910.7504                   21814908.6254
 -10425337.27748  -8091785.11746  21863161.4844                   21863159.5044
 11  7 25 20 59  0.0000000  0  7G17G24G07G08G26G11G28
  -1758886.12947  -1317588.55546  21971614.9844                   21971614.3794
  -7801571.64848  -6033405.70745  22004228.2504                   22004228.6994
  -3082944.68448  -2370748.10246  20890515.0164                   20890513.0904
 -15421050.66848 -11980562.78146  20090155.7504                   20090154.5824
   8188557.47747   6430083.63744  22837454.5474                   22837455.7274
 -10019901.96148  -7775761.53145  21792853.2734                   21792851.3054
 -10597100.57848  -8225626.62946  21830476.0164                   21830474.3244
 11  7 25 20 59 30.0000000  0  7G17G24G07G08G26G11G28
  -1973376.93448  -1484724.17246  21930798.5944                   21930798.1094
  -7967551.34047  -6162740.52045  21972643.2194                   21972643.3714
  -3179926.66048  -2446318.51646  20872059.7734                   20872058.2774
 -15579618.85548 -12104122.41446  20059981.1954                   20059979.8634
   8025178.66847   6302775.48044  22806364.9454                   22806364.8634
 -10135217.12947  -7865617.50845  21770909.2584                   21770907.1884
 -10768789.33248  -8359410.06246  21797804.9064                   21797803.2704
 11  7 25 21  0  0.0000000  0  7G17G24G07G08G26G11G28
  -2187471.50448  -1651551.05946  21890057.6724                   21890056.5124
  -8132951.08248  -6291623.41045  21941169.0164                   21941169.4184
  -3276387.90248  -2521483.15246  20853703.9384                   20853702.3834
 -15737617.41448 -12227238.18746  20029915.1884                   20029913.7464
   7862454.71147   6175977.57044  22775398.9064                   22775399.7234
 -10249923.24647  -7954998.90245  21749081.3284                   21749079.6564
 -10940392.89848  -8493127.11346  21765150.4384                   21765147.9024
 11  7 25 21  0 30.0000000  0  7G17G24G07G08G26G11G28
  -2401168.17248  -1818067.88346  21849392.6024                   21849391.7114
  -8297768.63748  -6420052.65245  21909805.2974                   21909806.1644
  -3372328.41448  -2596242.02746  20835446.7664                   20835445.5634
 -15895043.76248 -12349908.07446  19999957.7894                   19999956.5354
   7700386.50047   6049690.63344  22744559.0314                   22744559.7704
 -10364020.36747  -8043905.76645  21727369.4304                   21727367.3364
 -11111910.64848  -8626777.30146  21732511.4224                   21732508.8554
 11  7 25 21  1  0.0000000  0  7G17G24G07G08G26G11G28
  -2614449.73447  -1984261.23046  21808806.5314                   21808805.6604
  -8461986.21948  -6548014.37945  21878555.7504                   21878555.9534
  -3467732.43748  -2670582.85946  20817292.4304                   20817291.0474
 -16051879.94948 -12472118.10246  19970112.8834                   19970111.5234
   7538990.27747   5923927.32044  22713846.6564                   22713846.0354
 -10477492.74647  -8132325.81245  21705776.2974                   21705774.3714
 -11283326.20748  -8760347.85545  21699892.0394                   21699889.7194
 11  7 25 21  1 30.0000000  0  7G17G24G07G08G26G11G28
  -2827310.87547  -2150126.99646  21768300.2974                   21768299.8754
  -8625597.59848  -6675503.73845  21847421.2974                   21847421.6374
  -3562595.99648  -2744502.55946  20799240.0394                   20799239.2584
 -16208119.71148 -12593863.38346  19940381.4144                   19940380.0004
   7378270.53947   5798691.14844  22683262.0864                   22683261.9454
 -10590337.02747  -8220256.43445  21684303.0314                   21684300.9774
 -11454634.83648  -8893835.08246  21667293.0864                   21667291.0004
 11  7 25 21  2  0.0000000  0  7G17G24G07G08G26G11G28
  -3039747.47747  -2315661.94946  21727874.6954                   21727874.1764
  -8788597.92648  -6802516.94545  21816403.2194                   21816403.5634
  -3656915.77048  -2817998.52346  20781292.2974                   20781290.1454
 -16363757.93448 -12715139.93046  19910764.3594                   19910762.8594
   7218231.12547   5673985.11744  22652807.7034                   22652807.1764
 -10702550.41848  -8307695.45345  21662949.2114                   21662947.4614
 -11625832.82048  -9027236.09446  21634715.1564                   21634713.1334
 11  7 25 21  2 30.0000000  0  7G17G24G07G08G26G11G28
  -3251755.08647  -2480862.61746  21687531.1414                   21687530.6604
  -8950982.32848  -6929050.23045  21785502.4224                   21785502.6914
  -3750688.64548  -2891068.32446  20763447.6094                   20763445.6414
 -16518789.07048 -12835943.43446  19881263.4454                   19881261.6724
   7058875.47747   5549811.87944  22622482.6724                   22622482.8134
 -10814130.12148  -8394640.70345  21641716.6024                   21641714.5634
 -11796916.43448  -9160547.99646  21602159.1024                   21602157.2114
 11  7 25 21  3  0.0000000  0  7G17G24G07G08G26G11G28
  -1887898.64148  -1418117.28946  21947064.0634                   21947063.8874
  -7537317.00448  -5827492.80545  22054514.1484                   22054514.2034
  -2268485.12948  -1736104.59846  21045501.2734                   21045499.8554
 -15097779.55148 -11728663.30946  20151672.2344                   20151670.8794
   8475635.64547   6653780.81344  22892083.7734                   22892083.2424
  -9349646.72348  -7253484.81645  21920398.7034                   21920396.4144
 -10392453.16848  -8066161.02746  21869419.5234                   21869417.2234
 11  7 25 21  3 30.0000000  0  7G17G24G07G08G26G11G28
  -2099019.38347  -1582626.89546  21906889.2504                   21906888.3714
  -7698439.45348  -5953042.74245  22023853.4774                   22023853.7344
  -2361140.21548  -1808303.39846  21027869.8524                   21027868.4454
 -15251566.25048 -11848497.12146  20122407.8594                   20122406.3204
   8317673.20747   6530693.18044  22862024.2114                   22862024.2544
  -9459936.57048  -7339424.99245  21899411.4304                   21899409.0904
 -10563281.91048  -8199274.34446  21836911.8674                   21836909.1684
 11  7 25 21  4  0.0000000  0  7G17G24G07G08G26G11G28
  -2309679.98847  -1746777.94946  21866802.0634                   21866801.2974
  -7858913.62547  -6078087.50845  21993315.9224                   21993316.2304
  -2453222.07048  -1880055.53946  21010347.2584                   21010345.7814
 -15404713.20348 -11967832.42246  20093264.7344                   20093263.1454
   8160422.44147   6408160.08244  22832100.7114                   22832099.9884
  -9569567.27048  -7424851.53545  21878548.8594                   21878547.1604
 -10733967.55948  -8332276.14846  21804431.3054                   21804428.7774
 11  7 25 21  4 30.0000000  0  7G17G24G07G08G26G11G28
  -2519868.03547  -1910560.78546  21826804.4614                   21826803.8164
  -8018726.24248  -6202616.79745  21962904.8754                   21962905.0204
  -2544719.44548  -1951352.22746  20992935.8364                   20992935.2034
 -15557206.48448 -12086658.35946  20064246.2034                   20064245.1684
   8003895.31347   6286190.88744  22802314.8834                   22802314.0164
  -9678527.94147  -7509755.98445  21857814.1564                   21857812.4454
 -10904498.15648  -8465157.12945  21771980.8204                   21771978.4534
 11  7 25 21  5  0.0000000  0  7G17G24G07G08G26G11G28
  -2729575.43747  -2073969.09046  21786898.2194                   21786897.8484
  -8177868.27048  -6326623.53145  21932621.1724                   21932621.6644
  -2635625.43048  -2022188.09846  20975637.1644                   20975635.8554
 -15709037.14848 -12204967.97746  20035354.0474                   20035352.4104
   7848099.28547   6164791.35944  22772667.4304                   22772667.1254
  -9786812.08248  -7594133.26645  21837208.5084                   21837206.4454
 -11074866.12948  -8597911.39546  21739560.6254                   21739558.7074
 11  7 25 21  5 30.0000000  0  7G17G24G07G08G26G11G28
  -2938790.30948  -2236993.59446  21747085.7274                   21747085.8284
  -8336327.10247  -6450097.93045  21902467.4224                   21902467.6644
  -2725929.44548  -2092554.90646  20958453.0234                   20958451.6094
 -15860192.52048 -12322751.39546  20006590.3984                   20006588.7344
   7693045.07447   6043969.89544  22743162.4144                   22743161.8524
  -9894409.65647  -7677975.53945  21816733.3754                   21816731.5234
 -11245060.05948  -8730530.03946  21707174.0704                   21707171.9344
 11  7 25 21  6  0.0000000  0  7G17G24G07G08G26G11G28
  -3147503.53547  -2399627.22346  21707369.2504                   21707368.5394
  -8494093.89848  -6573033.07445  21872445.3834                   21872445.6844
  -2815624.01248  -2162446.82046  20941384.9774                   20941383.2774
 -16010662.87148 -12440001.02746  19977956.6414                   19977955.4064
   7538740.55947   5923732.59044  22713798.9924                   22713798.8674
 -10001313.77347  -7761277.47745  21796390.7274                   21796388.0704
 -11415071.53548  -8863006.52746  21674821.5554                   21674819.4804
 11  7 25 21  6 30.0000000  0  7G17G24G07G08G26G11G28
  -3355700.13747  -2561858.28546  21667750.7344                   21667750.3714
  -8651153.58647  -6695417.21145  21842557.4844                   21842558.9024
  -2904696.16048  -2231853.73046  20924434.9064                   20924433.5864
 -16160433.03148 -12556705.05946  19949456.0394                   19949454.8404
   7385199.34047   5804090.04744  22684581.1884                   22684581.9144
 -10107511.92248  -7844029.29745  21776181.7734                   21776179.2544
 -11584886.78948  -8995330.11346  21642506.9534                   21642504.9384
 11  7 25 21  7  0.0000000  0  7G17G24G07G08G26G11G28
  -3563369.73047  -2723678.67646  21628232.2504                   21628231.5784
  -8807494.08647  -6817240.96545  21812807.1884                   21812807.6054
  -2993135.77748  -2300767.76246  20907605.3674                   20907604.0984
 -16309490.56248 -12672853.79346  19921091.5314                   19921090.2424
   7232432.08647   5685050.63344  22655510.0394                   22655511.7344
 -10212994.05148  -7926223.19145  21756108.9224                   21756106.9384
 -11754494.69548  -9127492.11346  21610231.5474                   21610229.3714
 11  7 25 21  7 30.0000000  0  7G17G24G07G08G26G11G28
  -3770513.70347  -2885089.51246  21588813.6724                   21588813.5634
  -8963116.85947  -6938505.43745  21783193.2664                   21783193.5554
  -3080946.09448  -2369191.43446  20890895.7734                   20890894.3834
 -16457836.83648 -12788448.30146  19892861.8674                   19892860.9224
   7080435.72347   5566611.90244  22626586.7114                   22626587.6334
 -10317763.78948  -8007861.96945  21736171.7504                   21736170.1024
 -11923897.66848  -9259494.42246  21577995.3364                   21577992.7544
 11  7 25 21  8  0.0000000  0  7G17G24G07G08G26G11G28
  -3977126.95347  -3046086.80146  21549496.7034                   21549496.4264
  -9118016.13747  -7059206.13345  21753716.6724                   21753716.8054
  -3168123.58648  -2437121.99246  20874306.6564                   20874304.9264
 -16605465.75448 -12903483.82446  19864769.1884                   19864767.9264
   6929214.26247   5448777.00444  22597810.0554                   22597810.6914
 -10421817.68448  -8088942.95345  21716371.5084                   21716369.7034
 -12093091.05548  -9391333.41046  21545799.0704                   21545796.2344
 11  7 25 21  8 30.0000000  0  7G17G24G07G08G26G11G28
  -2607792.50848  -1979072.87946  21810072.7814                   21810072.1644
  -7696776.27347  -5951746.47745  22024169.0864                   22024169.8444
  -1679257.04748  -1276966.30146  21157628.2034                   21157626.8444
 -15176961.60248 -11790363.71546  20136604.6414                   20136603.4844
   8354181.91847   6559141.41844  22868972.0554                   22868973.1454
  -8949744.72748  -6941873.12145  21996497.2114                   21996495.5164
 -10686659.35948  -8295412.60546  21813433.5234                   21813431.7274
 11  7 25 21  9  0.0000000  0  7G17G24G07G08G26G11G28
  -2813346.86748  -2139245.05146  21770956.8914                   21770956.0594
  -7850230.05947  -6071320.84045  21994968.6804                   21994968.5634
  -1765175.96948  -1343916.16046  21141278.5394                   21141277.1134
 -15323156.35948 -11904281.71546  20108784.4534                   20108783.5984
   8204504.79347   6442509.88344  22840489.6254                   22840490.0984
  -9052376.16848  -7021845.69145  21976966.9774                   21976965.1564
 -10855437.36348  -8426927.93746  21781316.1414                   21781314.1884
 11  7 25 21  9 30.0000000  0  7G17G24G07G08G26G11G28
  -3018382.16048  -2299012.76246  21731939.5634                   21731939.1804
  -8002970.94147  -6190339.68745  21965902.4224                   21965903.3444
  -1850478.10248  -1410385.40646  21125045.9454                   21125044.5354
 -15468643.24248 -12017648.12546  20081099.6724                   20081098.1684
   8055587.78547   6326470.64144  22812151.7194                   22812152.7974
  -9154309.18448  -7101274.03145  21957570.2584                   21957568.5004
 -11024018.76248  -8558290.06646  21749236.1174                   21749234.3594
 11  7 25 21 10  0.0000000  0  7G17G24G07G08G26G11G28
  -3222889.63747  -2458369.18446  21693023.3594                   21693023.0314
  -8154989.64548  -6308795.80945  21936974.8284                   21936974.4964
  -1935155.90248  -1476368.16846  21108932.4774                   21108931.1374
 -15613412.77348 -12130455.56246  20053550.5634                   20053549.4964
   7907438.65647   6211029.75844  22783959.2734                   22783960.1294
  -9255536.97748  -7180152.84845  21938307.3444                   21938305.9414
 -11192395.13348  -8689492.41446  21717195.6094                   21717193.3164
 11  7 25 21 10 30.0000000  0  7G17G24G07G08G26G11G28
  -3426887.79347  -2617328.73046  21654203.5394                   21654202.7194
  -8306304.17247  -6426703.22345  21908180.2344                   21908180.5554
  -2019229.66848  -1541880.24246  21092934.1414                   21092932.7854
 -15757482.65248 -12242717.82046  20026135.2114                   20026134.0474
   7760037.85947   6096171.95344  22755910.3444                   22755910.5204
  -9356080.06248  -7258498.12545  21919174.6724                   21919172.9654
 -11360585.11748  -8820549.52746  21685189.9774                   21685187.5664
 11  7 25 21 11  0.0000000  0  7G17G24G07G08G26G11G28
  -3630390.53948  -2775902.24246  21615478.0944                   21615477.7544
  -8456927.95348  -6544072.38745  21879517.4844                   21879518.0434
  -2102714.45348  -1606933.38346  21077047.2584                   21077045.9304
 -15900866.11348 -12354445.20346  19998850.3284                   19998848.9494
   7613370.64547   5981885.79344  22728000.7344                   22728000.8134
  -9455953.93448  -7336321.94145  21900169.0474                   21900167.0514
 -11528602.94948  -8951472.50046  21653216.9924                   21653214.7704
 11  7 25 21 11 30.0000000  0  7G17G24G07G08G26G11G28
  -3833399.89548  -2934091.30546  21576846.8284                   21576846.4144
  -8606862.44947  -6660904.43045  21850985.6954                   21850986.0274
  -2185613.80948  -1671530.34046  21061272.4924                   21061271.1414
 -16043564.60248 -12465638.84846  19971695.4224                   19971694.3554
   7467433.59447   5868168.57844  22700229.8444                   22700229.3794
  -9555162.29348  -7413627.19545  21881290.5784                   21881288.1604
 -11696451.23448  -9082263.35546  21621276.8524                   21621274.5204
 11  7 25 21 12  0.0000000  0  7G17G24G07G08G26G11G28
  -4035929.24248  -3091906.31646  21538306.1804                   21538305.8324
  -8756121.08648  -6777209.85245  21822583.4384                   21822583.2894
  -2267942.81648  -1735682.85946  21045605.5944                   21045604.1214
 -16185590.93048 -12576308.72746  19944668.8754                   19944667.5044
   7322212.08247   5755008.91844  22672595.4064                   22672594.5984
  -9653721.02348  -7490426.21145  21862535.3134                   21862532.9534
 -11864143.57048  -9212932.71146  21589365.8984                   21589363.7854
 11  7 25 21 12 30.0000000  0  7G17G24G07G08G26G11G28
  -4237976.53547  -3249345.71146  21499858.4774                   21499857.6414
  -8904701.38748  -6892986.68445  21794309.3754                   21794309.3714
  -2349700.71548  -1799390.37546  21030047.4924                   21030046.3094
 -16326942.16048 -12686452.54346  19917770.4144                   19917769.5664
   7177707.36747   5642407.80544  22645096.6254                   22645095.8094
  -9751629.66448  -7566718.66845  21843904.2424                   21843902.3954
 -12031677.86348  -9343478.89546  21557485.1334                   21557483.2424
 11  7 25 21 13  0.0000000  0  7G17G24G07G08G26G11G28
  -4439546.54347  -3406413.20746  21461500.9454                   21461500.5234
  -9052607.80948  -7008238.41445  21766163.3444                   21766163.6454
  -2430893.61748  -1862657.62546  21014597.3444                   21014596.1914
 -16467622.10248 -12796073.29346  19890999.9144                   19890998.6724
   7033913.16847   5530360.35544  22617733.2344                   22617732.5514
  -9848894.67648  -7642509.59445  21825394.6254                   21825393.2384
 -12199059.48848  -9473906.12546  21525633.0864                   21525630.9734
 11  7 25 21 13 30.0000000  0  7G17G24G07G08G26G11G28
  -4640642.43447  -3563111.25046  21423233.3834                   21423232.8634
  -9199843.04347  -7122967.18045  21738145.9924                   21738145.7424
  -2511526.23848  -1925488.29746  20999253.0704                   20999251.8794
 -16607633.13748 -12905172.82046  19864356.9144                   19864355.9344
   6890825.31647   5418863.29344  22590504.7034                   22590504.7974
  -9945521.36748  -7717803.14145  21807007.5234                   21807005.6804
 -12366291.82848  -9604217.03146  21493810.4774                   21493808.3954
 11  7 25 21 14  0.0000000  0  7G17G24G07G08G26G11G28
  -3265845.25048  -2491840.65646  21684848.8834                   21684847.5784
  -7770989.64548  -6009574.90245  22010047.3524                   22010047.2704
  -1016185.28147   -760287.60546  21283807.2034                   21283805.9774
 -15171558.32048 -11786153.49246  20137632.9224                   20137631.7584
   8323859.63347   6535513.38344  22863202.7194                   22863201.9694
  -8466096.23848  -6565004.35245  22088532.9304                   22088531.0664
 -10957956.92248  -8506813.18446  21761807.6334                   21761805.6764
 11  7 25 21 14 30.0000000  0  7G17G24G07G08G26G11G28
  -3466017.50047  -2647818.98846  21646757.2584                   21646756.9264
  -7916906.53947  -6123276.35945  21982280.3054                   21982280.5634
  -1095726.55548   -822267.89146  21268670.8834                   21268669.4924
 -15310255.25048 -11894229.03146  20111239.5554                   20111238.7074
   8182156.45347   6425095.30544  22836236.2274                   22836237.1374
  -8561476.54348  -6639326.68745  22070382.6954                   22070380.4384
 -11124915.55547  -8636910.80146  21730036.1334                   21730033.9804
 11  7 25 21 15  0.0000000  0  7G17G24G07G08G26G11G28
  -3665734.93047  -2803442.91046  21608752.1724                   21608751.6294
  -8062170.51247  -6236469.05145  21954637.3524                   21954637.3054
  -1174731.41448   -883830.17246  21253637.1954                   21253635.7974
 -15448300.78948 -12001796.99646  20084970.5084                   20084969.4224
   8041136.65647   6315209.72344  22809401.6414                   22809402.3674
  -8656243.46548  -6713171.06645  22052348.5084                   22052346.8324
 -11291744.18747  -8766907.13746  21698289.3984                   21698287.2584
 11  7 25 21 15 30.0000000  0  7G17G24G07G08G26G11G28
  -3865012.66847  -2958724.21146  21570830.6334                   21570830.1454
  -8206796.50048  -6349164.60545  21927116.2894                   21927116.0234
  -1253216.52748   -944987.46146  21238701.7974                   21238700.5314
 -15585709.57848 -12108868.79346  20058822.2814                   20058821.3204
   7900783.85247   6205843.90244  22782693.0394                   22782693.8984
  -8750414.28947  -6786550.94945  22034428.5314                   22034427.0864
 -11458458.47348  -8896814.37146  21666564.8914                   21666562.9264
 11  7 25 21 16  0.0000000  0  7G17G24G07G08G26G11G28
  -4063857.40247  -3113668.11346  21532991.9924                   21532991.1524
  -8350791.00048  -6461368.09845  21899714.8364                   21899715.0594
  -1331190.00047  -1005746.07446  21223863.9614                   21223862.3324
 -15722487.85948 -12215449.29346  20032794.4774                   20032793.4574
   7761090.19147   6096991.68044  22756110.6724                   22756111.1724
  -8843997.55947  -6859472.98845  22016620.1804                   22016618.9924
 -11625065.24247  -9026637.82046  21634861.2424                   21634858.8244
 11  7 25 21 16 30.0000000  0  7G17G24G07G08G26G11G28
  -4262277.78147  -3268281.34046  21495234.0474                   21495232.9494
  -8494162.38748  -6573086.04345  21872432.2814                   21872432.4454
  -1408662.01648  -1066113.93446  21209121.5394                   21209120.1334
 -15858643.35948 -12321544.50446  20006884.9384                   20006883.9614
   7622045.87547   5988645.43844  22729651.7814                   22729651.8014
  -8937003.61747  -6931945.24645  21998921.5394                   21998920.6374
 -11791573.16048  -9156384.24246  21603175.7894                   21603173.3284
 11  7 25 21 17  0.0000000  0  7G17G24G07G08G26G11G28
  -4460282.70748  -3422570.85246  21457554.7664                   21457553.9734
  -8636919.47748  -6684325.31245  21845266.4774                   21845266.5314
  -1485643.21948  -1126099.34046  21194472.6564                   21194471.5664
 -15994184.63748 -12427161.10546  19981092.1954                   19981090.9844
   7483640.41447   5880797.00044  22703313.6724                   22703314.5634
  -9029443.72347  -7003976.51645  21981331.3524                   21981329.6994
 -11957991.28948  -9286060.70346  21571507.4454                   21571504.9964
 11  7 25 21 17 30.0000000  0  7G17G24G07G08G26G11G28
  -4657874.84447  -3576538.69146  21419953.7344                   21419953.5394
  -8779063.90248  -6795087.20345  21818217.2974                   21818217.3244
  -1562137.10548  -1185705.03546  21179916.6884                   21179915.0904
 -16129113.12148 -12532300.19546  19955416.2584                   19955415.0744
   7345870.46547   5773443.77744  22677097.3364                   22677097.7304
  -9121321.67248  -7075569.74245  21963847.5234                   21963846.0904
 -12124321.54748  -9415668.69146  21539855.4454                   21539853.4884
 11  7 25 21 18  0.0000000  0  7G17G24G07G08G26G11G28
  -4855061.12547  -3730190.28946  21382430.8054                   21382429.9264
  -8920603.02747  -6905377.41445  21791283.2194                   21791283.3324
  -1638152.60548  -1244937.94546  21165450.9924                   21165450.1254
 -16263435.98848 -12636967.38746  19929855.7974                   19929854.2344
   7208727.58647   5666579.16444  22650999.7424                   22651000.4304
  -9212646.96147  -7146732.32845  21946468.8914                   21946467.5514
 -12290571.60548  -9545214.18746  21508219.5944                   21508217.3834
 11  7 25 21 18 30.0000000  0  7G17G24G07G08G26G11G28
  -5051837.77748  -3883522.68746  21344984.9224                   21344984.5744
  -9061532.63348  -7015192.68445  21764465.3364                   21764465.0664
  -1713687.13347  -1303796.07046  21151077.5784                   21151076.4804
 -16397148.46148 -12741158.94146  19904411.0784                   19904409.5394
   7072213.98447   5560204.92644  22625022.2504                   22625022.6254
  -9303417.64147  -7217462.76645  21929195.7194                   21929194.6524
 -12456737.57848  -9674694.16446  21476599.1724                   21476597.0204
 11  7 25 21 19  0.0000000  0  7G17G24G07G08G26G11G28
  -5248209.88748  -4036539.86746  21307616.8284                   21307615.9534
  -9201857.87947  -7124537.01645  21737761.8364                   21737762.0514
  -1788747.82447  -1362284.97346  21136794.0164                   21136792.8404
 -16530255.23048 -12844878.51246  19879081.3674                   19879080.1644
   6936323.27347   5454316.04744  22599162.8444                   22599163.3954
  -9393641.00847  -7287766.69945  21912027.1024                   21912025.5234
 -12622824.63348  -9804112.64846  21444993.7894                   21444991.5514
 11  7 25 21 19 30.0000000  0  7G17G24G07G08G26G11G28
  -3868751.16848  -2961636.91046  21570119.3674                   21570118.6914
  -7766153.95347  -6005806.67245  22010967.5704                   22010967.5234
   -287913.56647   -192803.78546  21422393.2034                   21422392.3984
 -15087331.37548 -11720522.27746  20153660.7424                   20153659.9454
   8376478.28147   6576514.73044  22873215.1954                   22873215.2934
  -7907896.12548  -6130043.42245  22194754.8914                   22194753.2774
 -11213407.04747  -8705865.18046  21713196.6484                   21713194.4534
 11  7 25 21 20  0.0000000  0  7G17G24G07G08G26G11G28
  -4064312.21548  -3114022.09446  21532905.2974                   21532904.7234
  -7905267.69947  -6114206.98845  21984494.5634                   21984494.8444
   -362028.99248   -250556.12146  21408289.6414                   21408288.4804
 -15219222.96148 -11823294.95346  20128562.5084                   20128561.4694
   8241831.37147   6471595.03944  22847592.8284                   22847594.1294
  -7997028.69547  -6199497.39545  22177793.2344                   22177791.4064
 -11379333.69148  -8835158.66846  21681622.4774                   21681619.8794
 11  7 25 21 20 30.0000000  0  7G17G24G07G08G26G11G28
  -4259467.80547  -3266091.32846  21495768.1024                   21495767.2974
  -8043775.11747  -6222134.83245  21958137.6484                   21958137.8404
   -435673.48447   -307941.48846  21394275.4064                   21394274.2974
 -15350505.64848 -11925593.16846  20103580.4064                   20103579.5274
   8107804.65247   6367158.62544  22822088.1884                   22822089.1954
  -8085618.21547  -6268528.23445  22160935.4924                   22160933.7344
 -11545179.78148  -8964389.38346  21650062.6024                   21650060.2274
 11  7 25 21 21  0.0000000  0  7G17G24G07G08G26G11G28
  -4454217.13347  -3417844.00446  21458708.5784                   21458707.6604
  -8181675.54747  -6329589.70345  21931896.0234                   21931896.2734
   -508848.21547   -364960.80946  21380350.5864                   21380349.9654
 -15481178.89848 -12027416.49646  20078714.2584                   20078712.8554
   7974397.08647   6263204.61744  22796701.1884                   22796702.1484
  -8173666.30947  -6337137.16045  22144180.4924                   22144178.4574
 -11710944.51648  -9093556.69946  21618518.6024                   21618516.6764
 11  7 25 21 21 30.0000000  0  7G17G24G07G08G26G11G28
  -4648561.32847  -3569280.98046  21421726.2894                   21421725.1334
  -8318970.28947  -6436572.61345  21905770.0394                   21905770.2734
   -581555.86747   -421616.17646  21366514.7584                   21366513.8594
 -15611242.92248 -12128765.10246  20053963.9144                   20053962.6644
   7841606.38347   6159731.32045  22771432.3674                   22771432.9184
  -8261176.28947  -6405326.77045  22127528.1954                   22127525.9184
 -11876629.12548  -9222661.58246  21586989.9924                   21586988.1524
 11  7 25 21 22  0.0000000  0  7G17G24G07G08G26G11G28
  -4842501.86347  -3720403.41846  21384820.6644                   21384819.4654
  -8455660.49647  -6543084.44145  21879758.4304                   21879758.4774
   -653799.67647   -477910.11746  21352767.5784                   21352766.6054
 -15740698.89548 -12229639.91046  20029329.4614                   20029328.2814
   7709429.34847   6056736.19144  22746280.3594                   22746280.1414
  -8348151.68047  -6473099.83245  22110977.1024                   22110975.6954
 -12042234.73047  -9351704.90646  21555476.1254                   21555474.6764
 11  7 25 21 22 30.0000000  0  7G17G24G07G08G26G11G28
  -5036036.89848  -3871209.89846  21347991.9694                   21347991.0274
  -8591744.19147  -6649123.69145  21853862.8204                   21853863.4384
   -725579.18048   -533842.24646  21339108.6024                   21339107.7734
 -15869544.53548 -12330039.11746  20004810.6724                   20004809.4224
   7577866.67247   5954219.79744  22721244.5084                   22721244.8484
  -8434592.53147  -6540456.35545  22094528.0084                   22094526.8364
 -12207759.34848  -9480685.12946  21523978.0784                   21523976.0744
 11  7 25 21 23  0.0000000  0  7G17G24G07G08G26G11G28
  -5229171.85248  -4021704.61346  21311239.5004                   21311238.4104
  -8727226.64847  -6754694.41445  21828081.3204                   21828081.4454
   -796901.11747   -589417.84046  21325536.1094                   21325535.3554
 -15997784.49248 -12429966.37946  19980407.4694                   19980406.5864
   7446911.71947   5852176.93044  22696325.2114                   22696324.8164
  -8520506.09047  -6607402.02045  22078179.5634                   22078177.8954
 -12373208.18048  -9609606.29346  21492494.2424                   21492492.0904
 11  7 25 21 23 30.0000000  0  7G17G24G07G08G26G11G28
  -5421900.69148  -4171882.89146  21274564.2194                   21274563.5554
  -8862101.74647  -6859791.87545  21802415.1024                   21802415.6684
   -867761.41848   -644633.71546  21312051.8594                   21312051.3204
 -16125412.53948 -12529416.82446  19956120.9534                   19956119.6254
   7316568.80147   5750611.01244  22671521.4224                   22671521.8834
  -8605888.18747  -6673933.54745  22061931.3204                   22061930.4774
 -12538574.74248  -9738463.34046  21461025.7504                   21461023.6174
 11  7 25 21 24  0.0000000  0  7G17G24G07G08G26G11G28
  -5614217.30148  -4321739.94546  21237967.6334                   21237966.7584
  -8996363.24247  -6964411.23045  21776866.3284                   21776866.6454
   -938154.93447   -699485.86746  21298656.8364                   21298655.7304
 -16252421.72748 -12628385.02746  19931951.8284                   19931950.5984
   7186842.62947   5649525.63744  22646835.5784                   22646835.1884
  -8690734.82447  -6740047.83645  22045785.8834                   22045783.8094
 -12703852.82848  -9867251.44546  21429574.3364                   21429572.0354
 11  7 25 21 24 30.0000000  0  7G17G24G07G08G26G11G28
  -5806118.84047  -4471273.56646  21201450.0864                   21201449.0314
  -9130008.28947  -7068550.19945  21751434.4844                   21751434.8594
  -1008080.93747   -753973.72346  21285350.2894                   21285348.9574
 -16378809.27748 -12726868.86346  19907900.7974                   19907899.8014
   7057734.63747   5548921.96944  22622266.4534                   22622267.0864
  -8775045.33647  -6805744.34845  22029741.7814                   22029740.5084
 -12869039.27748  -9995968.14846  21398140.2584                   21398138.2074
 11  7 25 21 25  0.0000000  0  7G17G24G07G08G26G11G28
  -4422177.13348  -3392877.39546  21464805.3984                   21464804.1134
  -7687610.67247  -5944604.00045  22025913.5784                   22025913.8444
    497883.45748    419504.96146  21571926.2584                   21571924.8484
 -14929148.57048 -11597263.12946  20183762.4304                   20183760.9614
   8504669.36347   6676403.53544  22897609.5234                   22897609.7114
  -7283396.92647  -5643420.94145  22313593.2114                   22313591.6094
 -11458706.35248  -8897007.42646  21666518.2194                   21666515.8324
 11  7 25 21 25 30.0000000  0  7G17G24G07G08G26G11G28
  -4613240.41848  -3541757.83646  21428447.4224                   21428446.1994
  -7820014.77347  -6047776.02045  22000717.9304                   22000718.6564
    428896.39147    365748.74246  21558797.9694                   21558796.7814
 -15054283.06248 -11694770.54346  20159950.2344                   20159948.8754
   8376801.19947   6576765.96944  22873276.8754                   22873277.3204
  -7366632.85247  -5708280.11744  22297753.9384                   22297752.2234
 -11623700.37948  -9025574.19946  21635120.5944                   21635118.3324
 11  7 25 21 26  0.0000000  0  7G17G24G07G08G26G11G28
  -4803879.57848  -3690307.80146  21392170.1484                   21392168.3484
  -7951792.93447  -6150460.28945  21975641.0634                   21975641.8714
    360381.56348    312360.48846  21545760.2664                   21545758.8164
 -15178785.35948 -11791785.34046  20136258.0554                   20136256.7704
   8249555.69147   6477613.60244  22849062.9144                   22849063.0984
  -7449329.64847  -5772719.18445  22282017.6804                   22282015.9344
 -11788592.79748  -9154061.80146  21603742.9064                   21603740.8404
 11  7 25 21 26 30.0000000  0  7G17G24G07G08G26G11G28
  -4994099.59848  -3838531.14546  21355972.0474                   21355970.8794
  -8082950.43047  -6252660.93745  21950683.4384                   21950683.0004
    292331.98448    259334.77746  21532810.8364                   21532809.9734
 -15302660.32048 -11888311.30146  20112685.5004                   20112684.3054
   8122926.30547   6378941.32844  22824966.3284                   22824966.2974
  -7531494.27347  -5836743.59844  22266381.7894                   22266380.4614
 -11953388.07448  -9282473.71146  21572383.1884                   21572381.0314
 11  7 25 21 27  0.0000000  0  7G17G24G07G08G26G11G28
  -5183890.57048  -3986420.17646  21319856.0944                   21319855.0164
  -8213477.03947  -6354369.98045  21925844.7894                   21925844.7934
    224756.52748    206678.50846  21519951.6094                   21519951.1454
 -15425896.78948 -11984339.73846  20089234.3754                   20089233.3834
   7996921.78947   6280755.94144  22800988.0004                   22800988.8134
  -7613118.41447  -5900346.85245  22250849.4774                   22250848.2304
 -12118075.82448  -9410801.83646  21541044.0554                   21541042.0204
 11  7 25 21 27 30.0000000  0  7G17G24G07G08G26G11G28
  -5373258.75048  -4133979.76246  21283820.3914                   21283818.9804
  -8343379.40647  -6455592.60545  21901125.0314                   21901125.2234
    157647.35948    154385.57846  21507181.0784                   21507180.3444
 -15548500.95348 -12079875.47346  20065903.6334                   20065902.2814
   7871534.31647   6183051.37144  22777127.8134                   22777128.6054
  -7694210.62147  -5963535.59445  22235418.6564                   22235416.5594
 -12282661.64148  -9539050.52746  21509724.5474                   21509722.2974
 11  7 25 21 28  0.0000000  0  7G17G24G07G08G26G11G28
  -5562203.85548  -4281209.66846  21247865.4304                   21247864.1334
  -8472657.31647  -6556328.62545  21876524.3834                   21876524.4494
     91002.76247    102454.65646  21494499.2504                   21494498.6804
 -15670472.48048 -12174918.25046  20042693.0314                   20042692.0864
   7746762.22347   6085826.34044  22753384.2424                   22753385.1764
  -7774772.77747  -6026311.28945  22220087.7584                   22220086.6374
 -12447145.18448  -9667219.52746  21478424.1094                   21478422.0904
 11  7 25 21 28 30.0000000  0  7G17G24G07G08G26G11G28
  -5750731.37148  -4428114.19546  21211989.7424                   21211988.5394
  -8601316.15647  -6656582.26245  21852041.5474                   21852041.4694
     24816.21547     50880.65246  21481904.6884                   21481903.2814
 -15791816.32448 -12269471.91446  20019602.2504                   20019601.0394
   7622598.82447   5989075.58644  22729757.3754                   22729758.1374
  -7854812.00047  -6088679.53144  22204856.8134                   22204855.5944
 -12611531.43048  -9795312.71946  21447142.8674                   21447140.6254
 11  7 25 21 29  0.0000000  0  7G17G24G07G08G26G11G28
  -5938836.95748  -4574689.94546  21176194.3754                   21176193.3954
  -8729351.69948  -6756350.21145  21827677.0164                   21827677.2344
    -40910.03948      -334.68446  21469397.3674                   21469396.2504
 -15912527.88748 -12363532.91046  19996631.3754                   19996630.5744
   7499046.59847   5892801.09444  22706245.6564                   22706246.5744
  -7934326.29347  -6150638.75445  22189725.7424                   22189724.3134
 -12775815.33248  -9923326.15646  21415880.3524                   21415878.3134
 11  7 25 21 29 30.0000000  0  7G17G24G07G08G26G11G28
  -6126527.56648  -4720942.32046  21140477.7114                   21140476.7344
  -8856770.78947  -6855637.81645  21803429.7194                   21803429.7814
   -106184.29748    -51197.80946  21456975.9304                   21456975.1764
 -16032613.72748 -12457106.30946  19973779.6804                   19973778.8554
   7376097.23047   5796996.34844  22682849.4384                   22682849.2894
  -8013324.64147  -6212195.93745  22174693.0394                   22174691.6724
 -12940003.71148 -10051265.16446  21384636.2814                   21384634.0314
 11  7 25 21 30  0.0000000  0  7G17G24G07G08G26G11G28
  -4738368.60548  -3639259.97746  21404635.5864                   21404634.7734
  -7408141.16047  -5726835.48845  22079094.5634                   22079094.5704
   1404422.48047   1125898.30946  21744435.2034                   21744434.0314
 -14576641.30548 -11322582.35246  20250842.1334                   20250840.9384
   8829181.39847   6929269.68044  22959362.1174                   22959362.6294
  -6516377.85247  -5045743.89545  22459552.2344                   22459551.0634
 -11528661.85948  -8951518.27346  21653205.7974                   21653203.7424
 11  7 25 21 30 30.0000000  0  7G17G24G07G08G26G11G28
  -4925216.81648  -3784855.94546  21369079.6484                   21369078.6214
  -7534315.72348  -5825153.32845  22055084.4304                   22055084.5514
   1340059.97747   1075745.64546  21732186.9304                   21732186.3874
 -14695462.66448 -11415170.44946  20228231.3914                   20228230.2424
   8707445.08647   6834410.18844  22936197.2194                   22936197.2074
  -6594337.73447  -5106491.87144  22444716.7974                   22444715.3364
 -11692644.35948  -9079296.84046  21622001.0164                   21621998.6054
 11  7 25 21 31  0.0000000  0  7G17G24G07G08G26G11G28
  -5111652.45348  -3930130.43046  21333602.1174                   21333601.0004
  -7659876.53947  -5922992.93045  22031191.0864                   22031191.4924
   1276142.52347   1025939.76246  21720024.2814                   21720023.6844
 -14813660.01648 -11507272.29746  20205738.7424                   20205737.7734
   8586304.46947   6740014.88344  22913144.4924                   22913144.6684
  -6671789.84447  -5166844.17644  22429978.2584                   22429976.8404
 -11856531.87148  -9207001.38746  21590814.3364                   21590812.2584
 11  7 25 21 31 30.0000000  0  7G17G24G07G08G26G11G28
  -5297670.41448  -4075079.44946  21298204.1954                   21298202.9104
  -7784818.76647  -6020350.50445  22007415.3914                   22007415.7464
   1212673.46148    976483.28146  21707946.7424                   21707945.5084
 -14931227.78948 -11598883.57046  20183366.7974                   20183365.3284
   8465762.93847   6646086.36344  22890205.8364                   22890206.7734
  -6748731.50447  -5226798.75844  22415336.5164                   22415335.1134
 -12020318.65248  -9334627.44146  21559646.6724                   21559644.5434
 11  7 25 21 32  0.0000000  0  7G17G24G07G08G26G11G28
  -5483275.89548  -4219707.07046  21262885.0314                   21262883.4184
  -7909147.37148  -6117229.93045  21983756.4614                   21983756.7304
   1149646.18847    927371.04346  21695953.1094                   21695952.2704
 -15048170.69148 -11690007.92246  20161113.0634                   20161111.9694
   8345813.81647   6552619.50044  22867381.0864                   22867380.9344
  -6825169.50047  -5286360.86744  22400791.7114                   22400790.4534
 -12184008.72348  -9462178.14146  21528497.7194                   21528495.2304
 11  7 25 21 32 30.0000000  0  7G17G24G07G08G26G11G28
  -5668469.85548  -4364014.02746  21227643.5944                   21227641.9924
  -8032863.73047  -6213632.26645  21960214.0164                   21960214.4804
   1087057.90647    878600.88346  21684042.7344                   21684042.1724
 -15164489.70748 -11780646.13746  20138978.5864                   20138976.7814
   8226454.15247   6459611.92244  22844667.8524                   22844667.5514
  -6901107.09447  -5345533.04744  22386340.9614                   22386339.3794
 -12347603.10248  -9589654.26646  21497366.2894                   21497364.4184
 11  7 25 21 33  0.0000000  0  7G17G24G07G08G26G11G28
  -5853256.98048  -4508003.94946  21192479.6254                   21192478.1484
  -8155972.43747  -6309561.11745  21936787.2974                   21936787.0944
   1024902.65647    830168.13745  21672214.8364                   21672214.2274
 -15280188.92648 -11870801.38746  20116961.7344                   20116960.6294
   8107677.72347   6367058.84044  22822064.2974                   22822065.7074
  -6976550.74247  -5404320.32444  22371984.7504                   22371982.9494
 -12511105.36348  -9717058.60546  21466253.2504                   21466250.9064
 11  7 25 21 33 30.0000000  0  7G17G24G07G08G26G11G28
  -6037643.01248  -4651681.35246  21157392.1484                   21157390.4304
  -8278479.66847  -6405021.28145  21913475.1804                   21913474.8794
    963172.80547    782066.87545  21660468.0864                   21660467.8244
 -15395274.19948 -11960478.24246  20095061.6954                   20095060.7194
   7989477.25847   6274954.54344  22799571.6644                   22799572.9024
  -7051508.72347  -5462729.13744  22357720.7424                   22357718.6764
 -12674520.87948  -9844395.35946  21435156.3524                   21435153.4264
 11  7 25 21 34  0.0000000  0  7G17G24G07G08G26G11G28
  -6221626.73848  -4795045.25446  21122380.7424                   21122379.7154
  -8400384.47747  -6500012.03945  21890277.3594                   21890277.1024
    901867.94947    734296.78145  21648802.4614                   21648802.1214
 -15509744.14848 -12049675.63346  20073278.5314                   20073277.7584
   7871852.34047   6183298.72344  22777189.7974                   22777189.4344
  -7125981.21147  -5520759.64844  22343548.6414                   22343547.3014
 -12837847.77348  -9971663.05946  21404075.8444                   21404073.4614
 11  7 25 21 34 30.0000000  0  7G17G24G07G08G26G11G28
  -6405217.43448  -4938102.89846  21087444.8054                   21087443.5704
  -8521696.22747  -6594540.67645  21867192.4454                   21867192.1174
    840977.52748    686849.62546  21637215.5864                   21637215.3364
 -15623607.76248 -12138400.54746  20051611.2814                   20051610.0314
   7754791.63347   6092082.54744  22754912.7274                   22754913.6174
  -7199979.97747  -5578421.05144  22329467.4534                   22329465.6764
 -13001094.10948 -10098867.98846  21373011.4694                   21373008.9534
 11  7 25 21 35  0.0000000  0  7G17G24G07G08G26G11G28
  -6588417.49648  -5080856.16046  21052582.8524                   21052581.5704
  -8642417.43047  -6688609.14545  21844220.0394                   21844220.0164
    780497.50848    639722.26245  21625706.7894                   21625705.9024
 -15736867.15648 -12226654.63746  20030058.7974                   20030057.7464
   7638291.48847   6001303.18444  22732743.5554                   22732744.7504
  -7273509.27347  -5635716.63744  22315475.0554                   22315473.7584
 -13164261.44548 -10226011.34446  21341961.8594                   21341958.9104
 11  7 25 21 35 30.0000000  0  7G17G24G07G08G26G11G28
  -5195796.15248  -3995696.63746  21317590.1414                   21317588.8014
  -7187119.72348  -5554610.91845  22121154.1884                   22121153.9774
   2295852.84848   1820518.54346  21914069.1334                   21914068.7544
 -14274094.03148 -11086831.45346  20308415.3594                   20308414.4804
   9097778.57447   7138565.80544  23010474.9924                   23010475.5354
  -5771143.86747  -4465042.34044  22601366.2424                   22601364.5274
 -11751919.39848  -9125485.06646  21610721.4064                   21610719.0084
 11  7 25 21 36  0.0000000  0  7G17G24G07G08G26G11G28
  -5378208.99248  -4137836.47346  21282877.9454                   21282876.5124
  -7306654.98848  -5647755.27345  22098407.1094                   22098407.2074
   2236194.36748   1774031.34846  21902716.7114                   21902716.1604
 -14386138.81648 -11174139.10946  20287093.6564                   20287092.8054
   8982399.72347   7048660.18044  22988519.2814                   22988520.1134
  -5843734.16047  -4521606.22744  22587552.4064                   22587551.0514
 -11914921.31648  -9252499.53146  21579703.1094                   21579700.8244
 11  7 25 21 36 30.0000000  0  7G17G24G07G08G26G11G28
  -5560231.34448  -4279672.03946  21248240.2584                   21248239.2034
  -7425600.62147  -5740440.17245  22075772.7814                   22075772.9184
   2176941.46148   1727860.16846  21891441.0704                   21891440.5984
 -14497579.10548 -11260975.72346  20265887.6254                   20265886.2894
   8867575.98447   6959187.10544  22966669.1024                   22966669.1804
  -5915861.12547  -4577809.08644  22573826.8524                   22573826.1094
 -12077842.31248  -9379450.94546  21548700.3984                   21548697.9454
 11  7 25 21 37  0.0000000  0  7G17G24G07G08G26G11G28
  -5741866.43448  -4421205.83246  21213676.4534                   21213675.0274
  -7543959.84447  -5832668.14545  22053249.3054                   22053249.5164
   2118089.35947   1682001.30545  21880242.0084                   21880241.3714
 -14608418.09048 -11347343.79746  20244795.4844                   20244794.3874
   8753302.41047   6870142.72744  22944923.2664                   22944924.3754
  -5987529.82047  -4633654.85244  22560188.8284                   22560187.9574
 -12240684.57048  -9506341.00446  21517712.5474                   21517709.7894
 11  7 25 21 37 30.0000000  0  7G17G24G07G08G26G11G28
  -5923120.42248  -4562442.66446  21179184.8914                   21179183.1914
  -7661739.37547  -5924444.41045  22030836.5634                   22030836.5124
   2059629.91447   1636448.41845  21869117.7034                   21869117.1054
 -14718661.67248 -11433247.91846  20223816.9534                   20223815.7304
   8639571.11347   6781520.90644  22923280.9844                   22923281.9774
  -6058748.77747  -4689150.18444  22546636.3134                   22546635.1724
 -12403453.34448  -9633173.81246  21486738.9224                   21486736.5164
 11  7 25 21 38  0.0000000  0  7G17G24G07G08G26G11G28
  -6103992.80148  -4703382.14546  21144766.0234                   21144764.4804
  -7778939.03947  -6015768.82845  22008533.9694                   22008534.7734
   2001562.39147   1591200.91845  21858067.8204                   21858067.6054
 -14828309.23448 -11518687.61346  20202951.8054                   20202950.6994
   8526380.73847   6693320.57444  22901741.5704                   22901742.8484
  -6129519.46547  -4744296.21144  22533169.1174                   22533168.0824
 -12566147.66448  -9759948.60246  21455779.0944                   21455776.8404
 11  7 25 21 38 30.0000000  0  7G17G24G07G08G26G11G28
  -6284487.66448  -4844027.45746  21110418.6334                   21110417.0204
  -7895562.93447  -6106644.58645  21986341.8674                   21986341.7814
   1943881.00847   1546254.30545  21847091.7814                   21847091.5124
 -14937364.94148 -11603666.11746  20182199.2194                   20182198.2344
   8413725.51647   6605537.23444  22880303.6174                   22880304.8954
  -6199847.80547  -4799097.53944  22519786.5164                   22519785.2344
 -12728770.29748  -9886667.52346  21424832.9614                   21424830.7584
 11  7 25 21 39  0.0000000  0  7G17G24G07G08G26G11G28
  -6464604.44948  -4984378.15246  21076143.7344                   21076142.0944
  -8011610.91047  -6197071.59045  21964258.0474                   21964259.0394
   1886584.59847   1501607.66845  21836188.1564                   21836187.8874
 -15045828.03948 -11688182.84846  20161559.2114                   20161558.4184
   8301604.42647   6518170.13344  22858968.5004                   22858968.9924
  -6269735.35247  -4853555.41044  22506487.3754                   22506485.7584
 -12891319.82848 -10013329.49646  21393900.4224                   21393898.4184
 11  7 25 21 39 30.0000000  0  7G17G24G07G08G26G11G28
  -6644337.23848  -5124429.64146  21041941.8834                   21041939.9884
  -8127077.46947  -6287045.52345  21942285.7974                   21942286.6094
   1829677.64147   1457264.48845  21825359.7424                   21825359.1524
 -15153692.68448 -11772233.25046  20141033.6484                   20141032.1374
   8190021.19947   6431222.12944  22837734.2194                   22837735.3054
  -6339178.14847  -4907666.71544  22493272.8524                   22493271.3754
 -13053789.41448 -10139929.18446  21362983.3674                   21362981.1414
 11  7 25 21 40  0.0000000  0  7G17G24G07G08G26G11G28
  -6823678.63748  -5264176.14846  21007814.0004                   21007812.9534
  -8241955.56247  -6376560.93045  21920424.9774                   21920425.3834
   1773165.95347   1413229.33645  21814605.6024                   21814605.8754
 -15260951.39848 -11855811.51246  20120622.8204                   20120621.3054
   8078981.37147   6344697.54744  22816604.4614                   22816605.3794
  -6408171.11347  -4961427.50844  22480144.2814                   22480142.2304
 -13216170.93448 -10266460.23446  21332083.4224                   21332081.1764
 11  7 25 21 40 30.0000000  0  7G17G24G07G08G26G11G28
  -7002625.68448  -5403615.37546  20973761.4844                   20973760.3834
  -8356242.69547  -6465615.84845  21898677.2814                   21898677.5474
   1717050.64147   1369503.03145  21803927.5944                   21803927.2854
 -15367601.13348 -11938915.21946  20100327.9774                   20100326.8364
   7968486.32847   6258597.50044  22795577.8834                   22795578.8874
  -6476713.11347  -5014836.89544  22467101.0314                   22467099.2304
 -13378460.20348 -10392919.39846  21301200.7424                   21301198.8094
 11  7 25 21 41  0.0000000  0  7G17G24G07G08G26G11G28
  -5605745.88348  -4315137.57446  21239578.8054                   21239577.3324
  -6894508.59047  -5326602.24245  22176835.9924                   22176835.9454
   3236758.73847   2553691.06645  22093118.1254                   22093117.5554
 -13898211.56248 -10793936.36346  20379943.6334                   20379942.5984
   9433964.80547   7400528.75444  23074449.8594                   23074449.8914
  -4969377.00847  -3840289.29744  22753937.6414                   22753935.7664
 -11965223.90248  -9291696.31246  21570130.6024                   21570128.4414
 11  7 25 21 41 30.0000000  0  7G17G24G07G08G26G11G28
  -5783891.07848  -4453951.98446  21205678.7114                   21205677.4144
  -7007601.23847  -5414726.39145  22155315.1484                   22155315.0274
   3181444.87547   2510589.27345  22082592.1884                   22082592.1804
 -14003629.85248 -10876080.52346  20359883.0944                   20359881.8634
   9324567.15647   7315283.79744  23053631.4924                   23053632.5824
  -5037009.64147  -3892990.08244  22741067.2664                   22741065.5664
 -12127311.96548  -9417998.70346  21539286.2664                   21539284.0004
 11  7 25 21 42  0.0000000  0  7G17G24G07G08G26G11G28
  -5961620.71148  -4592442.57446  21171858.1884                   21171856.7894
  -7120082.37947  -5502374.03145  22133910.8754                   22133911.0514
   3126544.23847   2467809.46545  22072145.0004                   22072145.3014
 -14108417.83648 -10957733.53546  20339943.0394                   20339941.5744
   9215730.30147   7230475.80544  23032921.0634                   23032922.0044
  -5104175.72347  -3945327.30944  22728286.0004                   22728285.0004
 -12289283.43048  -9544210.23046  21508463.7814                   21508461.9924
 11  7 25 21 42 30.0000000  0  7G17G24G07G08G26G11G28
  -6138937.48848  -4730611.46546  21138115.7664                   21138114.6804
  -7231955.39147  -5589547.80145  22112622.0784                   22112621.9694
   3072052.07847   2425347.93845  22061776.1724                   22061775.5394
 -14212578.63748 -11038897.82446  20320121.5084                   20320120.2774
   9107449.20747   7146100.89844  23012315.2194                   23012316.8754
  -5170880.52347  -3997305.09044  22715592.3364                   22715590.5394
 -12451140.02348  -9670332.25846  21477664.2504                   21477661.8094
 11  7 25 21 43  0.0000000  0  7G17G24G07G08G26G11G28
  -6315849.56248  -4868465.00446  21104450.5004                   21104449.4414
  -7343228.57847  -5676254.17645  22091447.2894                   22091447.4844
   3017958.92247   2383197.34845  22051482.3594                   22051482.0944
 -14316119.72748 -11119579.21546  20300418.3364                   20300417.4264
   8999714.36347   7062151.63344  22991814.5784                   22991815.1804
  -5237133.52747  -4048930.85544  22702985.8054                   22702983.6884
 -12612888.49648  -9796370.03546  21446884.4064                   21446882.3014
 11  7 25 21 43 30.0000000  0  7G17G24G07G08G26G11G28
  -6492350.11348  -5005997.86346  21070863.5084                   21070861.9884
  -7453895.56647  -5762488.18045  22070388.0634                   22070388.2304
   2964270.18047   2341361.87545  22041265.9304                   22041265.8204
 -14419034.65648 -11199772.69946  20280834.3524                   20280833.4264
   8892530.55147   6978631.71944  22971418.2504                   22971419.3674
  -5302930.43047  -4100201.20744  22690465.0394                   22690462.8714
 -12774520.74648  -9922317.24246  21416126.8834                   21416124.3164
 11  7 25 21 44  0.0000000  0  7G17G24G07G08G26G11G28
  -6668431.49248  -5143204.09846  21037356.5314                   21037355.0864
  -7563949.52347  -5848244.49645  22049445.6414                   22049445.8914
   2910991.51647   2299845.93445  22031127.0944                   22031127.2504
 -14521315.63348 -11279472.19146  20261371.0004                   20261369.6214
   8785903.59847   6895545.73844  22951127.4064                   22951128.2154
  -5368265.38347  -4151111.59044  22678031.6954                   22678029.7934
 -12936028.43448 -10048167.39146  21385392.4774                   21385390.4844
 11  7 25 21 44 30.0000000  0  7G17G24G07G08G26G11G28
  -6844100.97748  -5280089.37146  21003927.3594                   21003925.9654
  -7673398.07847  -5933529.07445  22028618.1484                   22028618.3284
   2858114.19547   2258642.74245  22021065.2974                   22021065.4734
 -14622970.43448 -11358683.75446  20242026.7194                   20242025.3594
   8679824.27747   6812886.46944  22930941.4224                   22930941.9884
  -5433147.64847  -4201669.23044  22665684.3284                   22665683.4614
 -13097417.63748 -10173925.21146  21354681.6954                   21354679.5784
 11  7 25 21 45  0.0000000  0  8G17G24G07G08G26G11G04G28
  -7019355.21148  -5416651.08246  20970577.7344                   20970576.2304
  -7782238.12147  -6018339.48845  22007906.8674                   22007906.6994
   2805640.37948   2217753.94145  22011079.6804                   22011079.3594
 -14723995.58248 -11437404.68046  20222802.3364                   20222801.1724
   8574294.36747   6730655.31344  22910860.0784                   22910860.1844
  -5497575.69947  -4251872.93744  22653424.2344                   22653422.4384
  45368730.09056  35406913.67253  24185044.2504                   24185050.3364
 -13258683.49648 -10299586.92646  21323993.5554                   21323991.4384
 11  7 25 21 45 30.0000000  0  8G17G24G07G08G26G11G04G28
  -7194204.69548  -5552897.39846  20937304.8524                   20937303.7074
  -7890480.62547  -6102684.26645  21987308.3364                   21987308.9344
   2753557.87547   2177170.08645  22001168.6094                   22001168.9144
 -14824401.30548 -11515642.93446  20203695.8204                   20203695.0044
   8469301.34847   6648842.50844  22890880.5084                   22890881.3794
  -5561562.05947  -4301732.46544  22641248.8594                   22641246.9534
  45112151.55946  35206982.67243  24136218.7274                   24136224.9064
 -13419835.14148 -10425159.64546  21293327.4454                   21293325.4574
 11  7 25 21 46  0.0000000  0  8G17G24G07G08G26G11G04G28
  -7368661.49648  -5688837.72746  20904107.0704                   20904105.1054
  -7998138.27747  -6186573.34845  21966822.2894                   21966822.2544
   2701852.37947   2136879.98445  21991329.7424                   21991329.2624
 -14924200.34848 -11593408.45346  20184704.4614                   20184703.6484
   8364830.81347   6567436.84044  22871000.8984                   22871001.0824
  -5625121.24647  -4351259.12944  22629153.5084                   22629151.7344
  44855585.32446  35007061.28943  24087394.9844                   24087401.3714
 -13580883.84448 -10550652.13346  21262681.1484                   21262678.8984
 11  7 25 21 46 30.0000000  0  8G17G24G07G08G26G11G04G28
  -5967304.69948  -4596871.35946  21170776.3754                   21170774.9024
  -6529792.89847  -5042408.10545  22246239.0234                   22246238.9734
   4225939.45347   3324480.20345  22281354.3054                   22281353.7034
 -13447974.44948 -10443102.58646  20465621.1484                   20465619.8674
   9836299.78147   7714035.98844  23151011.2584                   23151013.1644
  -4112837.66847  -3172856.37144  22916931.2664                   22916930.3054
  46174458.58646  36034755.05143  24338367.6724                   24338375.2854
 -12166407.99248  -9448463.16446  21531846.6724                   21531844.5784
 11  7 25 21 47  0.0000000  0  8G17G24G07G08G26G11G04G28
  -6140992.50848  -4732212.47346  21137724.4064                   21137723.4694
  -6636298.41848  -5125399.42645  22225971.4614                   22225971.5904
   4174967.78147   3284761.92645  22271654.2584                   22271654.4264
 -13546577.11348 -10519935.85946  20446857.6954                   20446856.7464
   9732852.88347   7633427.94544  23131326.2274                   23131327.4614
  -4175564.04347  -3221734.09044  22904995.6094                   22904993.9144
  45917910.91446  35834848.16443  24289548.1414                   24289555.5904
 -12327263.08648  -9573804.78146  21501237.3834                   21501234.9844
 11  7 25 21 47 30.0000000  0  8G17G24G07G08G26G11G04G28
  -6314299.32048  -4867256.71546  21104744.8284                   21104743.6454
  -6742232.14848  -5207945.18445  22205813.1564                   22205813.1294
   4124357.08647   3245324.90245  22262023.8284                   22262023.5084
 -13644584.59048 -10596305.35546  20428207.2894                   20428206.1644
   9629911.39147   7553213.74644  23111737.0084                   23111738.2974
  -4237880.52747  -3270292.42244  22893136.5634                   22893135.6294
  45661373.72746  35634949.42643  24240731.3524                   24240737.6414
 -12488023.11348  -9699072.32046  21470645.4534                   21470643.2544
 11  7 25 21 48  0.0000000  0  8G17G24G07G08G26G11G04G28
  -6487223.58648  -5002002.86746  21071839.2424                   21071837.4574
  -6847593.00847  -5290044.55145  22185763.4064                   22185763.3954
   4074107.40247   3206169.20745  22252461.9384                   22252461.3794
 -13741995.63348 -10672210.09046  20409670.5084                   20409669.7424
   9527475.12547   7473393.18844  23092244.3444                   23092245.3364
  -4299787.36347  -3318531.54744  22881355.8984                   22881354.6684
  45404851.94146  35435062.68043  24191916.1884                   24191923.2854
 -12648684.88748  -9824263.29346  21440072.4144                   21440070.3554
 11  7 25 21 48 30.0000000  0  8G17G24G07G08G26G11G04G28
  -6659761.56648  -5136448.01246  21039006.1414                   21039004.8554
  -6952377.83247  -5371695.05145  22165823.3524                   22165823.8404
   4024220.88747   3167296.50045  22242967.8524                   22242968.3914
 -13838807.03548 -10747647.58646  20391248.0704                   20391247.0164
   9425545.88347   7393967.75844  23072847.5864                   23072848.5594
  -4361282.87547  -3366450.18044  22869654.1254                   22869653.0084
  45148352.44946  35235193.30943  24143105.8674                   24143112.3754
 -12809243.67248  -9949374.03946  21409519.0084                   21409516.9264
 11  7 25 21 49  0.0000000  0  8G17G24G07G08G26G11G04G28
  -6831917.62548  -5270595.56246  21006246.0314                   21006244.4224
  -7056591.44547  -5452900.46945  22145992.5704                   22145992.2814
   3974691.68047   3128702.18845  22233544.0944                   22233543.2074
 -13935023.34048 -10822621.36746  20372938.8914                   20372937.6994
   9324117.15647   7314932.34444  23053546.6094                   23053548.0984
  -4422373.22747  -3414053.10944  22858028.8754                   22858026.8594
  44891874.03946  35035340.38343  24094299.1884                   24094305.3634
 -12969702.37948 -10074406.79746  21378984.8674                   21378982.9064
 11  7 25 21 49 30.0000000  0  8G17G24G07G08G26G11G04G28
  -7003699.73048  -5404451.72746  20973556.8134                   20973555.6024
  -7160242.61347  -5533667.61345  22126268.6334                   22126268.1054
   3925510.04347   3090378.73845  22224184.3284                   22224184.4774
 -14030652.75048 -10897137.82046  20354741.1644                   20354740.1804
   9223179.16447   7236279.28944  23034339.0084                   23034340.1484
  -4483068.71547  -3461348.30144  22846478.7194                   22846477.0904
  44635411.88346  34835500.12543  24045495.9144                   24045501.5164
 -13130067.35948 -10199366.51246  21348468.6804                   21348466.1134
 11  7 25 21 50  0.0000000  0  8G17G24G07G08G26G11G04G28
  -7175105.05948  -5538014.29346  20940939.2814                   20940938.1214
  -7263328.93047  -5613994.60545  22106652.1094                   22106651.8874
   3876677.15247   3052327.00445  22214892.1024                   22214892.2234
 -14125692.33648 -10971194.67246  20336656.1174                   20336655.0944
   9122732.79347   7158009.34044  23015224.1884                   23015225.5704
  -4543368.32047  -3508335.01644  22835004.0084                   22835002.5354
  44378972.36746  34635677.46943  23996696.9064                   23996703.1414
 -13290334.33248 -10324249.86346  21317970.6954                   21317968.3134
 11  7 25 21 50 30.0000000  0  8G17G24G07G08G26G11G04G28
  -7346138.28148  -5671286.89846  20908392.4304                   20908391.6604
  -7365855.58247  -5693885.50045  22087141.4614                   22087141.7304
   3828186.86747   3014542.25445  22205664.9614                   22205664.5864
 -14220147.39848 -11044796.05946  20318681.6564                   20318680.8834
   9022771.47347   7080117.34844  22996202.4774                   22996203.9574
  -4603278.58647  -3555018.35544  22823603.7734                   22823602.1214
  44122554.12146  34435871.42243  23947902.3284                   23947908.2664
 -13450506.98048 -10449059.71146  21287490.6724                   21287488.3714
 11  7 25 21 51  0.0000000  0  8G17G24G07G08G26G11G04G28
  -7516803.42248  -5804272.69546  20875916.1954                   20875914.5984
  -7467827.26647  -5773343.96545  22067736.7504                   22067736.6684
   3780033.80547   2977020.28145  22196501.7664                   22196501.6134
 -14314022.23448 -11117945.31646  20300817.8834                   20300816.8094
   8923289.17647   7002598.59444  22977272.0004                   22977273.2194
  -4662805.26647  -3601402.81644  22812276.7034                   22812275.1804
  43866156.25447  34236081.20343  23899110.9534                   23899116.1254
 -13610587.48448 -10573797.74646  21257028.9694                   21257026.3714
 11  7 25 21 51 30.0000000  0  8G17G24G07G08G26G11G04G28
  -7687095.89148  -5936968.09446  20843510.6024                   20843509.1334
  -7569239.98047  -5852366.88745  22048438.8674                   22048438.8524
   3732220.82047   2939763.29345  22187403.2584                   22187403.4774
 -14407312.21948 -11190638.84846  20283065.4384                   20283064.5084
   8824288.69547   6925455.31644  22958432.6174                   22958433.9344
  -4721945.84047  -3647486.40244  22801022.1024                   22801020.8134
  43609786.79746  34036313.16043  23850324.0314                   23850330.9494
 -13770570.19548 -10698459.59446  21226584.9534                   21226582.4734
 11  7 25 21 52  0.0000000  0  8G17G24G07G08G26G11G04G28
  -6281591.47948  -4841769.83046  21110969.4694                   21110967.6334
  -6094672.35147  -4703353.14545  22329039.4924                   22329040.0634
   5260166.15547   4130369.92445  22478161.8444                   22478161.7074
 -12924596.27948 -10035275.81046  20565216.9694                   20565216.6024
  10301189.51147   8076287.07644  23239477.2814                   23239479.1024
  -3205282.09147  -2465670.56944  23089633.4384                   23089633.2664
  44928876.09546  35064175.30243  24101338.8054                   24101345.0784
 -12355029.61748  -9595440.95446  21495953.3524                   21495950.9694
 11  7 25 21 52 30.0000000  0  8G17G24G07G08G26G11G04G28
  -6451141.09848  -4973886.37546  21078705.1174                   21078703.3284
  -6194971.24247  -4781508.12145  22309953.1334                   22309953.5394
   5213025.86747   4093637.12545  22469191.0704                   22469191.2504
 -13016720.16848 -10107060.69546  20547686.3594                   20547685.4304
  10203144.01247   7999887.92644  23220820.2274                   23220822.2774
  -3263658.76647  -2511158.89844  23078524.8364                   23078523.7034
  44672570.87146  34864457.25043  24052566.3674                   24052570.6524
 -12514814.45748  -9719948.61346  21465546.9614                   21465545.0594
 11  7 25 21 53  0.0000000  0  8G17G24G07G08G26G11G04G28
  -6620320.93448  -5105714.78546  21046510.9534                   21046509.6954
  -6294715.83647  -4859231.19145  22290972.5634                   22290972.1804
   5166218.17647   4057163.45745  22460284.5234                   22460284.5354
 -13108263.28948 -10178393.03546  20530266.2814                   20530265.2154
  10105571.32047   7923857.20744  23202253.0864                   23202254.2154
  -3321658.12547  -2556353.25044  23067487.8594                   23067487.0594
  44416301.24246  34664766.93843  24003798.4064                   24003804.0944
 -12674499.95348  -9844378.85246  21435159.7194                   21435157.7344
 11  7 25 21 53 30.0000000  0  8G17G24G07G08G26G11G04G28
  -6789132.18048  -5237255.98846  21014387.1804                   21014385.5004
  -6393908.14147  -4936523.89145  22272096.8674                   22272097.1174
   5119740.02747   4020946.60945  22451439.8674                   22451439.8134
 -13199227.05548 -10249273.93446  20512956.7344                   20512955.6764
  10008468.23047   7848192.42244  23183774.9454                   23183776.4264
  -3379283.27347  -2601255.98844  23056523.1414                   23056521.5474
  44160069.48046  34465106.17243  23955038.1334                   23955044.1914
 -12834085.21548  -9968731.00046  21404791.9924                   21404789.6174
 11  7 25 21 54  0.0000000  0  8G17G24G07G08G26G11G04G28
  -6957576.87548  -5368511.56646  20982333.2114                   20982331.6644
  -6492550.77747  -5013388.28145  22253325.8674                   22253325.8444
   5073588.07047   3984983.91445  22442657.9614                   22442657.7154
 -13289613.94948 -10319705.32046  20495756.3364                   20495755.5664
   9911830.89547   7772890.54345  23165385.2504                   23165387.3134
  -3436537.93047  -2645870.05944  23045627.3444                   23045626.1054
  43903876.76246  34265475.77743  23906287.1024                   23906292.4574
 -12993571.19948 -10093005.78946  21374442.7504                   21374440.5744
 11  7 25 21 54 30.0000000  0  8G17G24G07G08G26G11G04G28
  -7125660.19148  -5499485.55546  20950347.7194                   20950346.5084
  -6590649.37547  -5089828.76245  22234658.7584                   22234658.4924
   5027755.35547   3949269.99245  22433935.7114                   22433936.3404
 -13379429.15248 -10389691.23046  20478665.2424                   20478664.6254
   9815651.91447   7697945.84045  23147083.6484                   23147084.7734
  -3493429.31646  -2690201.02744  23034801.2664                   23034799.6724
  43647721.34846  34065874.48843  23857542.0634                   23857547.5474
 -13152961.22748 -10217205.81246  21344111.9064                   21344109.7114
 11  7 25 21 55  0.0000000  0  8G17G24G07G08G26G11G04G28
  -7293382.24648  -5630178.02746  20918431.6484                   20918430.1764
  -6688204.71947  -5165845.92645  22216093.9454                   22216093.9264
   4982240.23447   3913803.53545  22425274.6484                   22425274.8524
 -13468673.25048 -10459232.13746  20461682.7344                   20461681.8134
   9719929.61747   7623356.99244  23128867.8754                   23128869.5554
  -3549959.28547  -2734250.41044  23024044.0634                   23024043.1254
  43391606.83646  33866305.04743  23808804.2194                   23808809.6764
 -13312253.84848 -10341329.94146  21313799.5314                   21313797.1994
 11  7 25 21 55 30.0000000  0  8G17G24G07G08G26G11G04G28
  -7460738.99648  -5760585.85246  20886585.0164                   20886583.2504
  -6785213.59447  -5241437.27745  22197634.1094                   22197634.0944
   4937045.38347   3878586.63345  22416674.2814                   22416674.2894
 -13557342.50048 -10528325.10546  20444809.6094                   20444808.7894
   9624665.83647   7549125.41045  23110739.8594                   23110741.7114
  -3606125.79346  -2778016.57044  23013356.0084                   23013355.0514
  43135540.56646  33666773.21943  23760077.0784                   23760082.0044
 -13471443.65648 -10465373.94546  21283506.8284                   21283503.9804
 11  7 25 21 56  0.0000000  0  8G17G24G07G08G26G11G04G28
  -7627732.34848  -5890710.51646  20854806.8914                   20854805.2974
  -6881678.89847  -5316605.06245  22179277.3984                   22179277.4064
   4892167.08247   3843616.40645  22408134.4064                   22408135.0664
 -13645439.61348 -10596972.24246  20428045.4924                   20428044.5664
   9529856.45747   7475247.93444  23092698.2814                   23092699.5704
  -3661932.76247  -2821502.53944  23002736.9774                   23002735.7274
  42879524.07846  33467280.20743  23711357.7424                   23711364.1254
 -13630530.94148 -10589338.06246  21253233.5234                   21253230.8714
 11  7 25 21 56 30.0000000  0  8G17G24G07G08G26G11G04G28
  -7794362.47348  -6020552.13346  20823098.2504                   20823096.9384
  -6977601.51247  -5391349.96545  22161023.5704                   22161023.5514
   4847603.63747   3808891.49245  22399654.3204                   22399655.3164
 -13732965.16448 -10665174.02346  20411389.7504                   20411388.6684
   9435499.42247   7401722.89844  23074743.0864                   23074744.3674
  -3717382.05547  -2864709.83244  22992184.8284                   22992183.4224
  42623560.58247  33267828.45343  23662649.8914                   23662655.5394
 -13789514.14548 -10713221.08246  21222979.8984                   21222977.4844
 11  7 25 21 57  0.0000000  0  8G17G24G07G08G26G11G04G28
  -7960627.55148  -6150109.30546  20791459.0944                   20791457.4304
  -7072980.21148  -5465671.04745  22142874.2504                   22142873.5514
   4803355.13747   3774412.00445  22391234.2034                   22391234.6684
 -13819917.91048 -10732929.44946  20394843.1644                   20394842.4104
   9341594.32447   7328550.05944  23056873.9224                   23056874.2774
  -3772474.10547  -2907638.70744  22981701.4144                   22981699.0274
  42367655.29746  33068422.08643  23613951.6644                   23613957.6484
 -13948389.97348 -10837020.43446  21192746.9064                   21192744.3634
 11  7 25 21 57 30.0000000  0  8G17G24G07G08G26G11G04G28
  -8126534.07448  -6279387.08246  20759887.8754                   20759886.3794
  -7167821.96947  -5539573.73445  22124826.2664                   22124826.7544
   4759414.12147   3740172.10945  22382872.7274                   22382873.0474
 -13906304.21548 -10800243.49246  20378404.4304                   20378403.5984
   9248132.93047   7255722.93844  23039087.9454                   23039089.5904
  -3827216.66847  -2950295.27344  22971284.3054                   22971282.0664
  42111805.71546  32869059.11343  23565265.4534                   23565270.6844
 -14107162.70348 -10960739.45346  21162533.2664                   21162531.2774
 11  7 25 21 58  0.0000000  0  8G17G24G07G08G26G11G04G28
  -6716658.22348  -5180782.50846  21028178.8754                   21028176.8094
  -5686706.02047  -4385457.43445  22406673.2034                   22406673.1884
   6291198.23447   4933770.01245  22674361.7274                   22674361.7584
 -12416703.52748  -9639515.72746  20661866.4384                   20661865.3134
  10730534.66847   8410841.11744  23321179.8284                   23321180.7304
  -2306191.81647  -1765081.12544  23260725.3984                   23260723.7234
  43431441.90646  33897347.36743  23816383.4224                   23816389.2544
 -12690407.46148  -9856774.33246  21432132.8444                   21432130.7854
 11  7 25 21 58 30.0000000  0  8G17G24G07G08G26G11G04G28
  -6881862.18048  -5309512.82046  20996740.9614                   20996739.7624
  -5780490.64147  -4458536.37545  22388826.5004                   22388826.2344
   6247852.08247   4899993.64845  22666112.7974                   22666113.0904
 -12501973.28948  -9705959.74246  20645640.1334                   20645639.1884
  10637940.19147   8338689.51645  23303559.2664                   23303561.9024
  -2360256.19147  -1807209.23444  23250437.6564                   23250435.5274
  43175699.21147  33698067.68843  23767717.1094                   23767722.3324
 -12848984.35248  -9980340.74246  21401956.6954                   21401954.6604
 11  7 25 21 59  0.0000000  0  8G17G24G07G08G26G11G04G28
  -7046720.20748  -5437973.60246  20965369.6414                   20965367.7854
  -5873753.53948  -4531208.78945  22371079.3054                   22371079.0474
   6204795.53947   4866442.95345  22657920.0474                   22657920.3594
 -12586691.01648  -9771973.59846  20629518.5164                   20629517.7034
  10545770.39547   8266868.80144  23286020.5944                   23286021.9774
  -2413989.77047  -1849079.56644  23240211.8134                   23240210.7384
  42920009.88347  33498829.54743  23719061.2274                   23719065.0784
 -13007465.88348 -10103832.84846  21371798.7114                   21371796.2934
 11  7 25 21 59 30.0000000  0  8G17G24G07G08G26G11G04G28
  -7211227.28948  -5566160.91046  20934064.9774                   20934063.2734
  -5966490.27048  -4603471.17645  22353431.8914                   22353431.6994
   6162032.70347   4833121.12545  22649782.2734                   22649782.9144
 -12670851.98048  -9837553.61346  20613503.3054                   20613502.4494
  10454028.70747   8195381.71144  23268562.4844                   23268565.5554
  -2467388.97347  -1890689.36344  23230051.0314                   23230049.8954
  42664382.66847  33299639.82843  23670416.4454                   23670421.6254
 -13165845.26248 -10227245.34046  21341660.3284                   21341657.8634
 11  7 25 22  0  0.0000000  0  8G17G24G07G08G26G11G04G28
  -7375385.17248  -5694076.12146  20902826.9534                   20902825.4774
  -6058703.09047  -4675325.35545  22335884.4844                   22335884.6294
   6119559.68847   4800025.14145  22641700.4844                   22641700.7584
 -12754458.46148  -9902701.55546  20597593.7664                   20597592.9774
  10362711.33647   8124225.25044  23251185.2034                   23251187.2734
  -2520457.48047  -1932041.45744  23219952.1094                   23219950.6374
  42408819.51246  33100500.04343  23621784.0084                   23621788.2464
 -13324122.50048 -10350578.25046  21311541.0784                   21311538.7704
 11  7 25 22  0 30.0000000  0  8G17G24G07G08G26G11G04G28
  -7539198.43048  -5821722.79346  20871654.0004                   20871652.6604
  -6150397.50047  -4746775.56245  22318435.5004                   22318435.9024
   6077370.44947   4767150.25045  22633671.5864                   22633672.3404
 -12837515.35948  -9967421.26646  20581788.2814                   20581787.4064
  10271811.54747   8053394.16444  23233887.5784                   23233889.8794
  -2573201.53947  -1973140.75844  23209915.6724                   23209913.8794
  42153319.26646  32901409.19543  23573163.6484                   23573167.8524
 -13482300.56248 -10473833.89146  21281440.7894                   21281438.5784
 11  7 25 22  1  0.0000000  0  8G17G24G07G08G26G11G04G28
  -7702680.14548  -5949111.12946  20840544.3204                   20840542.7154
  -6241587.41047  -4817832.66445  22301082.7504                   22301082.5554
   6035450.72347   4734485.37545  22625695.1724                   22625695.9384
 -12920036.39148 -10031723.41446  20566084.8914                   20566084.2814
  10181314.27747   7982876.70344  23216666.2894                   23216668.3984
  -2625636.48847  -2013999.21944  23199938.1564                   23199935.5004
  41897872.70346  32702360.22343  23524553.2974                   23524557.3244
 -13640390.52748 -10597020.87546  21251357.2114                   21251354.4844
 11  7 25 22  1 30.0000000  0  8G17G24G07G08G26G11G04G28
  -7865822.66048  -6076235.15246  20809499.6094                   20809498.1024
  -6332266.12547  -4888491.43745  22283827.2974                   22283827.0554
   5993806.63747   4702035.28145  22617770.7974                   22617771.3874
 -13002014.61748 -10095602.59046  20550485.2974                   20550484.3404
  10091225.13347   7912677.30544  23199523.2344                   23199525.3524
  -2677756.14847  -2054611.97743  23190019.7664                   23190017.4184
  41642490.84846  32503361.67243  23475955.6024                   23475959.8914
 -13798382.79348 -10720131.73446  21221292.3444                   21221289.8874
 11  7 25 22  2  0.0000000  0  8G17G24G07G08G26G11G04G28
  -8028633.93748  -6203101.07846  20778517.4064                   20778515.8014
  -6422442.49247  -4958758.75845  22266667.4144                   22266667.3984
   5952427.98447   4669792.02745  22609896.2894                   22609897.6454
 -13083458.53948 -10159065.42246  20534986.8364                   20534986.2854
  10001533.96947   7842787.97744  23182456.1174                   23182457.5004
  -2729570.60247  -2094986.91843  23180159.1094                   23180157.4574
  41387169.19146  32304410.01243  23427369.6954                   23427373.7074
 -13956283.98448 -10843171.62546  21191244.4064                   21191242.4184
 11  7 25 22  2 30.0000000  0  8G17G24G07G08G26G11G04G28
  -8191109.02048  -6329705.02746  20747599.7034                   20747598.1764
  -6512112.47347  -5028631.50045  22249603.2424                   22249604.1294
   5911318.41447   4637758.43045  22602074.0084                   22602074.9844
 -13164364.10948 -10222108.77746  20519591.4224                   20519590.8754
   9912243.42247   7773210.83244  23165463.8284                   23165465.7894
  -2781076.40247  -2135121.32043  23170358.1334                   23170356.1994
  41131916.48447  32105512.06643  23378795.7734                   23378800.4224
 -14114087.42648 -10966135.34046  21161215.8984                   21161213.3364
 11  7 25 22  3  0.0000000  0  8G17G24G07G08G26G11G04G28
  -8353256.35248  -6456053.58246  20716744.1724                   20716742.7114
  -6601285.03947  -5098116.64145  22232634.8444                   22232635.0984
   5870468.17247   4605926.90645  22594301.0474                   22594300.9614
 -13244740.22748 -10284739.56646  20504296.3134                   20504295.4534
   9823343.39847   7703938.00844  23148546.8204                   23148549.6054
  -2832284.03947  -2175023.45343  23160613.4064                   23160612.3794
  40876728.06646  31906664.25843  23330235.6484                   23330239.9184
 -14271799.07448 -11089027.53146  21131204.0864                   21131201.8324
 11  7 25 22  3 30.0000000  0  8G17G24G07G08G26G11G04G28
  -6939648.21948  -5354540.73846  20985744.6414                   20985743.0084
  -5114535.73847  -3939610.73045  22515554.0234                   22515553.9494
   7405299.56347   5801899.24245  22886369.7034                   22886370.6374
 -11749161.91848  -9119353.92246  20788895.6254                   20788894.9264
  11310257.08247   8862571.94144  23431497.3134                   23431499.4104
  -1307771.10246   -987091.30943  23450719.0554                   23450716.9184
  42197038.60547  32935477.92643  23581482.2664                   23581485.8794
 -12853989.71548  -9984241.02046  21401003.9614                   21401001.8754
 11  7 25 22  4  0.0000000  0  8G17G24G07G08G26G11G04G28
  -7101132.18048  -5480372.37146  20955015.5314                   20955013.9694
  -5202708.39147  -4008316.71545  22498775.4844                   22498775.1524
   7364971.45747   5770474.57445  22878695.2664                   22878696.5904
 -11828472.54748  -9181154.46546  20773803.0704                   20773802.8404
  11222139.77747   8793909.03144  23414729.4144                   23414730.7424
  -1358379.59446  -1026526.48443  23441088.1334                   23441086.9774
  41941997.86747  32736745.17644  23532948.9144                   23532953.4384
 -13011504.78548 -10106980.03146  21371030.2974                   21371027.6484
 11  7 25 22  4 30.0000000  0  8G17G24G07G08G26G11G04G28
  -7262277.01648  -5605939.76646  20924350.6174                   20924348.5864
  -5290375.07047  -4076628.44145  22482092.6094                   22482093.3014
   7324909.40647   5739257.25045  22871072.1174                   22871072.7154
 -11907244.18048  -9242535.00446  20758813.5234                   20758812.8014
  11134418.09047   8725554.37944  23398036.4694                   23398038.5984
  -1408683.91847  -1065724.72343  23431516.2274                   23431514.9184
  41687043.63347  32538079.82444  23484432.7664                   23484437.1604
 -13168911.13348 -10229634.32846  21341076.5634                   21341074.2624
 11  7 25 22  5  0.0000000  0  8G17G24G07G08G26G11G04G28
  -7423079.15248  -5731240.10946  20893750.9224                   20893749.2274
  -5377532.98847  -4144543.73045  22465506.8444                   22465507.5554
   7285115.35247   5708248.71145  22863500.3134                   22863501.0124
 -11985473.55948  -9303493.01246  20743926.8834                   20743926.1254
  11047093.26647   8657508.96544  23381419.4454                   23381420.7734
  -1458682.35547  -1104684.57443  23422001.8364                   23421999.8794
  41432183.36347  32339487.64544  23435934.7894                   23435938.2274
 -13326203.65248 -10352199.92646  21311144.6884                   21311142.7424
 11  7 25 22  5 30.0000000  0  8G17G24G07G08G26G11G04G28
  -7583545.02748  -5856278.42646  20863215.1094                   20863213.5394
  -5464189.45747  -4212068.29745  22449017.1724                   22449017.7074
   7245581.51247   5677442.96945  22855977.0474                   22855977.4844
 -12063167.69148  -9364033.94546  20729142.2344                   20729142.0044
  10960157.17647   8589766.50443  23364874.8914                   23364877.5204
  -1508382.79347  -1143412.26243  23412543.5634                   23412542.5664
  41177414.60247  32140966.80944  23387452.9694                   23387457.1254
 -13483386.48848 -10474680.04746  21281234.1884                   21281231.6914
 11  7 25 22  6  0.0000000  0  8G17G24G07G08G26G11G04G28
  -7743665.24648  -5981047.40646  20832745.4064                   20832743.3094
  -5550335.64147  -4279195.19544  22432623.3834                   22432624.0864
   7206315.81647   5646846.14545  22848504.5004                   22848505.6724
 -12140317.85948  -9424151.01246  20714461.3054                   20714460.5004
  10873617.25846   8522332.70744  23348407.3594                   23348409.9064
  -1557777.43447  -1181901.59843  23403144.8674                   23403143.1024
  40922750.31347  31942527.36744  23338992.0234                   23338995.9454
 -13640448.17648 -10597065.77746  21251346.3524                   21251343.6334
 11  7 25 22  6 30.0000000  0  8G17G24G07G08G26G11G04G28
  -7903433.20748  -6105541.89546  20802342.3754                   20802340.8954
  -5635965.88747  -4345920.07845  22416328.9224                   22416328.7974
   7167323.28147   5616462.17245  22841085.0394                   22841086.4024
 -12216918.57848  -9483839.93746  20699884.3834                   20699884.0984
  10787477.80546   8455210.98043  23332015.5944                   23332018.2934
  -1606861.60946  -1220149.00443  23393803.7664                   23393803.1134
  40668201.02347  31744177.53144  23290552.5234                   23290555.8634
 -13797380.26647 -10719350.52046  21221483.1414                   21221481.0744
 11  7 25 22  7  0.0000000  0  8G17G24G07G08G26G11G04G28
  -8062840.94948  -6229755.69146  20772007.8204                   20772005.9534
  -5721073.62147  -4412237.82844  22400133.1024                   22400133.3284
   7128609.92247   5586295.77044  22833717.7274                   22833719.2814
 -12292962.64148  -9543095.10546  20685413.4774                   20685413.6884
  10701744.42246   8388405.66844  23315702.1564                   23315703.3404
  -1655629.37547  -1258149.88344  23384524.2894                   23384522.9344
  40413778.19947  31545926.20344  23242137.1564                   23242141.1884
 -13954173.19148 -10841526.82846  21191646.1804                   21191644.0554
 11  7 25 22  7 30.0000000  0  8G17G24G07G08G26G11G04G28
  -8221896.05148  -6353694.70746  20741740.8054                   20741739.0554
  -5805667.14847  -4478154.90644  22384036.1954                   22384035.6484
   7090167.16047   5556340.19144  22826402.4924                   22826404.2154
 -12368458.03548  -9601922.74646  20671047.4924                   20671047.2114
  10616407.79746   8321909.53944  23299463.0394                   23299464.7424
  -1704089.55147  -1295911.12544  23375302.1254                   23375301.7154
  40159478.04347  31347770.50443  23193745.4534                   23193748.6484
 -14110832.11748 -10963598.71146  21161835.1414                   21161832.8444
 11  7 25 22  8  0.0000000  0  8G17G24G07G08G26G11G04G28
  -8380586.38748  -6477349.48446  20711543.0164                   20711541.5634
  -5889735.39847  -4543662.66845  22368038.1954                   22368038.6024
   7052005.54747   5526603.68044  22819140.1804                   22819142.1994
 -12443393.58248  -9660314.13746  20656787.7664                   20656787.5164
  10531477.90647   8255730.32044  23283301.5784                   23283303.0664
  -1752232.25846  -1333424.96943  23366141.3054                   23366139.8524
  39905316.45347  31149722.75444  23145380.1954                   23145383.3094
 -14267342.89848 -11085555.16446  21132051.4304                   21132049.7704
 11  7 25 22  8 30.0000000  0  8G17G24G07G08G26G11G04G28
  -8538916.23448  -6600723.37946  20681413.8444                   20681412.2584
  -5973283.42247  -4608765.04745  22352139.8594                   22352139.9574
   7014119.19147   5497081.66044  22811931.9534                   22811933.3834
 -12517773.93448  -9718272.91046  20642634.0944                   20642633.5314
  10446948.48847   8189863.16844  23267216.9384                   23267218.3094
  -1800063.27346  -1370695.92644  23357038.4064                   23357038.6294
  39651293.23047  30951782.75844  23097041.0944                   23097043.9494
 -14423707.83248 -11207397.96946  21102296.3284                   21102294.4224
 11  7 25 22  9  0.0000000  0  8G17G24G07G08G26G11G04G28
  -7121449.59448  -5496203.90646  20951148.8594                   20951147.3794
  -4480878.55147  -3445852.16444  22636134.6884                   22636134.8874
   8551938.66047   6695382.35244  23104569.2974                   23104570.3914
 -11016167.10248  -8548189.71946  20928380.1644                   20928379.8594
  11938250.94946   9351916.97344  23551002.0634                   23551002.7234
   -272151.91046   -180115.70343  23647791.0784                   23647789.8444
  40972851.19147  31981568.44544  23348525.0394                   23348527.8634
 -13004488.75848 -10101512.97746  21372364.9924                   21372362.9224
 11  7 25 22  9 30.0000000  0  8G17G24G07G08G26G11G04G28
  -7279040.21148  -5619001.77046  20921160.2584                   20921158.5594
  -4563370.55547  -3510131.64844  22620436.6024                   22620436.7934
   8514616.69947   6666300.10945  23097467.3444                   23097468.5984
 -11089422.12948  -8605271.61346  20914440.3364                   20914439.8794
  11854534.42646   9286683.27044  23535070.9534                   23535072.8014
   -319346.26646   -216890.61744  23638810.3984                   23638809.8834
  40719134.00047  31783866.96944  23300244.3834                   23300246.7624
 -13160537.52048 -10223109.41046  21342670.0234                   21342667.9454
 11  7 25 22 10  0.0000000  0  8G17G24G07G08G26G11G04G28
  -7436258.92648  -5741509.83646  20891242.2114                   20891240.5164
  -4645333.92647  -3573999.22344  22604839.4064                   22604839.8794
   8477576.69947   6637437.59444  23090418.5164                   23090420.1764
 -11162113.21148  -8661914.07446  20900607.5474                   20900607.4024
  11771223.37547   9221765.50044  23519218.0314                   23519218.5864
   -366222.32446   -253417.50044  23629889.5314                   23629889.3164
  40465577.90647  31586291.03543  23251992.9454                   23251996.7194
 -13316423.19148 -10344578.77346  21313005.8594                   21313004.1174
 11  7 25 22 10 30.0000000  0  8G17G24G07G08G26G11G04G28
  -7593104.68448  -5863727.29346  20861395.7584                   20861394.1174
  -4726768.72747  -3637454.94545  22589343.3674                   22589343.9614
   8440818.13747   6608794.34845  23083424.4144                   23083425.3984
 -11234239.95748  -8718116.79346  20886882.6484                   20886882.2384
  11688316.62147   9157162.77744  23503441.4224                   23503441.6954
   -412781.33646   -289697.31644  23621030.2274                   23621029.4454
  40212187.60247  31388844.28144  23203774.7974                   23203777.8524
 -13472142.13348 -10465918.21546  21283373.6334                   21283371.3404
 11  7 25 22 11  0.0000000  0  8G17G24G07G08G26G11G04G28
  -7749578.10548  -5985654.62146  20831619.7504                   20831618.0354
  -4807676.41447  -3700499.92644  22573947.6334                   22573947.2194
   8404339.48847   6580369.23044  23076482.7504                   23076483.9384
 -11305803.65648  -8773880.76646  20873264.3054                   20873263.7034
  11605811.59447   9092873.07444  23487740.9924                   23487742.7624
   -459025.39847   -325731.73443  23612230.8754                   23612229.9804
  39958966.68047  31191529.53544  23155588.1334                   23155591.2624
 -13627693.03548 -10587126.71546  21253773.0864                   21253771.4224
 11  7 25 22 11 30.0000000  0  8G17G24G07G08G26G11G04G28
  -7905672.58248  -6107286.66446  20801915.4534                   20801914.4924
  -4888051.41447  -3763129.81245  22558652.6484                   22558652.8484
   8368145.50447   6552165.94545  23069594.7894                   23069596.9494
 -11376798.96948  -8829201.83246  20859754.5704                   20859754.0124
  11523713.03947   9028900.09444  23472118.1884                   23472119.8324
   -504949.44147   -361516.74244  23603491.6644                   23603490.4804
  39705925.30947  30994354.66044  23107435.1024                   23107438.8634
 -13783067.00848 -10708197.35546  21224206.3444                   21224204.2664
 11  7 25 22 12  0.0000000  0  8G17G24G07G08G26G11G04G28
  -8061391.10548  -6228625.76646  20772283.8984                   20772282.0234
  -4967897.62547  -3825347.66845  22543458.6644                   22543459.1374
   8332231.71147   6524180.96545  23062760.5394                   23062762.8634
 -11447229.46148  -8884082.79746  20846352.1024                   20846351.6414
  11442015.73447   8965239.76644  23456572.2664                   23456573.5554
   -550557.88347   -397055.85543  23594812.3594                   23594811.5554
  39453064.44547  30797320.46544  23059317.5004                   23059321.2424
 -13938264.95748 -10829130.81246  21194673.4844                   21194671.5474
 11  7 25 22 12 30.0000000  0  8G17G24G07G08G26G11G04G28
  -8216738.16848  -6349675.41846  20742722.3674                   20742720.7854
  -5047220.32447  -3887157.57045  22528363.8444                   22528364.4454
   8296592.34447   6496409.81645  23055979.1094                   23055981.5204
 -11517100.34048  -8938527.69946  20833055.9694                   20833055.5824
  11360713.23447   8901887.12944  23441100.2894                   23441102.4694
   -595857.07847   -432353.99643  23586192.8364                   23586191.3284
  39200383.71147  30600426.60544  23011233.7344                   23011237.8054
 -14093289.45748 -10949929.13346  21165173.2114                   21165171.5594
 11  7 25 22 13  0.0000000  0  8G17G24G07G08G26G11G04G28
  -8371697.09848  -6470422.62146  20713234.3674                   20713233.0904
  -5126004.09447  -3948547.53944  22513371.6414                   22513372.0434
   8261242.43047   6468864.23844  23049252.9844                   23049254.0864
 -11586396.39848  -8992524.68446  20819869.2814                   20819868.5594
  11279819.97747   8838853.32844  23425707.1024                   23425709.1764
   -640832.13747   -467399.52743  23577633.4534                   23577631.7504
  38947903.44147  30403688.94544  22963188.8524                   22963191.6454
 -14248121.48848 -11070577.46546  21135709.8594                   21135707.4384
 11  7 25 22 13 30.0000000  0  8G17G24G07G08G26G11G04G28
  -8526270.50848  -6590869.41446  20683820.2034                   20683818.0314
  -5204252.62147  -4009520.42644  22498481.5234                   22498481.9694
   8226177.61747   6441540.80544  23042579.9924                   23042581.8594
 -11655120.58648  -9046076.05946  20806791.4694                   20806791.5204
  11199331.03147   8776134.60544  23410390.9694                   23410392.8484
   -685487.35947   -502195.85543  23569136.1954                   23569135.1764
  38695624.90647  30207108.49244  22915181.0554                   22915184.1994
 -14402761.52748 -11191076.19146  21106282.8524                   21106280.1024
 11  7 25 22 14  0.0000000  0  8G17G24G07G08G26G11G04G28
  -8680459.98448  -6711017.04346  20654479.0234                   20654477.2704
  -5281968.62547  -4070078.36745  22483692.4224                   22483692.9804
   8191394.91447   6414437.19544  23035961.7194                   23035963.2234
 -11723275.66048  -9099183.97746  20793822.2114                   20793822.1214
  11119242.83647   8713728.16444  23395150.1094                   23395153.1414
   -729825.80146   -536745.27743  23560698.9534                   23560697.4414
  38443550.40647  30010687.00444  22867213.3054                   22867216.7114
 -14557209.14548 -11311424.99246  21076892.6024                   21076890.0434
 11  7 25 22 14 30.0000000  0  8G17G24G07G08G26G11G04G28
  -7258828.67648  -5603252.37146  20925006.4224                   20925004.5664
  -3783718.65247  -2902610.90645  22768799.7504                   22768800.6054
   9732326.62547   7615163.02744  23329191.0944                   23329192.3834
 -10215428.21548  -7924237.97346  21080755.7424                   21080756.1134
  12614987.81347   9879243.64544  23679781.7504                   23679783.4844
    801584.19147    656561.21143  23852116.7114                   23852115.0234
  39767124.03547  31042043.28144  23119080.5234                   23119083.9384
 -13136024.77348 -10204008.60546  21347334.7814                   21347332.8714
 11  7 25 22 15  0.0000000  0  8G17G24G07G08G26G11G04G28
  -7412233.54348  -5722788.60946  20895814.4224                   20895812.3014
  -3860355.59047  -2962328.03145  22754216.6724                   22754216.6374
   9698121.06347   7588509.12544  23322681.7894                   23322684.4304
 -10282430.78548  -7976447.83246  21068006.0634                   21068005.9344
  12535711.44547   9817469.79344  23664695.5864                   23664698.3984
    757890.99246    622514.50443  23843801.7664                   23843800.8014
  39515486.27047  30845962.11344  23071194.5164                   23071197.8284
 -13290063.75048 -10324038.98446  21318022.2894                   21318020.4804
 11  7 25 22 15 30.0000000  0  8G17G24G07G08G26G11G04G28
  -7565243.32448  -5842017.00046  20866697.5394                   20866695.8324
  -3936451.64547  -3021623.68444  22739736.2974                   22739736.6454
   9664204.44947   7562080.39544  23316228.4384                   23316229.4804
 -10348855.70748  -8028207.57846  21055365.7814                   21055365.9614
  12456840.99247   9756012.18044  23649687.1884                   23649689.4304
    714520.93047    588719.61343  23835548.3594                   23835547.2704
  39264075.52047  30650057.80544  23023353.4694                   23023356.1054
 -13443892.19148 -10443905.30546  21288749.5784                   21288747.5204
 11  7 25 22 16  0.0000000  0  8G17G24G07G08G26G11G04G28
  -7717865.77348  -5960943.56646  20837654.4694                   20837652.9454
  -4012015.70347  -3080504.80944  22725356.8674                   22725357.3164
   9630567.59447   7535869.64844  23309828.2974                   23309829.9384
 -10414711.57048  -8079523.89546  21042834.0864                   21042833.6994
  12378366.30147   9694862.99244  23634753.7344                   23634756.3284
    671464.68846    555169.21543  23827356.5944                   23827354.2624
  39012888.21947  30454327.62944  22975553.2664                   22975556.8324
 -13597515.78148 -10563612.00846  21259515.7194                   21259513.9614
 11  7 25 22 16 30.0000000  0  8G17G24G07G08G26G11G04G28
  -7870100.61748  -6079568.10246  20808684.8364                   20808683.2704
  -4087048.88347  -3138972.22744  22711078.8914                   22711078.0744
   9597208.96947   7509875.70344  23303480.0784                   23303481.5704
 -10479999.28148  -8130397.51246  21030409.7274                   21030409.7734
  12300285.63347   9634020.82044  23619895.6094                   23619898.6094
    628720.45346    521862.02743  23819222.5004                   23819220.9694
  38761928.14147  30258774.49244  22927797.7584                   22927800.2854
 -13750932.03948 -10683157.14846  21230321.9304                   21230319.5944
 11  7 25 22 17  0.0000000  0  8G17G24G07G08G26G11G04G28
  -8021948.70748  -6197891.27746  20779789.0234                   20779787.7704
  -4161552.93747  -3197027.32044  22696900.5164                   22696901.0664
   9564126.62547   7484097.06344  23297184.1094                   23297186.0594
 -10544720.67247  -8180829.83246  21018094.2194                   21018094.1214
  12222596.05947   9573483.39144  23605112.0634                   23605115.0274
    586286.14846    488796.27343  23811146.3054                   23811145.5594
  38511198.50047  30063400.92644  22880085.3674                   22880087.5634
 -13904139.43748 -10802539.53946  21201167.4534                   21201165.0394
 11  7 25 22 17 30.0000000  0  8G17G24G07G08G26G11G04G28
  -8173412.40648  -6315914.91446  20750966.5314                   20750964.8284
  -4235531.54747  -3254673.02344  22682823.0164                   22682823.4494
   9531316.80547   7458530.75044  23290940.6254                   23290942.9774
 -10608879.15648  -8230823.52746  21005884.8444                   21005885.0944
  12145292.72347   9513246.92244  23590400.8914                   23590403.9414
    544157.86346    455968.98443  23803130.6024                   23803129.1254
  38260701.02747  29868208.25844  22832417.0474                   22832419.4694
 -14057138.50848 -10921759.60546  21172052.6564                   21172050.3484
 11  7 25 22 18  0.0000000  0  8G17G24G07G08G26G11G04G28
  -8324492.18748  -6433639.41446  20722217.2664                   20722215.6334
  -4308986.00447  -3311910.30944  22668845.0634                   22668844.8554
   9498777.33647   7433175.07844  23284749.7274                   23284751.6764
 -10672475.66448  -8280379.32046  20993783.3674                   20993783.7034
  12068373.33247   9453309.62944  23575764.4224                   23575767.0394
    502333.50446    423378.50843  23795170.9774                   23795170.6484
  38010439.18447  29673199.19944  22784794.0164                   22784795.8954
 -14209926.90248 -11040815.50446  21142978.0084                   21142975.8834
 11  7 25 22 18 30.0000000  0  8G17G24G07G08G26G11G04G28
  -8475185.78548  -6551062.96547  20693541.0394                   20693539.6024
  -4381915.10947  -3368738.24244  22654966.8284                   22654967.4574
   9466509.16447   7408030.85544  23278609.0084                   23278609.9924
 -10735509.28148  -8329496.49646  20981788.4224                   20981788.3244
  11991838.43847   9393671.96144  23561200.5164                   23561203.0554
    460813.69146    391025.35943  23787269.5314                   23787269.5204
  37760419.25047  29478378.63744  22737216.7424                   22737219.1764
 -14362500.20748 -11159703.80946  21113944.3204                   21113942.1254
 11  7 25 22 19  0.0000000  0  8G17G24G07G08G26G11G04G28
  -8625500.41448  -6668191.23846  20664937.4384                   20664935.2114
  -4454327.13347  -3425163.20744  22641187.7814                   22641188.1524
   9434503.57847   7383091.18044  23272518.8594                   23272521.1764
 -10797987.86348  -8378181.17646  20969899.0314                   20969898.8714
  11915678.47347   9334326.42644  23546707.1484                   23546710.0744
    419589.86746    358902.85543  23779426.0004                   23779424.8324
  37510638.27347  29283744.28944  22689684.5554                   22689686.7544
 -14514863.00447 -11278428.07846  21084950.8204                   21084948.4614
 11  7 25 22 19 30.0000000  0  8G17G24G07G08G26G11G04G28
  -8775444.66048  -6785030.90246  20636403.8444                   20636402.3524
  -4526232.02747  -3481193.01244  22627504.5474                   22627504.9144
   9402750.45347   7358348.28144  23266476.0634                   23266478.6524
 -10859921.58648  -8426441.28946  20958113.5704                   20958113.6094
  11839882.60247   9275264.60244  23532284.1804                   23532286.5864
    378651.72347    327002.95343  23771635.8284                   23771634.7704
  37261091.23847  29089292.21144  22642197.3674                   22642199.5554
 -14667021.97748 -11396993.52746  21055995.6414                   21055993.6414
 11  7 25 22 20  0.0000000  0  9G17G24G07G08G26G11G04G27G28
  -7349600.75448  -5673983.68746  20907733.0314                   20907731.4654
  -3022215.68747  -2309232.23044  22913709.6724                   22913709.6054
  10946662.73047   8561396.54744  23560273.6954                   23560275.6254
  -9345896.41847  -7246681.48446  21246222.8364                   21246223.1094
  13339864.00846  10444081.16444  23817721.2114                   23817724.1884
   1913412.12547   1522920.12143  24063690.7734                   24063690.2274
  38587203.50847  30122626.61744  22894548.0164                   22894549.8524
  56306226.84846  43922701.99643  24931051.3674                   24931055.5824
 -13243556.76647 -10287799.86346  21326872.1954                   21326870.0164
 11  7 25 22 20 30.0000000  0  9G17G24G07G08G26G11G04G27G28
  -7498825.27348  -5790262.52746  20879336.2894                   20879334.7854
  -3093130.93447  -2364490.89844  22900214.5944                   22900214.7934
  10915389.45746   8537027.52344  23554320.8364                   23554324.3714
  -9406764.28948  -7294111.06646  21234640.2974                   21234640.5084
  13264768.80147  10385565.32044  23803431.4064                   23803433.4534
   1873019.52747   1491445.30943  24056004.5164                   24056003.3954
  38338115.48847  29928532.23844  22847147.2894                   22847149.6994
  56075923.50446  43743244.90243  24887226.0164                   24887228.9774
 -13395321.88348 -10406058.40246  21297992.3444                   21297989.9964
 11  7 25 22 21  0.0000000  0  9G17G24G07G08G26G11G04G27G28
  -7647697.52048  -5906266.85546  20851006.7734                   20851005.4614
  -3163560.32047  -2419370.94944  22886812.5784                   22886812.9454
  10884346.18046   8512837.71944  23548414.8524                   23548416.6294
  -9467108.26248  -7341132.40646  21223157.2974                   21223157.1134
  13190013.52747  10327314.34844  23789205.6414                   23789208.5664
   1832890.07047   1460175.57843  24048368.3674                   24048366.4804
  38089255.58647  29734615.58244  22799791.7034                   22799793.1804
  55845817.49646  43563941.56343  24843439.1644                   24843440.7464
 -13546894.07848 -10524166.62546  21269149.1954                   21269146.5234
 11  7 25 22 21 30.0000000  0  9G17G24G07G08G26G11G04G27G28
  -7796226.04748  -6022003.35546  20822742.8204                   20822740.9694
  -3233513.74647  -2473880.13744  22873500.9774                   22873501.1294
  10853522.67646   8488819.17244  23542549.7504                   23542551.8324
  -9526938.31648  -7387753.29746  21211772.1644                   21211772.2504
  13115587.09847  10269319.62144  23775043.3054                   23775046.0204
   1793013.40647   1429102.80943  24040779.8524                   24040779.0864
  37840618.99647  29540872.94544  22752476.8204                   22752479.2234
  55615903.45347  43384787.85243  24799688.0944                   24799689.6804
 -13698279.67648 -10642129.43446  21240341.3284                   21240339.2034
 11  7 25 22 22  0.0000000  0  9G17G24G07G08G26G11G04G27G28
  -7944405.67648  -6137467.97746  20794545.2974                   20794543.3014
  -3302986.67247  -2528014.94944  22860281.0234                   22860281.2384
  10822923.57846   8464975.45344  23536727.4144                   23536729.9184
  -9586249.85548  -7433970.14845  21200485.4064                   21200485.6764
  13041493.26247  10211584.06643  23760943.6564                   23760945.9574
   1753393.60547   1398230.23043  24033240.8284                   24033239.3284
  37592215.37547  29347311.84844  22705207.0394                   22705209.1914
  55386190.32847  43205790.62943  24755974.6884                   24755976.7384
 -13849470.77748 -10759940.68446  21211570.4924                   21211568.4264
 11  7 25 22 22 30.0000000  0  9G17G24G07G08G26G11G04G27G28
  -8092234.89548  -6252659.55946  20766414.3204                   20766412.4964
  -3371979.39547  -2581775.50844  22847151.6094                   22847152.0474
  10792548.02046   8441305.95344  23530945.9844                   23530949.7074
  -9645043.20748  -7479783.21946  21189297.5554                   21189297.4884
  12967730.69147  10154106.63744  23746907.1804                   23746909.2704
   1714030.14547   1367557.35243  24025749.5634                   24025748.8914
  37344049.72347  29153936.16844  22657983.4144                   22657985.3284
  55156682.34847  43026953.30544  24712301.8594                   24712302.7504
 -14000463.91047 -10877597.67646  21182837.5944                   21182835.3014
 11  7 25 22 23  0.0000000  0  9G17G24G07G08G26G11G04G27G28
  -8239719.87148  -6367582.89846  20738348.7034                   20738347.4344
  -3440498.82447  -2635167.27344  22834112.8914                   22834113.4574
  10762388.99246   8417805.18044  23525208.6564                   23525210.4184
  -9703325.06248  -7525197.71946  21178206.7274                   21178207.1294
  12894291.55547  10096881.24643  23732931.6094                   23732934.6844
   1674915.98446   1337078.81343  24018306.2894                   24018305.6024
  37096120.14847  28960744.46945  22610803.7424                   22610805.6994
  54927376.99647  42848273.89843  24668665.4384                   24668667.2894
 -14151262.78148 -10995103.29346  21154141.4144                   21154139.0984
 11  7 25 22 23 30.0000000  0  9G17G24G07G08G26G11G04G27G28
  -8386857.70748  -6482235.74246  20710349.5394                   20710347.7234
  -3508543.50447  -2688189.11744  22821164.7584                   22821165.5164
  10732447.59446   8394473.96143  23519510.3054                   23519513.1914
  -9761093.87548  -7570212.45745  21167214.0084                   21167213.9454
  12821176.16047  10039908.10544  23719019.1024                   23719021.1954
   1636052.12546   1306795.22743  24010910.6644                   24010910.4694
  36848433.59847  28767742.10545  22563670.3834                   22563671.9184
  54698280.35946  42669757.09444  24625071.4144                   24625071.2934
 -14301862.10948 -11112453.42646  21125483.4534                   21125481.2194
 11  7 25 22 24  0.0000000  0  9G17G24G07G08G26G11G04G27G28
  -8533655.28548  -6596623.46146  20682414.8754                   20682413.2664
  -3576121.35247  -2740847.24244  22808304.6484                   22808305.4024
  10702715.56646   8371305.90644  23513853.1484                   23513855.6994
  -9818357.25848  -7614833.34845  21156317.2814                   21156317.6174
  12748376.26247   9983180.80143  23705165.4694                   23705167.3134
   1597429.97346   1276700.01643  24003561.1644                   24003560.8444
  36600987.33647  28574926.98444  22516582.9694                   22516584.3634
  54469389.11746  42491400.35543  24581514.1414                   24581514.7384
 -14452266.02048 -11229651.29746  21096862.5784                   21096860.5664
 11  7 25 22 24 30.0000000  0  9G17G24G07G08G26G11G04G27G28
  -8680104.15248  -6710739.44546  20654546.8134                   20654545.0044
  -3643225.41847  -2793136.18744  22795535.0234                   22795536.5164
  10673200.08646   8348306.56644  23508236.3984                   23508240.3984
  -9875108.60948  -7659055.24646  21145517.2974                   21145518.0164
  12675897.79747   9926703.97343  23691373.6724                   23691374.9344
   1559057.02046   1246799.00043  23996259.1334                   23996258.6214
  36353793.69547  28382308.70344  22469543.3984                   22469544.8284
  54240715.11746  42313212.89543  24537999.4844                   24537998.4104
 -14602463.89548 -11346688.59846  21068281.2734                   21068278.4264
 11  7 25 22 25  0.0000000  0  9G17G24G07G08G26G11G04G27G28
  -8826210.03548  -6824588.16846  20626743.2814                   20626741.3204
  -3709862.75047  -2845061.41044  22782854.5474                   22782854.5904
  10643893.69147   8325470.14544  23502660.0084                   23502663.7774
  -9931354.50848  -7702883.30146  21134814.7034                   21134814.8364
  12603732.71147   9870471.34844  23677640.8984                   23677643.0744
   1520925.79946   1217086.33643  23989003.1094                   23989002.2934
  36106850.85547  28189885.84444  22422551.1334                   22422552.9654
  54012255.55146  42135192.52343  24494523.7664                   24494524.7074
 -14752459.41848 -11463568.23446  21039737.5004                   21039735.1684
 11  7 25 22 25 30.0000000  0  9G17G24G07G08G26G11G04G27G28
  -7396539.93748  -5710559.51646  20898800.3984                   20898798.6334
  -2200603.69147  -1669015.40644  23070057.5004                   23070057.7854
  12190224.54346   9530403.02744  23796916.7664                   23796920.4184
  -8411666.27748  -6518710.71945  21424002.0004                   21424002.0784
  14107310.02747  11042089.92644  23963762.6484                   23963764.7504
   3058463.76246   2415167.77743  24281587.2584                   24281586.4264
  37435599.51247  29225274.53145  22675404.1804                   22675405.6844
  55359449.86746  43184954.41043  24750885.9534                   24750886.6214
 -13326816.35248 -10352677.52346  21311028.6484                   21311026.3094
 11  7 25 22 26  0.0000000  0  9G17G24G07G08G26G11G04G27G28
  -7541950.09048  -5823866.11746  20871129.9534                   20871128.3444
  -2266300.68747  -1720207.88744  23057555.4694                   23057555.8674
  12161342.16447   9507897.01244  23791421.1724                   23791424.7194
  -8466895.00448  -6561746.17245  21413492.2504                   21413492.0634
  14035775.71147  10986348.80143  23950149.8754                   23950152.0704
   3020821.13346   2385835.83243  24274423.8914                   24274423.3834
  37189180.44547  29033259.81344  22628511.7274                   22628513.3754
  55131439.75046  43007284.28543  24707496.6484                   24707497.4344
 -13476389.19948 -10469227.80146  21282565.5634                   21282563.5084
 11  7 25 22 26 30.0000000  0  9G17G24G07G08G26G11G04G27G28
  -7687018.81648  -5936906.67246  20843524.3674                   20843522.6994
  -2331535.68747  -1771040.37144  23045141.6334                   23045142.6174
  12132663.50046   9485549.75444  23785963.5164                   23785967.7894
  -8521623.59448  -6604391.89145  21403077.4924                   21403077.9964
  13964547.27047  10930846.00444  23936595.7664                   23936597.9774
   2983414.66046   2356687.88743  24267306.1564                   24267304.9414
  36943022.98847  28841448.92645  22581669.2814                   22581670.5354
  54903653.15246  42829788.33243  24664150.2114                   24664151.0514
 -13625753.30948 -10585615.43446  21254142.3204                   21254140.8094
 11  7 25 22 27  0.0000000  0  8G17G24G07G08G26G04G27G28
  -7831739.68448  -6049676.19146  20815984.7814                   20815983.3284
  -2396303.34847  -1821508.69944  23032816.8444                   23032817.3914
  12104193.41046   9463364.97744  23780546.3054                   23780550.6454
  -8575846.45748  -6646643.55545  21392759.5164                   21392759.5984
  13893629.02747  10875584.93044  23923100.6884                   23923102.6724
  36697137.86747  28649850.27044  22534878.9304                   22534880.1564
  54676100.08246  42652474.23043  24620849.3834                   24620849.5864
 -13774899.84048 -10701833.51246  21225761.0944                   21225758.8634
 11  7 25 22 27 30.0000000  0  8G17G24G07G08G26G04G27G28
  -7976120.16448  -6162180.44546  20788509.6804                   20788507.9734
  -2460612.55547  -1871619.80944  23020579.1174                   23020580.2274
  12075923.19146   9441335.94544  23775166.8984                   23775171.2304
  -8629572.21948  -6688507.85945  21382536.1564                   21382535.7974
  13823011.59847  10820558.27043  23909662.1564                   23909664.1414
  36451521.28947  28458460.85944  22488139.4064                   22488141.0664
  54448776.04347  42475338.69943  24577590.4774                   24577591.2894
 -13923833.87948 -10817886.02346  21197419.5554                   21197418.1764
 11  7 25 22 28  0.0000000  0  8G17G24G07G08G26G04G27G28
  -8120143.31648  -6274406.28146  20761103.8674                   20761101.4264
  -2524447.71547  -1921361.53944  23008432.1954                   23008432.1524
  12047867.80547   9419474.31344  23769828.5634                   23769833.1454
  -8682785.28948  -6729972.66045  21372409.9924                   21372410.0044
  13752709.60547  10765777.38744  23896284.5634                   23896287.0704
  36206194.57047  28267297.31344  22441455.1644                   22441457.2034
  54221701.62147  42298397.62144  24534380.2344                   24534380.7774
 -14072535.95348 -10933757.77746  21169123.2424                   21169120.7384
 11  7 25 22 28 30.0000000  0  8G17G24G07G08G26G04G27G28
  -8263806.97348  -6386351.97746  20733765.2974                   20733763.2274
  -2587807.90647  -1970733.16044  22996374.5394                   22996375.9024
  12020028.34846   9397780.94944  23764531.3594                   23764535.7304
  -8735484.85548  -6771037.32445  21362381.6024                   21362382.1564
  13682723.04347  10711242.28543  23882967.1954                   23882969.2114
  35961163.53547  28076364.16044  22394827.2114                   22394828.4614
  53994882.16447  42121655.26244  24491217.5394                   24491218.8364
 -14221001.40248 -11049445.13346  21140870.8594                   21140868.5704
 11  7 25 22 29  0.0000000  0  8G17G24G07G08G26G04G27G28
  -8407113.58248  -6498019.46546  20706494.7034                   20706492.6174
  -2650696.64547  -2019737.36744  22984407.8524                   22984408.2504
  11992400.87147   9376252.76243  23759274.5634                   23759277.8244
  -8787674.79747  -6811704.87545  21352450.0944                   21352450.0124
  13613047.34447  10656949.40244  23869708.0234                   23869710.6094
  35716429.96547  27885662.81645  22348256.1414                   22348257.2114
  53768318.86747  41945112.46144  24448104.4064                   24448105.3284
 -14369230.59048 -11164948.39546  21112663.9614                   21112661.1844
 11  7 25 22 29 30.0000000  0  8G17G24G07G08G26G04G27G28
  -8550056.14148  -6609403.27346  20679293.3444                   20679291.6174
  -2713108.19147  -2068369.77044  22972531.5634                   22972531.2774
  11964991.17247   9354894.29744  23754058.3054                   23754062.2704
  -8839349.06248  -6851970.61745  21342617.0704                   21342617.3874
  13543687.72347  10602902.81344  23856509.2114                   23856511.9224
  35472005.18447  27695202.05945  22301743.0314                   22301744.2114
  53542022.17647  41768777.40244  24405041.6254                   24405042.0164
 -14517213.39848 -11280259.66846  21084503.4774                   21084501.3984
 11  7 25 22 30  0.0000000  0  8G17G24G07G08G26G04G27G28
  -8692634.62548  -6720503.37946  20652161.9924                   20652159.9344
  -2775043.78947  -2116631.27744  22960745.1564                   22960745.6564
  11937797.91447   9333704.43443  23748884.3754                   23748887.3754
  -8890508.92248  -6891835.52345  21332882.0864                   21332881.7704
  13474642.03147  10549100.88343  23843370.4064                   23843372.4454
  35227893.08647  27504984.97745  22255289.8914                   22255291.6724
  53315995.42247  41592652.70344  24362029.7664                   24362030.9614
 -14664947.43748 -11395377.09446  21056390.9774                   21056388.2814
 11  7 25 22 30 30.0000000  0  8G17G24G07G08G26G04G27G28
  -8834850.41848  -6831320.88746  20625099.2114                   20625097.8014
  -2836505.90647  -2164523.86344  22949049.5634                   22949049.4454
  11910818.17647   9312680.99644  23743750.3914                   23743754.8204
  -8941156.87548  -6931301.53145  21323243.8674                   21323243.8834
  13405906.61747  10495540.71144  23830290.1334                   23830293.3404
  34984096.57447  27315013.80545  22208896.7734                   22208898.5044
  53090240.89147  41416740.12944  24319070.2584                   24319071.0394
 -14812431.61748 -11510299.84046  21028325.1024                   21028323.2074
 11  7 25 22 31  0.0000000  0  8G17G24G07G08G26G04G27G28
  -7401284.89848  -5714256.84046  20897897.2504                   20897895.5944
  -1322080.08647   -984451.85244  23237235.0474                   23237235.6214
  13459465.36347  10519418.77344  24038448.8594                   24038452.1954
  -7415879.04347  -5742773.41845  21613494.6954                   21613495.0904
  14912896.00447  11669818.01244  24117061.1884                   24117063.1914
  36316041.66847  28352893.22745  22462357.6644                   22462359.5394
  54440183.39846  42468643.41444  24575955.5554                   24575955.7664
 -13384244.82048 -10397427.00846  21300099.7584                   21300097.7424
 11  7 25 22 31 30.0000000  0  8G17G24G07G08G26G04G27G28
  -7542787.70748  -5824518.77346  20870970.4844                   20870968.6884
  -1382611.90247  -1031619.53544  23225715.8754                   23225717.1524
  13432895.88347  10498715.00844  24033393.1334                   24033396.1134
  -7465520.27747  -5781454.99245  21604047.9384                   21604048.6334
  14844762.71547  11616727.01243  24104096.1024                   24104099.3014
  36072875.94547  28163413.58245  22416085.0234                   22416085.7814
  54214970.91446  42293153.21543  24533098.1644                   24533099.1954
 -13531234.45348 -10511964.38746  21272128.7194                   21272126.6644
 11  7 25 22 32  0.0000000  0  8G17G24G07G08G26G04G27G28
  -7683931.04348  -5934500.59846  20844111.9304                   20844109.9614
  -1442677.52747  -1078423.94944  23214286.3674                   23214285.9494
  13406532.51247  10478171.84444  24028375.7424                   24028379.3134
  -7514656.86747  -5819743.32445  21594697.7504                   21594697.7894
  14776930.50847  11563870.66043  24091188.4064                   24091190.0354
  35830034.72747  27974186.77745  22369873.7894                   22369875.0594
  53990037.69146  42117880.62943  24490295.0704                   24490296.1334
 -13677969.57848 -10626303.45346  21244206.1484                   21244204.0084
 11  7 25 22 32 30.0000000  0  8G17G24G07G08G26G04G27G28
  -7824722.10248  -6044207.91446  20817320.6024                   20817318.4964
  -1502285.35247  -1124871.64844  23202943.5634                   23202944.1414
  13380366.77347  10457782.65643  24023397.2584                   24023401.0984
  -7563297.49647  -5857645.18045  21585441.9224                   21585441.9964
  14709390.09847  11511241.62943  24078335.5394                   24078338.2074
  35587514.88748  27785210.39544  22323723.2344                   22323724.7074
  53765379.99646  41942822.75443  24447543.3134                   24447545.8714
 -13824455.18448 -10740448.09046  21216330.6564                   21216328.2894
 11  7 25 22 33  0.0000000  0  8G17G24G07G08G26G04G27G28
  -7965160.11348  -6153640.12946  20790595.8204                   20790593.5514
  -1561435.87547  -1170962.99244  23191687.5784                   23191687.3244
  13354398.06646  10437547.00443  24018453.9844                   24018459.4734
  -7611442.84047  -5895161.11745  21576280.0474                   21576280.3594
  14642139.96147  11458838.79743  24065537.3444                   24065541.5744
  35345321.20347  27596488.16445  22277635.1254                   22277636.9924
  53541001.96946  41767982.85243  24404845.4224                   24404847.9414
 -13970687.95348 -10854395.70746  21188503.8054                   21188501.6134
 11  7 25 22 33 30.0000000  0  8G17G24G07G08G26G04G27G28
  -8105247.26648  -6262798.93746  20763937.7974                   20763936.2774
  -1620132.57447  -1216700.72344  23180518.2034                   23180517.9734
  13328622.50447  10417461.83644  24013551.1564                   24013554.6374
  -7659096.50847  -5932293.92645  21567211.8524                   21567212.4574
  14575175.97347  11406658.93443  24052795.9534                   24052798.6724
  35103455.66448  27408021.63345  22231609.6484                   22231611.0004
  53316905.13346  41593361.99644  24362202.0394                   24362202.7894
 -14116667.54748 -10968146.03546  21160724.8914                   21160722.4224
 11  7 25 22 34  0.0000000  0  8G17G24G07G08G26G04G27G28
  -8244986.95748  -6371687.00046  20737346.2194                   20737344.8324
  -1678380.13746  -1262088.46144  23169432.7034                   23169434.0704
  13303035.71946  10397523.77343  24008681.6174                   24008686.2154
  -7706262.80947  -5969046.97745  21558236.8444                   21558236.8554
  14508492.51247  11354697.69143  24040106.7584                   24040109.1604
  34861919.00447  27219811.37145  22185647.0314                   22185648.0984
  53093089.48046  41418960.22344  24319610.9844                   24319611.4964
 -14262394.57048 -11081699.57846  21132993.7664                   21132991.8014
 11  7 25 22 34 30.0000000  0  8G17G24G07G08G26G04G27G28
  -8384372.07848  -6480298.78546  20710822.1724                   20710820.3094
  -1736173.14847  -1307122.01244  23158435.3284                   23158436.4924
  13277643.10247  10377737.03143  24003850.3754                   24003853.9534
  -7752936.43747  -6005416.12945  21549355.2664                   21549355.5164
  14442094.48847  11302958.84843  24027470.3594                   24027474.1374
  34620722.00847  27031865.78145  22139747.9774                   22139749.8874
  52869565.20746  41244785.53544  24277075.4304                   24277075.9344
 -14407859.52048 -11195048.89146  21105312.8364                   21105310.3484
 11  7 25 22 35  0.0000000  0  8G17G24G07G08G26G04G27G28
  -8523400.94148  -6588632.96946  20684365.8204                   20684364.3094
  -1793510.19546  -1351800.28544  23147524.9304                   23147525.7384
  13252445.73046  10358102.37143  23999054.9064                   23999060.1134
  -7799116.50047  -6041400.69545  21540567.2584                   21540567.6684
  14375982.52347  11251442.92644  24014890.6024                   24014893.8204
  34379871.30547  26844190.02045  22093915.5634                   22093917.7384
  52646338.25047  41070842.48043  24234597.8834                   24234597.2074
 -14553057.77348 -11308190.39846  21077682.5164                   21077680.1804
 11  7 25 22 35 30.0000000  0  8G17G24G07G08G26G04G27G28
  -8662082.04348  -6696696.15246  20657975.7424                   20657973.8794
  -1850401.93047  -1396131.53944  23136699.9924                   23136699.9694
  13227432.62146  10338611.34043  23994295.7894                   23994300.0234
  -7844813.80147  -6077009.07845  21531871.6254                   21531871.9924
  14310144.98847  11200140.81643  24002362.7734                   24002365.1294
  34139361.72348  26656780.07045  22048148.6724                   22048149.7934
  52423402.50847  40897126.35243  24192174.4774                   24192173.7154
 -14697995.75448 -11421129.10246  21050101.3364                   21050098.9344
 11  7 25 22 36  0.0000000  0  8G17G24G07G08G26G04G27G28
  -8800410.11748  -6804484.25446  20631652.7664                   20631651.2584
  -1906844.35947  -1440112.68044  23125957.8754                   23125958.5904
  13202608.02347  10319267.18044  23989572.6174                   23989576.7664
  -7890024.01247  -6112237.93045  21523268.7194                   21523269.4694
  14244585.13746  11149055.10943  23989886.2344                   23989889.3834
  33899202.65247  26469643.25445  22002447.5474                   22002448.9844
  52200767.15247  40723644.32444  24149808.5704                   24149807.9264
 -14842665.71948 -11533858.95746  21022571.5634                   21022569.5164
 11  7 25 22 36 30.0000000  0  8G17G24G07G08G26G04G27G28
  -8938392.31248  -6912002.83646  20605395.7974                   20605394.3754
  -1962845.77747  -1483750.19944  23115301.9144                   23115302.2344
  13177963.82046  10300063.60943  23984882.4694                   23984886.5984
  -7934755.37947  -6147093.62945  21514756.2194                   21514757.1294
  14179294.19146  11098178.89543  23977462.2034                   23977465.5234
  33659391.16448  26282777.25845  21956812.6334                   21956814.3014
  51978428.83647  40550393.74243  24107498.4144                   24107497.4734
 -14987072.00848 -11646383.37146  20995092.3754                   20995090.2504
 11  7 25 22 37  0.0000000  0  8G17G24G07G08G26G04G27G28
  -7500601.88748  -5791646.65246  20878998.1024                   20878996.2814
   -442983.57047   -299442.02044  23404522.2114                   23404522.0124
  14728921.29747  11508601.56344  24280021.0004                   24280025.2304
  -6403585.82047  -4953974.59445  21806128.0394                   21806129.2304
  15689694.20747  12275113.83243  24264882.8284                   24264885.5554
  34995361.50048  27323793.21945  22211039.1954                   22211041.3674
  53331820.44146  41604984.61343  24365039.7664                   24365039.5274
 -13555784.70748 -10531094.57846  21267457.6254                   21267455.1684
 11  7 25 22 37 30.0000000  0  8G17G24G07G08G26G04G27G28
  -7637889.23048  -5898623.79346  20852872.9614                   20852871.3984
   -498103.86347   -342392.92244  23394033.2504                   23394033.7974
  14704636.08247  11489677.71544  24275400.2114                   24275404.5634
  -6447361.38347  -4988085.53145  21797797.8984                   21797799.2034
  15624937.73447  12224654.10543  24252559.6334                   24252562.7854
  34756260.82048  27137481.12145  22165539.8594                   22165540.9774
  53110089.39547  41432207.25443  24322846.0234                   24322846.0554
 -13699651.89848 -10643198.90246  21240080.2974                   21240078.5434
 11  7 25 22 38  0.0000000  0  8G17G24G07G08G26G04G27G28
  -7774825.50848  -6005327.36746  20826814.8284                   20826812.9414
   -552781.72747   -384999.05544  23383628.2974                   23383629.0394
  14680532.41047  11470895.35543  24270812.5084                   24270817.8014
  -6490657.28947  -5021822.72345  21789559.5164                   21789559.9224
  15560449.08647  12174403.07044  24240288.1174                   24240291.0354
  34517525.27748  26951453.52045  22120110.1804                   22120111.8014
  52888670.69946  41259673.19943  24280711.7584                   24280710.8364
 -13843242.25448 -10755087.50446  21212756.0634                   21212753.6994
 11  7 25 22 38 30.0000000  0  8G17G24G07G08G26G04G27G28
  -7911409.56248  -6111756.48846  20800823.9454                   20800821.8364
   -607017.50447   -427260.71544  23373306.6954                   23373308.1994
  14656609.85547  11452254.07044  24266261.2894                   24266266.9884
  -6533473.98447  -5055186.46945  21781411.8204                   21781412.5084
  15496227.37947  12124360.01243  24228067.2424                   24228070.5004
  34279159.99648  26765714.45745  22074750.5704                   22074751.7624
  52667569.05946  41087386.26643  24238635.9224                   24238637.7384
 -13986552.10948 -10866757.53946  21185485.1094                   21185482.6454
 11  7 25 22 39  0.0000000  0  8G17G24G07G08G26G04G27G28
  -8047641.75448  -6217911.43746  20774899.8674                   20774898.2854
   -660812.94147   -469179.26644  23363070.9224                   23363071.1994
  14632866.49246  11433752.48443  24261743.4614                   24261747.2704
  -6575813.43747  -5088178.35945  21773354.4774                   21773355.4144
  15432270.23046  12074523.12543  24215895.8444                   24215899.2274
  34041168.59448  26580266.72745  22029462.4924                   22029463.3134
  52446787.36347  40915348.61343  24196624.0084                   24196623.5514
 -14129579.28948 -10978207.28946  21158267.9304                   21158265.4344
 11  7 25 22 39 30.0000000  0  8G17G24G07G08G26G04G27G28
  -8183526.76648  -6323795.85946  20749041.8754                   20749040.3674
   -714173.83647   -510759.23844  23352916.1564                   23352917.0044
  14609296.63746  11415386.04743  24257257.3284                   24257262.7734
  -6617681.32847  -5120802.80145  21765387.4924                   21765387.5474
  15368570.93046  12024887.14543  24203774.6094                   24203778.6254
  33803550.86747  26395110.17245  21984244.9384                   21984245.8834
  52226324.72746  40743559.53543  24154670.9224                   24154670.3444
 -14272325.56248 -11089438.16846  21131104.6174                   21131101.8284
 11  7 25 22 40  0.0000000  0  7G17G24G08G26G04G27G28
  -8319062.25448  -6429407.93046  20723250.1174                   20723248.4924
   -767099.32447   -551999.89844  23342844.9694                   23342845.6174
  -6659076.99648  -5153059.27345  21757510.3444                   21757510.3054
  15305129.64547  11975452.20743  24191702.5084                   24191706.0164
  33566312.97747  26210249.57445  21939100.1174                   21939100.8014
  52006186.94147  40572023.63744  24112779.9224                   24112780.1764
 -14414786.14848 -11200446.41446  21103995.0944                   21103992.7664
 11  7 25 22 40 30.0000000  0  7G17G24G08G26G04G27G28
  -8454249.02348  -6534748.25446  20697525.1024                   20697523.0274
   -819591.75447   -592903.12544  23332855.5634                   23332857.2234
  -6700003.02747  -5184949.77745  21749722.5394                   21749723.1334
  15241943.48447  11926216.11343  24179678.6414                   24179681.9844
  33329457.94548  26025687.32845  21894028.0634                   21894029.0824
  51786376.60247  40400742.87144  24070951.6484                   24070953.1644
 -14556959.22748 -11311230.63346  21076940.4844                   21076938.0634
 11  7 25 22 41  0.0000000  0  7G17G24G08G26G04G27G28
  -8589088.09448  -6639817.64146  20671866.3674                   20671864.3714
   -871653.14147   -633470.49244  23322949.1954                   23322949.9774
  -6740461.69547  -5216476.13345  21742023.6024                   21742024.3444
  15179009.64847  11877176.60543  24167702.6024                   24167706.5314
  33092989.01248  25841425.92645  21849029.3984                   21849030.2464
  51566896.34847  40229719.30144  24029186.0084                   24029187.3204
 -14698843.06248 -11421789.46546  21049940.5474                   21049938.6094
 11  7 25 22 41 30.0000000  0  7G17G24G08G26G04G27G28
  -8723570.25448  -6744608.93046  20646274.9844                   20646273.3554
   -923275.80147   -673695.99644  23313125.2814                   23313126.4304
  -6780445.53147  -5247632.48045  21734415.1024                   21734415.2704
  15116335.03547  11828339.07443  24155776.1414                   24155780.1454
  32856919.53147  25657475.79745  21804106.8914                   21804108.3914
  51347758.64147  40058962.68444  23987485.3524                   23987486.6134
 -14840426.05148 -11532113.89146  21022998.0944                   21022996.1804
